[[{"header":{"parameterUnit":"m.s-1","parameterCategory":1,"la1":31.0,"la2":29.5877,"lo1":-88.7671,"lo2":-86.6584,"dy":0.0162,"dx":0.0185,"nx":115,"ny":88,"refTime":"2023-03-16T18:00:00:Z","depth":0,"parameterNumber":2,"parameterNumberName":"U-component_of_WINDS"},"data":[0.0,0.0,0.0,0.0,0.0,0.0,0.0,0.0,0.0,0.0,0.0,0.0,0.0,0.0,0.0,0.0,0.0,0.0,0.0,0.0,0.0,0.0,0.0,0.0,0.0,0.0,0.0,0.0,0.0,0.0,0.0,0.0,0.0,0.0,0.0,0.0,0.0,0.0,0.0,0.0,0.0,0.0,0.0,0.0,0.0,0.0,0.0,0.0,0.0,0.0,0.0,0.0,0.0,0.0,0.0,0.0,0.0,0.0,0.0,0.0,0.0,0.0,0.0,0.0,0.0,0.0,0.0,0.0,0.0,0.0,0.0,0.0,0.0,0.0,0.0,0.0,0.0,0.0,0.0,0.0,0.0,0.0,0.0,0.0,0.0,0.0,0.0,0.0,0.0,0.0,0.0,0.0,0.0,0.0,0.0,0.0,0.0,0.0,0.0,0.0,0.0,0.0,0.0,0.0,0.0,0.0,0.0,0.0,0.0,0.0,0.0,0.0,0.0,0.0,0.0,0.0,0.0,0.0,0.0,0.0,0.0,0.0,0.0,0.0,0.0,0.0,0.0,0.0,0.0,0.0,0.0,0.0,0.0,0.0,0.0,0.0,0.0,0.0,0.0,0.0,0.0,0.0,0.0,0.0,0.0,0.0,0.0,0.0,0.0,0.0,0.0,0.0,0.0,0.0,0.0,0.0,0.0,0.0,0.0,0.0,0.0,0.0,0.0,0.0,0.0,0.0,0.0,0.0,0.0,0.0,0.0,0.0,0.0,0.0,0.0,0.0,0.0,0.0,0.0,0.0,0.0,0.0,0.0,0.0,0.0,0.0,0.0,0.0,0.0,0.0,0.0,0.0,0.0,0.0,0.0,0.0,0.0,0.0,0.0,0.0,0.0,0.0,0.0,0.0,0.0,0.0,0.0,0.0,0.0,0.0,0.0,0.0,0.0,0.0,0.0,0.0,0.0,0.0,0.0,0.0,0.0,0.0,0.0,0.0,0.0,0.0,0.0,0.0,0.0,0.0,0.0,0.0,0.0,0.0,0.0,0.0,0.0,0.0,0.0,0.0,0.0,0.0,0.0,0.0,0.0,0.0,0.0,0.0,0.0,0.0,0.0,0.0,0.0,0.0,0.0,0.0,0.0,0.0,0.0,0.0,0.0,0.0,0.0,0.0,0.0,0.0,0.0,0.0,0.0,0.0,0.0,0.0,0.0,0.0,0.0,0.0,0.0,0.0,0.0,0.0,0.0,0.0,0.0,0.0,0.0,0.0,0.0,0.0,0.0,0.0,0.0,0.0,0.0,0.0,0.0,0.0,0.0,0.0,0.0,0.0,0.0,0.0,0.0,0.0,0.0,0.0,0.0,0.0,0.0,0.0,0.0,0.0,0.0,0.0,0.0,0.0,0.0,0.0,0.0,0.0,0.0,0.0,0.0,0.0,0.0,0.0,0.0,0.0,0.0,0.0,0.0,0.0,0.0,0.0,0.0,0.0,0.0,0.0,0.0,0.0,0.0,0.0,0.0,0.0,0.0,0.0,0.0,0.0,0.0,0.0,0.0,0.0,0.0,0.0,0.0,0.0,0.0,0.0,0.0,0.0,0.0,0.0,0.0,0.0,0.0,0.0,0.0,0.0,0.0,0.0,0.0,0.0,0.0,0.0,0.0,0.0,0.0,0.0,0.0,0.0,0.0,0.0,0.0,0.0,0.0,0.0,0.0,0.0,0.0,0.0,0.0,0.0,0.0,0.0,0.0,0.0,0.0,0.0,0.0,0.0,0.0,0.0,0.0,0.0,0.0,0.0,0.0,0.0,0.0,0.0,0.0,0.0,0.0,0.0,0.0,0.0,0.0,0.0,0.0,0.0,0.0,0.0,0.0,0.0,0.0,0.0,0.0,0.0,0.0,0.0,0.0,0.0,0.0,0.0,0.0,0.0,0.0,0.0,0.0,0.0,0.0,0.0,0.0,0.0,0.0,0.0,0.0,0.0,0.0,0.0,0.0,0.0,0.0,0.0,0.0,0.0,0.0,0.0,0.0,0.0,0.0,0.0,0.0,0.0,0.0,0.0,0.0,0.0,0.0,0.0,0.0,0.0,0.0,0.0,0.0,0.0,0.0,0.0,0.0,0.0,0.0,0.0,0.0,0.0,0.0,0.0,0.0,0.0,0.0,0.0,0.0,0.0,0.0,0.0,0.0,0.0,0.0,0.0,0.0,0.0,0.0,0.0,0.0,0.0,0.0,0.0,0.0,0.0,0.0,0.0,0.0,0.0,0.0,0.0,0.0,0.0,0.0,0.0,0.0,0.0,0.0,0.0,0.0,0.0,0.0,0.0,0.0,0.0,0.0,0.0,0.0,0.0,0.0,0.0,0.0,0.0,0.0,0.0,0.0,0.0,0.0,0.0,0.0,0.0,0.0,0.0,0.0,0.0,0.0,0.0,0.0,0.0,0.0,0.0,0.0,0.0,0.0,0.0,0.0,0.0,0.0,0.0,0.0,0.0,0.0,0.0,0.0,0.0,0.0,0.0,0.0,0.0,0.0,0.0,0.0,0.0,0.0,0.0,0.0,0.0,0.0,0.0,0.0,0.0,0.0,0.0,0.0,0.0,0.0,0.0,0.0,0.0,0.0,0.0,0.0,0.0,0.0,0.0,0.0,0.0,0.0,0.0,0.0,0.0,0.0,0.0,0.0,0.0,0.0,0.0,0.0,0.0,0.0,0.0,0.0,0.0,0.0,0.0,0.0,0.0,0.0,0.0,0.0,0.0,0.0,0.0,0.0,0.0,0.0,0.0,0.0,0.0,0.0,0.0,0.0,0.0,0.0,0.0,0.0,0.0,0.0,0.0,0.0,0.0,0.0,0.0,0.0,0.0,0.0,0.0,0.0,0.0,0.0,0.0,0.0,0.0,0.0,0.0,0.0,0.0,0.0,0.0,0.0,0.0,0.0,0.0,0.0,0.0,0.0,0.0,0.0,0.0,0.0,0.0,0.0,0.0,0.0,0.0,0.0,0.0,0.0,0.0,0.0,0.0,0.0,0.0,0.0,0.0,0.0,0.0,0.0,0.0,0.0,0.0,0.0,0.0,0.0,0.0,0.0,0.0,0.0,0.0,0.0,0.0,0.0,0.0,0.0,0.0,0.0,0.0,0.0,0.0,0.0,0.0,0.0,0.0,0.0,0.0,0.0,0.0,0.0,0.0,0.0,0.0,0.0,0.0,0.0,0.0,0.0,0.0,0.0,0.0,0.0,0.0,0.0,0.0,0.0,0.0,0.0,0.0,0.0,0.0,0.0,0.0,0.0,0.0,0.0,0.0,0.0,0.0,0.0,0.0,0.0,0.0,0.0,0.0,0.0,0.0,0.0,0.0,0.0,0.0,0.0,0.0,0.0,0.0,0.0,0.0,0.0,0.0,0.0,0.0,0.0,0.0,0.0,0.0,0.0,0.0,0.0,0.0,0.0,0.0,0.0,0.0,0.0,0.0,0.0,0.0,0.0,0.0,0.0,0.0,0.0,0.0,0.0,0.0,0.0,0.0,0.0,0.0,0.0,0.0,0.0,0.0,0.0,0.0,0.0,0.0,0.0,0.0,0.0,0.0,0.0,0.0,0.0,0.0,0.0,0.0,0.0,0.0,0.0,0.0,0.0,0.0,0.0,0.0,0.0,0.0,0.0,0.0,0.0,0.0,0.0,0.0,0.0,0.0,0.0,0.0,0.0,0.0,0.0,0.0,0.0,0.0,0.0,0.0,0.0,0.0,0.0,0.0,0.0,0.0,0.0,0.0,0.0,0.0,0.0,0.0,0.0,0.0,0.0,0.0,0.0,0.0,0.0,0.0,0.0,0.0,0.0,0.0,0.0,0.0,0.0,0.0,0.0,0.0,0.0,0.0,0.0,0.0,0.0,0.0,0.0,0.0,0.0,0.0,0.0,0.0,0.0,0.0,0.0,0.0,0.0,0.0,0.0,0.0,0.0,0.0,0.0,0.0,0.0,0.0,0.0,0.0,0.0,0.0,0.0,0.0,0.0,0.0,0.0,0.0,0.0,0.0,0.0,0.0,0.0,0.0,0.0,0.0,0.0,0.0,0.0,0.0,0.0,0.0,0.0,0.0,0.0,0.0,0.0,0.0,0.0,0.0,0.0,0.0,0.0,0.0,0.0,0.0,0.0,0.0,0.0,0.0,0.0,0.0,0.0,0.0,0.0,0.0,0.0,0.0,0.0,0.0,0.0,0.0,0.0,0.0,0.0,0.0,0.0,0.0,0.0,0.0,0.0,0.0,0.2372,0.0,0.0,0.0,0.0,0.0,0.0,0.0,0.0,0.0,0.0,0.0,0.0,0.0,0.0,0.0,0.0,0.0,0.0,0.0,0.0,0.0,0.0,0.0,0.0,0.0,0.0,0.0,0.0,0.0,0.0,0.0,0.0,0.0,0.0,0.0,0.0,0.0,0.0,0.0,0.0,0.0,0.0,0.0,0.0,0.0,0.0,0.0,0.0,0.0,0.0,0.0,0.0,0.0,0.0,0.0,0.0,0.0,0.0,0.0,0.0,0.0,0.0,0.0,0.0,0.0,0.0,0.0,0.0,0.0,0.0,0.0,0.0,0.0,0.0,0.0,0.0,0.0,0.0,0.0,0.0,0.0,0.0,0.0,0.0,0.0,0.0,0.0,0.0,0.0,0.0,0.0,0.0,0.0,0.0,0.0,0.0,0.0,0.0,0.0,0.0,0.0,0.0,0.0,0.0,0.0,0.0,0.0,0.0,0.0,0.0,0.1968,0.2069,0.2221,0.2441,0.2706,0.0,0.0,0.0,0.0,0.0,0.0,0.0,0.0,0.0,0.0,0.0,0.0,0.0,0.0,0.0,0.0,0.0,0.0,0.0,0.0,0.0,0.0,0.0,0.0,0.0,0.0,0.0,0.0,0.0,0.0,0.0,0.0,0.0,0.0,0.0,0.0,0.0,0.0,0.0,0.0,0.0,0.0,0.0,0.0,0.0,0.0,0.0,0.0,0.0,0.0,0.0,0.0,0.0,0.0,0.0,0.0,0.0,0.0,0.0,0.0,0.0,0.0,0.0,0.0,0.0,0.0,0.0,0.0,0.0,0.0,0.0,0.0,0.0,0.0,0.0,0.0,0.0,0.0,0.0,0.0,0.0,0.0,0.0,0.0,0.0,0.0,0.0,0.0,0.0,0.0,0.0,0.0,0.0,0.0,0.0,0.0,0.0,0.0,0.0,0.0,0.0,0.0,0.0,0.0,0.0,0.0,0.0,0.0,0.0,0.0,0.0,0.0,0.2456,0.2673,0.2974,0.0,0.0,0.0,0.0,0.0,0.0,0.0,0.0,0.0,0.0,0.0,0.0,0.0,0.0,0.0,0.0,0.0,0.0,0.0,0.0,0.0,0.0,0.0,0.0,0.0,0.0,0.0,0.0,0.0,0.0,0.0,0.0,0.0,0.0,0.0,0.0,0.0,0.0,0.0,0.0,0.0,0.0,0.0,0.0,0.0,0.0,0.0,0.0,0.0,0.0,0.0,0.0,0.0,0.0,0.0,0.0,0.0,0.0,0.0,0.0,0.0,0.0,0.0,0.0,0.0,0.0,0.0,0.0,0.0,0.0,0.0,0.0,0.0,0.0,0.0,0.0,0.0,0.0,0.0,0.0,0.0,0.0,0.0,0.0,0.0,0.0,0.0,0.0,0.0,0.0,0.0,0.0,0.0,0.0,0.0,0.0,0.0,0.0,0.0,0.0,0.0,0.0,0.0,0.0,0.0,0.0,0.0,0.0,0.0,0.0,0.2653,0.2653,0.2839,0.0,0.2995,0.0,0.0,0.0,0.0,0.0,0.0,0.0,0.0,0.0,0.0,0.0,0.0,0.0,0.0,0.0,0.0,0.0,0.0,0.0,0.0,0.0,0.0,0.0,0.0,0.0,0.0,0.0,0.0,0.0,0.0,0.0,0.0,0.0,0.0,0.0,0.0,0.0,0.0,0.0,0.0,0.0,0.0,0.0,0.0,0.0,0.0,0.0,0.0,0.0,0.0,0.0,0.0,0.0,0.0,0.0,0.0,0.0,0.0,0.0,0.0,0.0,0.0,0.0,0.0,0.0,0.0,0.0,0.0,0.0,0.0,0.0,0.0,0.0,0.0,0.0,0.0,0.0,0.0,0.0,0.0,0.0,0.0,0.0,0.0,0.0,0.0,0.0,0.0,0.0,0.0,0.0,0.0,0.0,0.0,0.0,0.0,0.0,0.0,0.0,0.0,0.0,0.0,0.0,0.0,0.0,0.0,0.0,0.0,0.0,0.0,0.2872,0.2889,0.3025,0.3025,0.0,0.0,0.0,0.0,0.0,0.0,0.0,0.0,0.0,0.0,0.0,0.0,0.0,0.0,0.0,0.0,0.0,0.0,0.0,0.0,0.0,0.0,0.0,0.0,0.0,0.0,0.0,0.0,0.0,0.0,0.0,0.0,0.0,0.0,0.0,0.0,0.0,0.0,0.0,0.0,0.0,0.0,0.0,0.0,0.0,0.0,0.0,0.0,0.0,0.0,0.0,0.0,0.0,0.0,0.0,0.0,0.0,0.0,0.0,0.0,0.0,0.0,0.0,0.0,0.0,0.0,0.0,0.0,0.0,0.0,0.0,0.0,0.0,0.0,0.0,0.0,0.0,0.0,0.0,0.0,0.0,0.0,0.0,0.0,0.0,0.0,0.0,0.0,0.0,0.0,0.0,0.0,0.0,0.0,0.0,0.0,0.0,0.0,0.0,0.0,0.0,0.0,0.0,0.0,0.0,0.0,0.0,0.0,0.0,0.0,0.3075,0.3058,0.3058,0.3159,0.3025,0.2703,0.0,0.0,0.0,0.0,0.0,0.0,0.0,0.0,0.0,0.0,0.0,0.0,0.0,0.0,0.0,0.0,0.0,0.0,0.0,0.0,0.0,0.0,0.0,0.0,0.0,0.0,0.0,0.0,0.0,0.0,0.0,0.0,0.0,0.0,0.0,0.0,0.0,0.0,0.0,0.0,0.0,0.0,0.0,0.0,0.0,0.0,0.0,0.0,0.0,0.0,0.0,0.0,0.0,0.0,0.0,0.0,0.0,0.0,0.0,0.0,0.0,0.0,0.0,0.0,0.0,0.0,0.0,0.0,0.0,0.0,0.0,0.0,0.0,0.0,0.0,0.0,0.0,0.0,0.0,0.0,0.0,0.0,0.0,0.0,0.0,0.0,0.0,0.0,0.0,0.0,0.0,0.0,0.0,0.0,0.0,0.0,0.0,0.0,0.0,0.0,0.0,0.0,0.0,0.0,0.0,0.0,0.0,0.0,0.3481,0.3295,0.3192,0.3175,0.3209,0.3041,0.0,0.0,0.0,0.0,0.0,0.0,0.0,0.0,0.0,0.0,0.0,0.0,0.0,0.0,0.0,0.0,0.0,0.0,0.0,0.0,0.0,0.0,0.0,0.0,0.0,0.0,0.0,0.0,0.0,0.0,0.0,0.0,0.0,0.0,0.0,0.0,0.0,0.0,0.0,0.0,0.0,0.0,0.0,0.0,0.0,0.0,0.0,0.0,0.0,0.0,0.0,0.0,0.0,0.0,0.0,0.0,0.0,0.0,0.0,0.0,0.0,0.0,0.0,0.0,0.0,0.0,0.0,0.0,0.0,0.0,0.0,0.0,0.0,0.0,0.0,0.0,0.0,0.0,0.0,0.0,0.0,0.0,0.0,0.0,0.0,0.0,0.0,0.0,0.0,0.0,0.0,0.0,0.0,0.0,0.0,0.0,0.0,0.0,0.0,0.0,0.0,0.0,0.0,0.0,0.0,0.0,0.0,0.0,0.0,0.3677,0.336,0.3209,0.3209,0.3209,0.3092,0.0,0.0,0.0,0.0,0.0,0.0,0.0,0.0,0.0,0.0,0.0,0.0,0.0,0.0,0.0,0.0,0.0,0.0,0.0,0.0,0.0,0.0,0.0,0.0,0.0,0.0,0.0,0.0,0.0,0.0,0.0,0.0,0.0,0.0,0.0,0.0,0.0,0.0,0.0,0.0,0.0,0.0,0.0,0.0,0.0,0.0,0.0,0.0,0.0,0.0,0.0,0.0,0.0,0.0,0.0,0.0,0.0,0.0,0.0,0.0,0.0,0.0,0.0,0.0,0.0,0.0,0.0,0.0,0.0,0.0,0.0,0.0,0.0,0.0,0.0,0.0,0.0,0.0,0.0,0.0,0.0,0.0,0.0,0.0,0.0,0.0,0.0,0.0,0.0,0.0,0.0,0.0,0.0,0.0,0.0,0.0,0.0,0.0,0.0,0.0,0.0,0.0,0.0,0.0,0.0,0.0,0.0,0.0,0.0,0.3594,0.0,0.3209,0.3209,0.3209,0.3142,0.0,0.0,0.0,0.0,0.0,0.0,0.0,0.0,0.0,0.0,0.0,0.0,0.0,0.0,0.0,0.0,0.0,0.0,0.0,0.0,0.0,0.0,0.0,0.0,0.0,0.0,0.0,0.0,0.0,0.0,0.0,0.0,0.0,0.0,0.0,0.0,0.0,0.0,0.0,0.0,0.0,0.0,0.0,0.0,0.0,0.0,0.0,0.0,0.0,0.0,0.0,0.0,0.0,0.0,0.0,0.0,0.0,0.0,0.0,0.0,0.0,0.0,0.0,0.0,0.0,0.0,0.0,0.0,0.0,0.0,0.0,0.0,0.0,0.0,0.0,0.0,0.0,0.0,0.0,0.0,0.0,0.0,0.0,0.0,0.0,0.0,0.0,0.0,0.0,0.0,0.0,0.0,0.0,0.0,0.0,0.0,0.0,0.0,0.0,0.0,0.0,0.0,0.0,0.0,0.0,0.0,0.0,0.0,0.3613,0.323,0.3217,0.3221,0.3213,0.3198,0.3129,0.0,0.0,0.0,0.0,0.0,0.0,0.0,0.0,0.0,0.0,0.0,0.0,0.0,0.0,0.0,0.0,0.0,0.0,0.0,0.0,0.0,0.0,0.0,0.0,0.0,0.0,0.0,0.0,0.0,0.0,0.0,0.0,0.0,0.0,0.0,0.0,0.0,0.0,0.0,0.0,0.0,0.0,0.0,0.0,0.0,0.0,0.0,0.0,0.0,0.0,0.0,0.0,0.0,0.0,0.0,0.0,0.0,0.0,0.0,0.0,0.0,0.0,0.0,0.0,0.0,0.0,0.0,0.0,0.0,0.0,0.0,0.0,0.0,0.0,0.0,0.0,0.0,0.0,0.0,0.0,0.0,0.0,0.0,0.0,0.0,0.0,0.0,0.0,0.0,0.0,0.0,0.0,0.0,0.0,0.0,0.0,0.0,0.0,0.0,0.0,0.0,0.0,0.0,0.0,0.0,0.0,0.0,0.0,0.0,0.3356,0.3383,0.3387,0.3341,0.3356,0.3274,0.0,0.0,0.0,0.0,0.0,0.0,0.0,0.0,0.0,0.0,0.0,0.0,0.0,0.0,0.0,0.0,0.0,0.0,0.0,0.0,0.0,0.0,0.0,0.0,0.0,0.0,0.0,0.0,0.0,0.0,0.0,0.0,0.0,0.0,0.0,0.0,0.0,0.0,0.0,0.0,0.0,0.0,0.0,0.0,0.0,0.0,0.0,0.0,0.0,0.0,0.0,0.0,0.0,0.0,0.0,0.0,0.0,0.0,0.0,0.0,0.0,0.0,0.0,0.0,0.0,0.0,0.0,0.0,0.0,0.0,0.0,0.0,0.0,0.0,0.0,0.0,0.0,0.0,0.0,0.0,0.0,0.0,0.0,0.0,0.0,0.0,0.0,0.0,0.0,0.0,0.0,0.0,0.0,0.0,0.0,0.0,0.0,0.0,0.0,0.0,0.0,0.0,0.0,0.0,0.0,0.0,0.0,0.0,0.0,0.3546,0.3522,0.3473,0.3453,0.3418,0.3353,0.3279,0.0,0.0,0.0,0.0,0.0,0.0,0.0,0.0,0.0,0.0,0.0,0.0,0.0,0.0,0.0,0.0,0.0,0.0,0.0,0.0,0.0,0.0,0.0,0.0,0.0,0.0,0.0,0.0,0.0,0.0,0.0,0.0,0.0,0.0,0.0,0.0,0.0,0.0,0.0,0.0,0.0,0.0,0.0,0.0,0.0,0.0,0.0,0.0,0.0,0.0,0.0,0.0,0.0,0.0,0.0,0.0,0.0,0.0,0.0,0.0,0.0,0.0,0.0,0.0,0.0,0.0,0.0,0.0,0.0,0.0,0.0,0.0,0.0,0.0,0.0,0.0,0.0,0.0,0.0,0.0,0.0,0.0,0.0,0.0,0.0,0.0,0.0,0.0,0.0,0.0,0.0,0.0,0.0,0.0,0.0,0.0,0.0,0.0,0.0,0.0,0.0,0.0,0.0,0.0,0.0,0.0,0.0,0.0,0.38,0.3612,0.3528,0.3495,0.347,0.3431,0.0,0.0,0.0,0.0,0.0,0.0,0.0,0.0,0.0,0.0,0.0,0.0,0.0,0.0,0.0,0.0,0.0,0.0,0.0,0.0,0.0,0.0,0.0,0.0,0.0,0.0,0.0,0.0,0.0,0.0,0.0,0.0,0.0,0.0,0.0,0.0,0.0,0.0,0.0,0.0,0.0,0.0,0.0,0.0,0.0,0.0,0.0,0.0,0.0,0.0,0.0,0.0,0.0,0.0,0.0,0.0,0.0,0.0,0.0,0.0,0.0,0.0,0.0,0.0,0.0,0.0,0.0,0.0,0.0,0.0,0.0,0.0,0.0,0.0,0.0,0.0,0.0,0.0,0.0,0.0,0.0,0.0,0.0,0.0,0.0,0.0,0.0,0.0,0.0,0.0,0.0,0.0,0.0,0.0,0.0,0.0,0.0,0.0,0.0,0.0,0.0,0.0,0.0,0.0,0.0,0.0,0.0,0.0,0.0,0.38,0.3828,0.3832,0.3738,0.3709,0.3602,0.0,0.0,0.0,0.0,0.0,0.0,0.0,0.0,0.0,0.0,0.0,0.0,0.0,0.0,0.0,0.0,0.0,0.0,0.0,0.0,0.0,0.0,0.0,0.0,0.0,0.0,0.0,0.0,0.0,0.0,0.0,0.0,0.0,0.0,0.0,0.0,0.0,0.0,0.0,0.0,0.0,0.0,0.0,0.0,0.0,0.0,0.0,0.0,0.0,0.0,0.0,0.0,0.0,0.0,0.0,0.0,0.0,0.0,0.0,0.0,0.0,0.0,0.0,0.0,0.0,0.0,0.0,0.0,0.0,0.0,0.0,0.0,0.0,0.0,0.0,0.0,0.0,0.0,0.0,0.0,0.0,0.0,0.0,0.0,0.0,0.0,0.0,0.0,0.0,0.0,0.0,0.0,0.0,0.0,0.0,0.0,0.0,0.0,0.0,0.0,0.0,0.0,0.0,0.0,0.0,0.0,0.0,0.0,0.3748,0.3877,0.4018,0.4042,0.3979,0.3844,0.3711,0.0,0.0,0.0,0.0,0.0,0.0,0.0,0.0,0.0,0.0,0.0,0.0,0.0,0.0,0.0,0.0,0.0,0.0,0.0,0.0,0.0,0.0,0.0,0.0,0.0,0.0,0.0,0.0,0.0,0.0,0.0,0.0,0.0,0.0,0.0,0.0,0.0,0.0,0.0,0.0,0.0,0.0,0.0,0.0,0.0,0.0,0.0,0.0,0.0,0.0,0.0,0.0,0.0,0.0,0.0,0.0,0.0,0.0,0.0,0.0,0.0,0.0,0.0,0.0,0.0,0.0,0.0,0.0,0.0,0.0,0.0,0.0,0.0,0.0,0.0,0.0,0.0,0.0,0.0,0.0,0.0,0.0,0.0,0.0,0.0,0.0,0.0,0.0,0.0,0.0,0.0,0.0,0.0,0.0,0.0,0.0,0.0,0.0,0.0,0.0,0.0,0.0,0.0,0.0,0.0,0.0,0.0,0.0,0.3841,0.3967,0.4091,0.4187,0.4201,0.3971,0.3762,0.0,0.0,0.0,0.0,0.0,0.0,0.0,0.0,0.0,0.0,0.0,0.0,0.0,0.0,0.0,0.0,0.0,0.0,0.0,0.0,0.0,0.0,0.0,0.0,0.0,0.0,0.0,0.0,0.0,0.0,0.0,0.0,0.0,0.0,0.0,0.0,0.0,0.0,0.0,0.0,0.0,0.0,0.0,0.0,0.0,0.0,0.0,0.0,0.0,0.0,0.0,0.0,0.0,0.0,0.0,0.0,0.0,0.0,0.0,0.0,0.0,0.0,0.0,0.0,0.0,0.0,0.0,0.0,0.0,0.0,0.0,0.0,0.0,0.0,0.0,0.0,0.0,0.0,0.0,0.0,0.0,0.0,0.0,0.0,0.0,0.0,0.0,0.0,0.0,0.0,0.0,0.0,0.0,0.0,0.0,0.0,0.0,0.0,0.0,0.0,0.0,0.0,0.0,0.0,0.0,0.0,0.0,0.0,0.3635,0.376,0.3887,0.4053,0.4271,0.406,0.3901,0.0,0.0,0.0,0.0,0.0,0.0,0.0,0.0,0.0,0.0,0.0,0.0,0.0,0.0,0.0,0.0,0.0,0.0,0.0,0.0,0.0,0.0,0.0,0.0,0.0,0.0,0.0,0.0,0.0,0.0,0.0,0.0,0.0,0.0,0.0,0.0,0.0,0.0,0.0,0.0,0.0,0.0,0.0,0.0,0.0,0.0,0.0,0.0,0.824,0.0,0.0,0.0,0.0,0.0,0.0,0.0,0.0,0.0,0.0,0.0,0.0,0.0,0.0,0.0,0.0,0.0,0.0,0.0,0.0,0.0,0.0,0.0,0.0,0.0,0.0,0.0,0.0,0.0,0.0,0.0,0.0,0.0,0.0,0.0,0.0,0.0,0.0,0.0,0.0,0.0,0.0,0.0,0.0,0.0,0.0,0.0,0.0,0.0,0.0,0.0,0.0,0.0,0.0,0.0,0.0,0.0,0.0,0.0,0.3544,0.3755,0.3839,0.4013,0.4293,0.4169,0.4014,0.0,0.0,0.0,0.0,0.0,0.0,0.0,0.0,0.0,0.0,0.0,0.0,0.0,0.0,0.0,0.0,0.0,0.0,0.0,0.0,0.0,0.0,0.0,0.0,0.0,0.0,0.0,0.0,0.0,0.0,0.0,0.0,0.0,0.0,0.0,0.0,0.0,0.0,0.0,0.0,0.0,0.0,0.0,0.0,0.0,0.0,0.0,0.0,0.0,0.0,0.0,0.0,0.0,0.0,0.0,0.0,0.0,0.0,0.0,0.0,0.0,0.0,0.0,0.0,0.0,0.0,0.0,0.0,0.0,0.0,0.0,0.0,0.0,0.0,0.0,0.0,0.0,0.0,0.0,0.0,0.0,0.0,0.0,0.0,0.0,0.0,0.0,0.0,0.0,0.0,0.0,0.0,0.0,0.0,0.0,0.0,0.0,0.0,0.0,0.0,0.0,0.0,0.0,0.0,0.0,0.0,0.0,0.3212,0.3461,0.3691,0.3748,0.3944,0.4208,0.4172,0.4078,0.3946,0.0,0.0,0.0,0.0,0.0,0.0,0.0,0.0,0.0,0.0,0.0,0.0,0.0,0.0,0.0,0.0,0.0,0.0,0.0,0.0,0.0,0.0,0.0,0.0,0.0,0.0,0.0,0.0,0.0,0.0,0.0,0.0,0.0,0.0,0.0,0.0,0.0,0.0,0.7861,0.8069,0.0,0.0,0.0,0.0,0.0,0.0,0.0,0.0,0.9091,0.0,0.0,0.0,0.0,0.0,0.0,0.0,0.0,0.0,0.0,0.0,0.0,0.0,0.0,0.0,0.0,0.0,0.0,0.0,0.0,0.0,0.0,0.0,0.0,0.0,0.0,0.0,0.0,0.0,0.0,0.0,0.0,0.0,0.0,0.0,0.0,0.0,0.0,0.0,0.0,0.0,0.0,0.0,0.0,0.0,0.0,0.0,0.0,0.0,0.0,0.0,0.0,0.0,0.0,0.0,0.0,0.2828,0.2995,0.3103,0.3211,0.328,0.3518,0.3944,0.3909,0.3962,0.4116,0.0,0.0,0.0,0.0,0.0,0.0,0.0,0.0,0.0,0.0,0.0,0.0,0.0,0.0,0.0,0.0,0.0,0.0,0.0,0.0,0.0,0.0,0.0,0.0,0.0,0.0,0.0,0.0,0.0,0.0,0.0,0.0,0.0,0.0,0.0,0.0,0.0,0.0,0.0,0.8472,0.86,0.0,0.0,0.0,0.0,0.0,0.0,0.0,0.0,0.9056,0.0,0.0,0.0,0.0,0.0,0.0,0.0,0.0,0.0,0.0,0.0,0.0,0.0,0.0,0.0,0.0,0.0,0.0,0.0,0.0,0.0,0.0,0.0,0.0,0.0,0.0,0.0,0.0,0.0,0.0,0.0,0.0,0.0,0.0,0.0,0.0,0.0,0.0,0.0,0.0,0.0,0.0,0.0,0.0,0.0,0.0,0.0,0.0,0.0,0.0,0.0,0.0,0.0,0.0,0.0,0.2694,0.2792,0.2951,0.3153,0.3222,0.3468,0.3883,0.3903,0.3976,0.0,0.0,0.0,0.0,0.0,0.0,0.0,0.0,0.0,0.0,0.0,0.0,0.0,0.0,0.0,0.0,0.0,0.0,0.0,0.0,0.0,0.0,0.0,0.0,0.0,0.0,0.0,0.0,0.0,0.0,0.0,0.0,0.0,0.0,0.0,0.0,0.0,0.0,0.0,0.0,0.8984,0.9132,0.9019,0.0,0.0,0.0,0.0,0.0,0.0,0.9568,0.9502,0.0,0.0,0.0,0.0,0.0,0.0,0.0,0.0,0.0,0.0,0.0,0.0,0.0,0.0,0.0,0.0,0.0,0.0,0.0,0.0,0.0,0.0,0.0,0.0,0.0,0.0,0.0,0.0,0.0,0.0,0.0,0.0,0.0,0.0,0.0,0.0,0.0,0.0,0.0,0.0,0.0,0.0,0.0,0.0,0.0,0.0,0.0,0.0,0.0,0.0,0.0,0.0,0.0,0.0,0.0,0.2614,0.2713,0.2889,0.3154,0.3221,0.3441,0.3795,0.3904,0.3942,0.0,0.0,0.0,0.0,0.0,0.0,0.0,0.0,0.0,0.0,0.0,0.0,0.0,0.0,0.0,0.0,0.0,0.0,0.0,0.0,0.0,0.0,0.0,0.0,0.0,0.0,0.0,0.0,0.0,0.0,0.0,0.0,0.0,0.0,0.0,0.0,0.0,0.0,0.0,0.0,0.0,0.954,0.9396,0.9569,0.0,0.0,0.0,0.0,0.9719,0.9842,0.0,0.0,0.0,0.0,0.0,0.0,0.0,0.0,0.0,0.0,0.0,0.0,0.0,0.0,0.0,0.0,0.0,0.0,0.0,0.0,0.0,0.0,0.0,0.0,0.0,0.0,0.0,0.0,0.0,0.0,0.0,0.0,0.0,0.0,0.0,0.0,0.0,0.0,0.0,0.0,0.0,0.0,0.0,0.0,0.0,0.0,0.0,0.0,0.0,0.0,0.0,0.0,0.0,0.0,0.0,0.0,0.2679,0.2794,0.2929,0.3016,0.3077,0.3226,0.3455,0.3637,0.3793,0.0,0.0,0.0,0.0,0.0,0.0,0.0,0.0,0.0,0.0,0.0,0.0,0.0,0.0,0.0,0.0,0.0,0.0,0.0,0.0,0.0,0.0,0.0,0.0,0.0,0.0,0.0,0.0,0.0,0.0,0.0,0.0,0.0,0.0,0.0,0.0,0.0,0.0,0.0,0.0,0.0,0.9571,0.9569,0.9924,1.0064,0.0,0.0,1.0006,1.019,0.9913,0.0,0.0,0.0,0.0,0.0,0.0,0.0,0.0,0.0,0.0,0.0,0.0,0.0,0.0,0.0,0.0,0.0,0.0,0.0,0.0,0.0,0.0,0.0,0.0,0.0,0.0,0.0,0.0,0.0,0.0,0.0,0.0,0.0,0.0,0.0,0.0,0.0,0.0,0.0,0.0,0.0,0.0,0.0,0.0,0.0,0.0,0.0,0.0,0.0,0.0,0.0,0.0,0.0,0.0,0.0,0.2506,0.276,0.2852,0.2964,0.3055,0.3093,0.3205,0.3385,0.3498,0.362,0.0,0.0,0.0,0.0,0.0,0.0,0.0,0.0,0.0,0.0,0.0,0.0,0.0,0.0,0.0,0.0,0.0,0.0,0.0,0.0,0.0,0.0,0.0,0.0,0.0,0.0,0.0,0.0,0.0,0.0,0.0,0.0,0.0,0.0,0.0,0.0,0.0,0.0,0.0,0.0,0.0,0.0,1.0003,1.0258,0.0,0.0,0.0,1.019,1.028,0.0,0.0,0.0,0.0,0.0,0.0,0.0,0.0,0.0,0.0,0.0,0.0,0.0,0.0,0.0,0.0,0.0,0.0,0.0,0.0,0.0,0.0,0.0,0.0,0.0,0.0,0.0,0.0,0.0,0.0,0.0,0.0,0.0,0.0,0.0,0.0,0.0,0.0,0.0,0.0,0.0,0.0,0.0,0.0,0.0,0.0,0.0,0.0,0.0,0.0,0.0,0.0,0.0,0.0,0.0,0.0,0.0,0.2778,0.2894,0.2992,0.3093,0.3106,0.3191,0.3338,0.3378,0.0,0.0,0.0,0.0,0.0,0.0,0.0,0.0,0.0,0.0,0.0,0.0,0.0,0.0,0.0,0.0,0.0,0.0,0.0,0.0,0.0,0.0,0.0,0.0,0.0,0.0,0.0,0.4735,0.0,0.0,0.0,0.0,0.0,0.0,0.0,0.0,0.0,0.0,0.0,0.0,0.0,0.0,1.0233,1.029,1.0513,1.0602,0.0,0.0,1.0389,1.0441,1.0531,1.055,0.0,0.0,0.0,0.0,0.0,0.0,0.0,0.0,0.0,0.0,0.0,0.0,0.0,0.0,0.0,0.0,0.0,0.0,0.0,0.0,0.0,0.0,0.0,0.0,0.0,0.0,0.0,0.0,0.0,0.0,0.0,0.0,0.0,0.0,0.0,0.0,0.0,0.0,0.0,0.0,0.0,0.0,0.0,0.0,0.0,0.0,0.0,0.0,0.0,0.0,0.0,0.0,0.0,0.0,0.0,0.2802,0.2974,0.3092,0.3108,0.3169,0.3197,0.3217,0.3327,0.3371,0.0,0.0,0.0,0.0,0.0,0.0,0.0,0.0,0.0,0.0,0.0,0.0,0.0,0.0,0.0,0.0,0.0,0.0,0.0,0.0,0.0,0.0,0.0,0.0,0.0,0.0,0.0,0.0,0.0,0.0,0.0,0.0,0.0,0.0,0.0,0.0,0.0,0.0,0.0,0.0,0.0,1.0072,1.0293,1.064,1.0797,0.0,0.0,1.0645,1.0825,1.0716,1.0593,1.0579,0.0,0.0,0.0,0.0,0.0,0.0,0.0,0.0,0.0,0.0,0.0,0.0,0.0,0.0,0.0,0.0,0.0,0.0,0.0,0.0,0.0,0.0,0.0,0.0,0.0,0.0,0.0,0.0,0.0,0.0,0.0,0.0,0.0,0.0,0.0,0.0,0.0,0.0,0.0,0.0,0.0,0.0,0.0,0.0,0.0,0.0,0.0,0.0,0.0,0.0,0.0,0.0,0.0,0.2619,0.2859,0.3025,0.3121,0.3167,0.3168,0.3205,0.3205,0.3199,0.3249,0.0,0.0,0.0,0.0,0.0,0.0,0.0,0.0,0.0,0.0,0.0,0.0,0.0,0.0,0.0,0.0,0.0,0.0,0.0,0.0,0.0,0.0,0.0,0.0,0.0,0.0,0.0,0.0,0.6513,0.6968,0.6999,0.0,0.0,0.0,0.0,0.0,0.0,0.0,0.0,0.0,0.0,1.0295,1.0608,1.0797,0.0,0.0,1.0773,1.0825,1.0882,1.0953,1.0915,1.0816,1.0484,0.0,0.0,0.0,0.0,0.0,0.0,0.0,0.0,0.0,0.0,0.0,0.0,0.0,0.0,0.0,0.0,0.0,0.0,0.0,0.0,0.0,0.0,0.0,0.0,0.0,0.0,0.0,0.0,0.0,0.0,0.0,0.0,0.0,0.0,0.0,0.0,0.0,0.0,0.0,0.0,0.0,0.0,0.0,0.0,0.0,0.0,0.0,0.0,0.0,0.0,0.0,0.0,0.2631,0.2893,0.3036,0.3132,0.3204,0.3205,0.3205,0.3204,0.3146,0.3148,0.0,0.0,0.0,0.0,0.0,0.0,0.0,0.0,0.0,0.0,0.0,0.0,0.0,0.0,0.0,0.0,0.0,0.0,0.0,0.0,0.0,0.0,0.0,0.0,0.0,0.0,0.0,0.0,0.6989,0.7307,0.7261,0.0,0.0,0.0,0.0,0.0,0.0,0.0,0.0,0.0,0.0,1.0451,1.0834,1.0948,1.0986,1.0986,1.0986,1.0991,1.0905,1.1014,1.1062,1.0853,0.0,0.0,0.0,0.0,0.0,0.0,0.0,0.0,0.0,0.0,0.0,0.0,0.0,0.0,0.0,0.0,0.0,0.0,0.0,0.0,0.0,0.0,0.0,0.0,0.0,0.0,0.0,0.0,0.0,0.0,-0.1488,0.0,0.0,0.0,0.0,0.0,0.0,0.0,0.0,0.0,0.0,0.0,0.0,0.0,0.0,0.0,0.0,0.0,0.0,0.0,0.0,0.0,0.0,0.2631,0.2894,0.3036,0.3132,0.3201,0.3205,0.3205,0.3204,0.3147,0.3113,0.3108,0.0,0.0,0.0,0.0,0.0,0.0,0.0,0.0,0.0,0.0,0.0,0.0,0.0,0.0,0.0,0.0,0.0,0.0,0.0,0.0,0.0,0.0,0.0,0.0,0.0,0.0,0.7232,0.7335,0.7261,0.0,0.0,0.0,0.0,0.0,0.0,0.0,0.0,0.0,0.0,1.0157,1.0451,1.0844,1.1061,1.1179,1.1179,1.1209,1.1118,1.0924,1.0901,1.0853,0.0,0.0,0.0,0.0,0.0,0.0,0.0,0.0,0.0,0.0,0.0,0.0,0.0,0.0,0.0,0.0,0.0,0.0,0.0,0.0,0.0,0.0,0.0,0.0,0.0,0.0,0.0,-0.2185,-0.204,0.0,0.0,0.0,0.0,0.0,0.0,0.0,0.0,0.0,0.0,0.0,-0.2013,-0.1959,0.0,0.0,0.0,0.0,0.0,0.0,0.0,0.0,0.0,0.0,0.0,0.0,0.2629,0.2889,0.3036,0.3132,0.3201,0.3205,0.3205,0.3205,0.3186,0.3155,0.3116,0.0,0.0,0.0,0.0,0.0,0.0,0.0,0.0,0.0,0.0,0.0,0.0,0.0,0.0,0.0,0.0,0.0,0.0,0.0,0.0,0.0,0.0,0.0,0.0,0.0,0.7459,0.0,0.0,0.0,0.0,0.0,0.0,0.0,0.0,0.0,0.0,0.0,0.9374,1.0096,1.0388,1.065,1.1062,1.1156,1.1194,0.0,0.0,0.0,0.0,0.0,0.0,0.0,0.0,0.0,0.0,0.0,0.0,0.0,0.0,1.0239,0.9819,0.976,0.976,0.9764,0.0,0.0,0.0,0.0,0.0,0.0,0.0,0.0,0.0,0.0,0.0,0.0,0.0,0.0,-0.2527,0.0,-0.2296,0.0,0.0,0.0,0.0,0.0,0.0,0.0,0.0,-0.2143,-0.2237,-0.233,-0.2227,-0.2193,0.0,-0.1762,-0.1319,0.0,0.0,0.0,0.0,0.0,0.0,0.0,0.0,0.2683,0.292,0.3044,0.3128,0.32,0.3205,0.3205,0.3205,0.3205,0.3152,0.3117,0.3029,0.2939,0.0,0.0,0.0,0.0,0.0,0.0,0.0,0.0,0.0,0.0,0.0,0.0,0.0,0.0,0.0,0.0,0.0,0.0,0.0,0.0,0.0,0.0,0.0,0.792,0.0,0.0,0.0,0.0,0.0,0.0,0.0,0.0,0.0,0.8996,0.9327,0.9748,1.0328,1.0513,1.0726,1.1042,0.0,0.0,0.0,0.0,0.0,0.0,0.0,1.0896,1.0896,1.0953,1.1023,1.1099,1.1052,1.1028,1.1099,0.0,0.0,1.0513,1.0404,1.0408,1.0408,1.0431,1.0431,1.0431,1.0517,1.064,0.0,0.0,0.0,0.0,0.0,0.0,0.0,0.0,-0.3108,-0.31,0.0,-0.2863,0.0,0.0,0.0,0.0,0.0,-0.2275,0.0,0.0,-0.2526,-0.2565,-0.259,-0.2519,-0.2523,-0.2523,-0.17,-0.1055,-0.0603,-0.0392,0.0,0.0,0.0,0.0,0.0,0.0,0.2786,0.3008,0.3086,0.3151,0.3211,0.3213,0.3213,0.3215,0.3213,0.3161,0.3103,0.3095,0.3039,0.2919,0.2903,0.0,0.0,0.0,0.0,0.0,0.0,0.0,0.0,0.0,0.0,0.0,0.0,0.0,0.0,0.0,0.0,0.0,0.0,0.0,0.0,0.7916,0.0,0.0,0.0,0.0,0.0,0.0,0.0,0.0,0.0,0.0,0.9562,0.9859,1.0161,1.055,0.0,0.0,0.0,0.0,1.0976,1.1165,1.1194,1.1123,1.0938,1.0915,1.0924,1.0924,0.0,0.0,1.1466,1.1655,1.1711,1.1546,1.1659,1.1674,1.1307,1.1203,1.1194,1.1194,1.1189,1.1212,1.1208,1.1179,1.1255,-0.3516,0.0,0.0,0.0,0.0,-0.3255,-0.3347,-0.345,-0.3515,-0.3525,-0.3452,-0.3363,0.0,0.0,0.0,0.0,0.0,0.0,-0.322,-0.3381,-0.3269,-0.3109,-0.2941,-0.2482,-0.2201,-0.2075,-0.1443,-0.0984,-0.0655,-0.0092,0.0591,0.139,0.0,0.0,0.0,0.0,0.291,0.3059,0.3183,0.3274,0.336,0.3335,0.3334,0.3335,0.3334,0.3327,0.3308,0.3225,0.3132,0.3129,0.3026,0.0,0.0,0.0,0.0,0.0,0.0,0.0,0.0,0.0,0.0,0.0,0.0,0.0,0.0,0.0,0.0,0.0,0.0,0.0,0.7752,0.8087,0.8002,0.0,0.0,0.0,0.0,0.0,0.0,0.0,0.0,0.0,1.0253,1.0252,1.0356,0.0,0.0,1.0901,1.108,1.1109,1.1132,1.1213,1.1194,0.0,0.0,1.1241,1.1315,1.134,1.1485,1.1631,1.1718,1.1758,1.1824,1.1909,1.198,1.1996,1.2046,1.1836,1.1626,1.1638,1.1638,1.1638,1.1612,1.1638,1.1631,-0.4313,-0.4063,-0.3587,-0.3476,-0.3581,-0.3698,-0.3789,-0.3882,-0.4006,-0.3998,-0.3897,-0.3791,-0.3689,-0.3598,-0.3349,0.0,0.0,0.0,-0.369,-0.3836,-0.3598,-0.3375,-0.3129,-0.2453,-0.1942,-0.1597,-0.0979,-0.0449,-0.0075,0.0599,0.1214,0.1791,0.0,0.0,0.2496,0.2713,0.2877,0.2975,0.3219,0.335,0.3385,0.3386,0.3386,0.3386,0.3386,0.3386,0.3385,0.3316,0.3266,0.324,0.3139,0.3052,0.0,0.0,0.0,0.0,0.0,0.0,0.0,0.0,0.0,0.0,0.0,0.2934,0.0,0.0,0.0,0.0,0.5813,0.6855,0.7622,0.7755,0.0,0.0,0.0,0.0,0.0,0.0,0.0,0.8845,0.9529,1.0199,1.0759,1.0816,1.0825,1.0886,1.0962,1.1061,1.1179,0.0,1.135,1.143,1.1419,1.1444,1.1444,1.1548,1.1641,1.1725,1.1834,1.1952,1.2027,1.2037,1.2057,1.217,1.2235,1.2268,1.239,1.2202,1.2037,1.2037,1.2041,1.2037,1.2041,1.2037,1.2041,-0.5007,-0.4947,-0.4138,-0.3798,-0.3819,-0.4073,-0.4177,-0.4212,-0.45,-0.4482,-0.426,-0.42,-0.4026,-0.3862,-0.3814,0.0,-0.3876,-0.3876,-0.3932,-0.397,-0.3728,-0.3497,-0.3274,-0.2416,-0.1703,-0.1144,-0.0346,0.0346,0.0904,0.141,0.1769,0.1945,0.1841,0.1937,0.2219,0.2511,0.2706,0.2787,0.3176,0.3396,0.34,0.3427,0.3427,0.3401,0.3394,0.3393,0.342,0.3384,0.3379,0.3297,0.3238,0.3177,0.3109,0.0,0.0,0.0,0.0,0.0,0.0,0.0,0.0,0.0,0.0,0.0,0.0,0.0,0.0,0.0,0.6236,0.0,0.7039,0.7034,0.0,0.0,0.0,0.744,0.7827,0.8119,0.8635,0.9495,0.0,0.0,1.1071,1.1345,1.1322,1.0951,1.1108,1.1246,1.1246,1.1395,1.1554,1.1719,1.1775,1.1784,1.1744,1.1803,1.1919,1.2088,1.2109,1.2202,1.2348,1.2358,1.2377,1.2368,1.2382,1.2382,1.2382,1.2368,1.2382,1.2363,1.2368,1.2372,1.2354,1.2349,1.2344,-0.5077,-0.5065,-0.4858,-0.4725,-0.4691,-0.4759,-0.4805,-0.4866,-0.4898,-0.4875,-0.4819,-0.468,-0.4544,-0.4349,-0.45,-0.4487,-0.4421,-0.462,-0.4753,-0.48,-0.4542,-0.4065,-0.3331,-0.2539,-0.1591,-0.0585,0.0027,0.0507,0.0907,0.1225,0.1434,0.148,0.1643,0.1934,0.2351,0.242,0.2547,0.2656,0.2985,0.331,0.3544,0.3545,0.3545,0.3573,0.35,0.3477,0.3474,0.3391,0.3311,0.3294,0.3238,0.3171,0.3121,0.3028,0.0,0.0,0.0,0.0,0.0,0.0,0.0,0.0,0.0,0.2686,0.2884,0.0,0.4063,0.0,0.5487,0.6241,0.6391,0.641,0.0,0.0,0.6863,0.7257,0.7719,0.8475,0.9171,0.9682,1.0144,1.0563,1.0924,1.102,1.1016,1.0922,1.1332,1.1666,1.1645,1.1504,1.1452,1.1516,1.1623,1.172,1.1729,1.2035,1.2272,1.2334,1.2338,1.2357,1.2377,1.2382,1.2382,1.2382,1.2382,1.2382,1.2382,1.2382,1.2382,1.2382,1.2382,1.2382,1.2382,1.2382,1.2382,-0.523,-0.523,-0.523,-0.5227,-0.5176,-0.5069,-0.5063,-0.5102,-0.5053,-0.5032,-0.5028,-0.4979,-0.488,-0.4779,-0.4882,-0.4884,-0.4825,-0.498,-0.5059,-0.5079,-0.4812,-0.4246,-0.3419,-0.2586,-0.1514,-0.0218,0.0354,0.0873,0.1282,0.1445,0.1526,0.1526,0.1662,0.187,0.2094,0.2205,0.2295,0.2369,0.2701,0.2978,0.3194,0.3313,0.3382,0.3382,0.3436,0.3458,0.3458,0.3395,0.3361,0.3361,0.3278,0.3229,0.3196,0.3081,0.2993,0.0,0.0,0.0,0.0,0.0,0.0,0.0,0.0,0.0,0.0,0.0,0.3934,0.4264,0.4992,0.5516,0.5664,0.5754,0.5917,0.6275,0.6832,0.7385,0.7949,0.8845,0.9544,0.9891,1.0419,1.0824,1.1028,1.1168,1.1217,1.1217,1.1487,1.1693,1.1598,1.1534,1.1487,1.1496,1.1581,1.1653,1.1657,1.1959,1.2219,1.2246,1.2305,1.2382,1.2382,1.2382,1.2382,1.2382,1.2382,1.2382,1.2382,1.2382,1.2382,1.2382,1.2382,1.2382,1.2382,1.2382,1.2382,-0.5435,-0.5409,-0.5409,-0.5409,-0.5369,-0.521,-0.5143,-0.5143,-0.513,-0.5098,-0.5098,-0.5126,-0.5132,-0.5143,-0.5143,-0.5143,-0.5143,-0.5143,-0.5143,-0.5116,-0.4845,-0.4292,-0.348,-0.2632,-0.1437,0.0,0.0617,0.1206,0.1795,0.1795,0.1795,0.1794,0.1792,0.1763,0.171,0.1943,0.2055,0.2108,0.2399,0.2598,0.2691,0.2899,0.3037,0.3035,0.3195,0.3295,0.3293,0.328,0.3275,0.3254,0.3226,0.3172,0.3202,0.3076,0.2968,0.0,0.2894,0.0,0.0,0.0,0.0,0.0,0.0,0.0,0.0,0.324,0.3702,0.4306,0.4637,0.484,0.4915,0.5037,0.5417,0.6085,0.6803,0.7518,0.8226,0.9068,0.9726,1.0019,1.0531,1.0929,1.1144,1.139,1.1486,1.141,1.1424,1.1399,1.1294,1.1396,1.1483,1.1541,1.1541,1.1515,1.1605,1.181,1.1946,1.1973,1.2114,1.23,1.2273,1.23,1.2332,1.2332,1.2359,1.2382,1.2382,1.2382,1.2382,1.2382,1.2382,1.2382,1.2382,1.2382,1.2382,-0.5601,-0.5409,-0.5409,-0.5409,-0.5405,-0.5343,-0.5358,-0.5352,-0.5224,-0.5191,-0.5191,-0.5191,-0.5259,-0.5356,-0.5328,-0.5331,-0.5328,-0.5358,-0.5331,-0.5331,-0.5022,-0.4391,-0.3542,-0.2649,-0.1424,-0.0028,0.0617,0.1206,0.1795,0.1795,0.1795,0.1794,0.1792,0.1801,0.1767,0.0,0.0,0.0,0.2249,0.2433,0.2691,0.2705,0.2708,0.2679,0.2678,0.0,0.2656,0.2609,0.2586,0.2597,0.2579,0.0,0.0,0.0,0.0,0.0,0.0,0.0,0.0,0.0,0.0,0.0,0.3178,0.3203,0.317,0.3501,0.3871,0.419,0.4283,0.4323,0.4337,0.438,0.4668,0.5339,0.5977,0.6735,0.7649,0.8541,0.9252,0.9805,1.0186,1.0534,1.0776,1.0863,1.0884,1.0911,1.0884,1.0844,1.0838,1.1046,1.1181,1.1185,1.1185,1.1291,1.1568,1.1623,1.1678,1.1678,1.1705,1.1759,1.1787,1.1951,1.2082,1.2082,1.2246,1.2382,1.2382,1.2382,1.2382,1.2382,1.2382,1.2382,1.2382,1.2382,1.2382,-0.5965,0.0,-0.5828,-0.5828,0.0,-0.5659,-0.5601,-0.5571,-0.5388,-0.5312,-0.5285,-0.5312,-0.5337,-0.5409,-0.5409,-0.5409,-0.5409,-0.5409,-0.5409,-0.5382,-0.5044,-0.4454,-0.3587,-0.2632,-0.1428,0.0,0.0589,0.1206,0.1795,0.1795,0.1795,0.1795,0.1807,0.1792,0.1804,0.1762,0.1834,0.1997,0.2004,0.2086,0.2241,0.2325,0.2375,0.2347,0.0,0.0,0.0,0.0,0.0,0.0,0.0,0.0,0.0,0.0,0.0,0.2511,0.2663,0.2832,0.3006,0.3109,0.3224,0.3313,0.3348,0.3383,0.3298,0.348,0.3663,0.3825,0.3856,0.3871,0.3903,0.4044,0.4303,0.4832,0.5526,0.6265,0.7091,0.8072,0.893,0.9541,1.0005,1.0421,1.0665,1.0719,1.0719,1.0719,1.0719,1.0719,1.0719,1.0829,1.0911,1.0911,1.0907,1.0962,1.1131,1.1295,1.135,1.1377,1.1486,1.1596,1.1596,1.1705,1.1841,1.1978,1.2114,1.2223,1.2359,1.2382,1.2382,1.2382,1.2382,1.2382,1.2382,1.2382,1.2382,-0.633,-0.63,-0.6272,-0.6272,-0.6272,-0.5991,-0.5877,-0.5852,0.0,0.0,0.0,-0.5409,-0.5409,-0.5409,-0.5409,-0.5409,-0.5409,-0.5409,-0.5409,-0.5382,-0.5015,-0.4398,-0.3559,-0.2576,-0.1373,0.0,0.0617,0.1206,0.1795,0.1795,0.1795,0.1795,0.1795,0.181,0.1814,0.1813,0.1813,0.1812,0.1812,0.1797,0.1792,0.1958,0.2033,0.2061,0.2177,0.2266,0.2267,0.2286,0.2286,0.2267,0.2286,0.2301,0.2367,0.2345,0.2371,0.2371,0.2605,0.2818,0.2907,0.3144,0.3326,0.3439,0.3485,0.3488,0.3432,0.3436,0.3463,0.3508,0.3512,0.3533,0.3611,0.3785,0.4063,0.4397,0.515,0.5905,0.6573,0.7629,0.8598,0.9292,0.9871,1.0339,1.0665,1.0719,1.0719,1.0719,1.0719,1.0719,1.0719,1.0719,1.0719,1.0719,1.0747,1.0719,1.0747,1.0911,1.1017,1.1048,1.124,1.1432,1.1459,1.1486,1.1596,1.1755,1.1869,1.2032,1.225,1.23,1.2355,1.2382,1.2382,1.2382,1.2382,1.2382,1.2382,-0.6523,-0.6272,-0.6272,-0.6272,-0.6272,-0.6244,-0.6244,-0.6191,-0.5661,-0.5409,-0.5409,-0.5409,-0.5409,-0.5409,-0.5409,-0.5409,-0.5409,-0.5409,-0.5409,-0.5382,-0.4819,-0.4201,-0.3559,-0.2411,-0.1206,-0.0028,0.0617,0.1206,0.1739,0.1795,0.1795,0.1795,0.1795,0.1792,0.1789,0.1789,0.1789,0.1789,0.1789,0.179,0.1794,0.1816,0.1825,0.1823,0.1816,0.1797,0.1797,0.1824,0.1797,0.1795,0.1799,0.1799,0.1802,0.1831,0.1911,0.2122,0.2176,0.2458,0.3011,0.3124,0.3254,0.3528,0.3597,0.3549,0.3493,0.3533,0.3565,0.3603,0.3572,0.3576,0.3587,0.3643,0.3785,0.4063,0.4651,0.5373,0.6237,0.7185,0.8186,0.9241,0.9678,1.0115,1.061,1.0719,1.0719,1.0719,1.0719,1.0719,1.0719,1.0719,1.0719,1.0719,1.0719,1.0719,1.0719,1.0719,1.0802,1.0747,1.0829,1.0907,1.0911,1.1048,1.1185,1.1236,1.1459,1.1732,1.2005,1.206,1.2141,1.2278,1.2332,1.2359,1.2332,1.2364,1.2396,-0.6937,-0.6801,-0.6771,-0.6798,-0.6771,-0.6576,-0.6439,-0.6274,-0.5996,-0.5884,-0.5856,-0.5714,-0.5601,-0.5601,-0.5463,-0.5409,-0.5409,-0.5409,-0.5409,-0.5354,-0.4761,-0.4173,-0.3531,-0.2523,-0.1402,-0.0224,0.0364,0.0925,0.1486,0.1711,0.1795,0.1795,0.1795,0.1795,0.1795,0.1795,0.1795,0.1795,0.1795,0.1795,0.1795,0.1793,0.1804,0.1804,0.172,0.1704,0.1704,0.1718,0.1718,0.1704,0.1718,0.1698,0.1754,0.1756,0.1818,0.1917,0.2055,0.2282,0.2578,0.2939,0.3169,0.3333,0.3503,0.3604,0.3575,0.3599,0.3587,0.3587,0.3587,0.3587,0.3587,0.3587,0.3643,0.3757,0.4314,0.4983,0.5761,0.6765,0.7851,0.8927,0.9537,1.0036,1.0637,1.0719,1.0719,1.0719,1.0719,1.0719,1.0719,1.0719,1.0719,1.0719,1.0719,1.0719,1.0719,1.0719,1.0719,1.0719,1.0719,1.0719,1.0719,1.0829,1.0939,1.1076,1.124,1.1427,1.1732,1.1782,1.1841,1.1923,1.1978,1.1978,1.1982,1.2142,1.239,-0.7294,-0.7264,-0.7264,-0.7248,-0.7195,-0.6946,-0.6713,-0.6495,-0.6497,-0.6495,-0.6439,-0.6102,-0.5933,-0.5877,-0.5687,-0.5605,-0.5605,-0.5519,-0.5493,-0.5435,-0.4873,-0.4258,-0.3617,-0.2747,-0.1683,-0.0561,0.0112,0.0701,0.1262,0.1627,0.1795,0.1795,0.1795,0.1795,0.1795,0.1795,0.1795,0.1795,0.1795,0.1795,0.1794,0.1799,0.1787,0.1786,0.1765,0.1725,0.1725,0.1725,0.1725,0.1725,0.1725,0.1735,0.1813,0.1787,0.1799,0.182,0.1991,0.2132,0.2216,0.2691,0.2998,0.2998,0.3253,0.3419,0.3475,0.3475,0.3531,0.3587,0.3587,0.3587,0.3587,0.3587,0.3615,0.3701,0.4229,0.4925,0.5566,0.6596,0.7737,0.8816,0.9482,1.0036,1.0527,1.0719,1.0719,1.0719,1.0719,1.0719,1.0719,1.0719,1.0719,1.0719,1.0719,1.0719,1.0719,1.0719,1.0719,1.0719,1.0719,1.0719,1.0719,1.0719,1.0774,1.0966,1.0994,1.1154,1.1404,1.1486,1.1541,1.1623,1.1678,1.1664,1.1734,1.1943,1.2334,-0.7494,-0.7486,-0.7446,-0.7392,-0.7294,-0.7263,-0.7176,-0.7115,-0.7129,-0.7129,-0.7029,-0.6523,-0.6277,-0.6244,-0.6219,-0.6191,-0.6163,-0.5907,-0.5768,-0.5712,-0.5152,-0.4538,-0.3952,-0.3082,-0.2017,-0.0869,-0.0028,0.0673,0.1262,0.1627,0.1795,0.1795,0.1795,0.1795,0.1795,0.1795,0.1795,0.1795,0.1795,0.1795,0.1795,0.1792,0.1791,0.1791,0.1788,0.1787,0.1783,0.1787,0.1786,0.1786,0.1785,0.1787,0.179,0.1791,0.1791,0.1795,0.1823,0.1935,0.2188,0.2525,0.275,0.2721,0.2776,0.2917,0.3138,0.3138,0.3278,0.3506,0.3589,0.3587,0.3587,0.359,0.3706,0.3961,0.4496,0.5206,0.6082,0.7018,0.8023,0.921,0.9664,1.0036,1.0622,1.0737,1.0748,1.0749,1.0757,1.0757,1.0753,1.0776,1.076,1.074,1.0724,1.0724,1.0724,1.0719,1.0719,1.0719,1.0719,1.0719,1.0719,1.0719,1.0747,1.0774,1.0774,1.088,1.1044,1.1158,1.1263,1.1413,1.1508,1.1602,1.1723,1.182,1.2108,-0.7584,-0.7519,-0.7519,-0.7462,-0.7419,-0.7416,-0.7387,-0.7372,-0.7372,-0.7372,-0.734,-0.7114,-0.6842,-0.6525,-0.6383,-0.6272,-0.6272,-0.6161,-0.6102,-0.6047,-0.5629,-0.5096,-0.4482,-0.3642,-0.2606,-0.143,-0.0504,0.0308,0.1037,0.157,0.1795,0.1795,0.1795,0.1795,0.1795,0.1795,0.1795,0.1795,0.1795,0.1795,0.1795,0.1795,0.1795,0.1795,0.1795,0.1795,0.1795,0.1795,0.1795,0.1795,0.1795,0.1795,0.1795,0.1795,0.1795,0.1795,0.1795,0.1851,0.1935,0.2244,0.2412,0.2384,0.2581,0.2748,0.2861,0.2861,0.3011,0.3318,0.3495,0.3587,0.3593,0.362,0.3784,0.4131,0.4702,0.5444,0.6365,0.7449,0.854,0.9539,1.0103,1.052,1.0892,1.1009,1.1005,1.1009,1.0972,1.0988,1.1001,1.1005,1.096,1.0911,1.0858,1.0829,1.0752,1.0719,1.0719,1.0719,1.0719,1.0719,1.0719,1.0719,1.0719,1.0719,1.0732,1.0732,1.0825,1.0857,1.0939,1.1133,1.123,1.1306,1.1518,1.1762,1.2088,-0.7695,-0.7619,-0.7614,-0.7568,-0.7541,-0.7541,-0.7548,-0.7521,-0.7519,-0.7519,-0.7519,-0.7519,-0.7279,-0.6907,-0.6725,-0.6642,-0.6614,-0.6555,-0.6527,-0.6499,-0.6158,-0.5703,-0.5083,-0.4288,-0.3266,-0.2103,-0.1052,-0.0057,0.0853,0.1421,0.1706,0.1706,0.1763,0.1848,0.1819,0.1819,0.1848,0.1821,0.182,0.1816,0.1809,0.1808,0.1804,0.1796,0.1795,0.1795,0.1795,0.1795,0.1795,0.1795,0.1795,0.1795,0.1795,0.1795,0.1795,0.1795,0.1795,0.1795,0.1795,0.1991,0.2103,0.2105,0.2337,0.2514,0.2573,0.2582,0.2745,0.3056,0.3261,0.3413,0.3642,0.3706,0.3904,0.4287,0.4997,0.5814,0.6781,0.7982,0.9074,0.9899,1.0444,1.0907,1.1134,1.1179,1.1167,1.1167,1.1179,1.1191,1.1191,1.1179,1.1167,1.1057,1.1041,1.0968,1.0776,1.0719,1.0719,1.0719,1.0719,1.0719,1.0719,1.0719,1.0719,1.0724,1.0724,1.0777,1.0873,1.0829,1.083,1.0863,1.1,1.1179,1.1408,1.1674,1.1951,-0.7889,-0.7881,-0.7883,-0.7782,-0.7695,-0.7693,-0.763,-0.7543,-0.7532,-0.7498,-0.7538,-0.7532,-0.7487,-0.7447,-0.7386,-0.7441,-0.7407,-0.7132,-0.704,-0.7011,-0.6727,-0.6242,-0.5662,-0.4962,-0.4017,-0.2865,-0.1637,-0.0381,0.0792,0.1233,0.1412,0.1409,0.17,0.1879,0.1847,0.1875,0.188,0.1875,0.1904,0.1866,0.1813,0.181,0.1797,0.1803,0.1795,0.1795,0.1795,0.1795,0.1795,0.1795,0.1795,0.1795,0.1795,0.1795,0.1795,0.1795,0.1795,0.1795,0.1796,0.1826,0.1826,0.183,0.1882,0.1982,0.2272,0.2325,0.2461,0.2793,0.2846,0.3079,0.3614,0.3703,0.4029,0.4615,0.5469,0.6388,0.7357,0.852,0.953,1.0182,1.0639,1.0999,1.1195,1.1191,1.1232,1.1236,1.1244,1.1228,1.1252,1.1232,1.1248,1.1199,1.1163,1.1094,1.0813,1.0773,1.078,1.0793,1.0837,1.0764,1.0728,1.0719,1.0736,1.0776,1.0871,1.0952,1.1013,1.1041,1.111,1.1151,1.1163,1.1306,1.1442,1.1464,1.1735,-0.7903,-0.7903,-0.7903,-0.7875,-0.7812,-0.7812,-0.7815,-0.7747,-0.7774,-0.7774,-0.7744,-0.7744,-0.7744,-0.7744,-0.7744,-0.7663,-0.7498,-0.7399,-0.7341,-0.7341,-0.7224,-0.6961,-0.655,-0.5731,-0.4793,-0.3735,-0.2501,-0.1118,0.0236,0.0824,0.106,0.1119,0.1414,0.1561,0.162,0.1797,0.1885,0.1885,0.1885,0.188,0.1871,0.187,0.1864,0.1852,0.1815,0.1795,0.1795,0.1795,0.1795,0.1795,0.1795,0.1795,0.1795,0.1795,0.1795,0.1795,0.1795,0.1803,0.1792,0.1796,0.1804,0.1851,0.1862,0.1899,0.2017,0.2056,0.2188,0.2473,0.2539,0.2788,0.3172,0.3428,0.3856,0.4694,0.5508,0.6466,0.7651,0.8881,0.9898,1.0528,1.1098,1.1488,1.1523,1.1573,1.1577,1.1577,1.1573,1.1561,1.1573,1.1573,1.1524,1.1431,1.1395,1.1313,1.1082,1.1037,1.1037,1.1037,1.1041,1.1037,1.1017,1.0988,1.1005,1.0988,1.1082,1.1143,1.1179,1.1204,1.1289,1.1289,1.1313,1.1419,1.1484,1.1569,1.1722,-0.7903,-0.7903,-0.7903,-0.7903,-0.7903,-0.7903,-0.7903,-0.7903,-0.7903,-0.7903,-0.7903,-0.7903,-0.7903,-0.7903,-0.7903,-0.7823,-0.7641,-0.7635,-0.7633,-0.7633,-0.7633,-0.7485,-0.7094,-0.6323,-0.5431,-0.436,-0.2836,-0.1405,-0.0209,0.0479,0.0778,0.0778,0.1107,0.1256,0.1316,0.1616,0.1765,0.1795,0.1885,0.1912,0.1902,0.1901,0.1895,0.1882,0.1845,0.1853,0.1824,0.1853,0.1825,0.1824,0.1824,0.1824,0.1825,0.1825,0.1825,0.1824,0.1825,0.1832,0.1822,0.1826,0.1834,0.1884,0.1895,0.19,0.19,0.1909,0.2045,0.2212,0.2278,0.2443,0.2793,0.3085,0.3644,0.4589,0.5477,0.6552,0.778,0.9147,1.0236,1.0989,1.1503,1.176,1.1806,1.1798,1.179,1.1806,1.1806,1.1806,1.1806,1.1802,1.1774,1.1618,1.1589,1.1541,1.1431,1.1399,1.1248,1.122,1.1204,1.1236,1.1236,1.1224,1.1224,1.1215,1.1248,1.1334,1.137,1.1386,1.1395,1.1395,1.148,1.1631,1.1676,1.1717,1.18,-0.7903,-0.7903,-0.7903,-0.7903,-0.7903,-0.7903,-0.7903,-0.7903,-0.7903,-0.7903,-0.7903,-0.7903,-0.7903,-0.7903,-0.7903,-0.7892,-0.7872,-0.7862,-0.7864,-0.7867,-0.7872,-0.7693,-0.7385,-0.6768,-0.5851,-0.478,-0.2644,-0.1262,-0.0523,0.0092,0.043,0.0555,0.0799,0.0982,0.0986,0.1291,0.1509,0.1538,0.1782,0.1927,0.1905,0.1902,0.1919,0.1896,0.1917,0.1916,0.1886,0.1912,0.1878,0.1879,0.188,0.1884,0.1878,0.1877,0.1881,0.1878,0.1881,0.1883,0.1885,0.1886,0.1887,0.1899,0.1887,0.1902,0.1905,0.1954,0.1999,0.2031,0.2064,0.216,0.2466,0.2833,0.3415,0.4344,0.551,0.6674,0.7869,0.9332,1.0641,1.1405,1.1716,1.1772,1.1772,1.1772,1.1806,1.1806,1.1806,1.1806,1.1806,1.1806,1.1806,1.1794,1.1758,1.1709,1.1749,1.1774,1.1529,1.1333,1.1334,1.1334,1.137,1.1374,1.1395,1.1399,1.1459,1.1516,1.1611,1.1631,1.166,1.168,1.1762,1.1758,1.177,1.1778,1.1786,-0.7903,-0.7903,-0.7903,-0.7903,-0.7903,-0.7903,-0.7903,-0.7903,-0.7903,-0.7903,-0.7903,-0.7903,-0.7903,-0.7903,-0.7903,-0.7903,-0.7903,-0.7903,-0.7903,-0.7903,-0.7903,-0.7839,-0.7658,-0.7263,-0.6309,-0.4865,-0.3297,-0.2066,-0.1203,-0.0494,-0.0093,0.0185,0.0494,0.0649,0.0679,0.0957,0.1143,0.1204,0.1483,0.1632,0.1656,0.187,0.1957,0.1949,0.1979,0.1948,0.1977,0.1938,0.1887,0.1887,0.1885,0.1885,0.1886,0.1885,0.1885,0.1885,0.1885,0.1897,0.1885,0.1887,0.1926,0.1944,0.1957,0.1962,0.1962,0.2001,0.2008,0.2008,0.2008,0.2069,0.2222,0.2685,0.3393,0.4315,0.5387,0.6582,0.79,0.9329,1.0395,1.1005,1.1311,1.1432,1.1488,1.1583,1.1772,1.1776,1.1806,1.1806,1.1806,1.1806,1.1806,1.1806,1.1806,1.1806,1.1806,1.1806,1.1701,1.1549,1.1516,1.1484,1.1504,1.1516,1.1533,1.1557,1.1652,1.1709,1.1778,1.1806,1.1806,1.1806,1.179,1.179,1.1802,1.1806,1.1806,-0.7903,-0.7903,-0.7903,-0.7903,-0.7903,-0.7903,-0.7903,-0.7903,-0.7903,-0.7903,-0.7903,-0.7903,-0.7903,-0.7903,-0.7903,-0.7903,-0.7903,-0.7903,-0.7903,-0.7903,-0.7903,-0.7903,-0.7811,-0.7291,-0.6309,-0.4896,-0.3607,-0.2466,-0.151,-0.0864,-0.034,0.0,0.0216,0.0309,0.034,0.0649,0.0803,0.0865,0.1143,0.1328,0.139,0.1637,0.1822,0.1822,0.1946,0.2008,0.2004,0.1969,0.1949,0.1949,0.1919,0.195,0.1919,0.195,0.1919,0.1919,0.1921,0.193,0.1946,0.1948,0.1955,0.2003,0.2008,0.2008,0.2008,0.2008,0.2008,0.2008,0.2008,0.2008,0.2099,0.2746,0.3454,0.413,0.5232,0.6611,0.8144,0.9515,1.0365,1.0793,1.1005,1.1091,1.1182,1.1398,1.1587,1.1617,1.1742,1.1806,1.1806,1.1806,1.1806,1.1806,1.1806,1.1806,1.1806,1.1806,1.1806,1.1774,1.1749,1.1721,1.1717,1.1713,1.1721,1.1713,1.1754,1.1749,1.1806,1.1806,1.1806,1.1806,1.1806,1.1806,1.1806,1.1806,1.1806,-0.7903,-0.7903,-0.7903,-0.7903,-0.7903,-0.7903,-0.7903,-0.7903,-0.7903,-0.7903,-0.7903,-0.7903,-0.7903,-0.7903,-0.7903,-0.7903,-0.7903,-0.7903,-0.7903,-0.7903,-0.7872,-0.7841,-0.778,-0.7016,-0.6064,-0.4986,-0.376,-0.262,-0.1665,-0.0987,-0.037,-0.0093,0.0,0.0,0.0,0.034,0.0494,0.0525,0.0803,0.0957,0.1019,0.1328,0.1514,0.1544,0.1822,0.2008,0.2006,0.2001,0.2001,0.2006,0.1999,0.1999,0.2005,0.2007,0.2001,0.1999,0.1975,0.2003,0.2006,0.2003,0.2005,0.2007,0.2008,0.2008,0.2008,0.2008,0.2008,0.2008,0.2008,0.2008,0.2162,0.2871,0.3608,0.419,0.5479,0.7072,0.894,0.9822,1.0274,1.0607,1.0759,1.0759,1.0789,1.1061,1.1243,1.1333,1.1522,1.1677,1.1742,1.1712,1.1806,1.1806,1.1806,1.1806,1.1806,1.1806,1.1806,1.1806,1.1806,1.1806,1.1806,1.1806,1.1806,1.1806,1.1806,1.1806,1.1806,1.1806,1.1806,1.1806,1.1806,1.1806,1.1806,1.1806,1.1806,-0.7903,-0.7903,-0.7903,-0.7903,-0.7903,-0.7903,-0.7905,-0.7903,-0.7908,-0.7916,-0.7905,-0.7903,-0.7908,-0.7903,-0.7903,-0.7903,-0.7903,-0.7903,-0.7903,-0.7869,-0.7627,-0.7689,-0.7719,-0.7143,-0.6344,-0.554,-0.4467,-0.3422,-0.225,-0.1511,-0.0925,-0.0371,0.0,0.0,0.0,0.0,0.0124,0.0185,0.0463,0.0618,0.071,0.1204,0.1483,0.1544,0.1822,0.1977,0.2008,0.2008,0.2008,0.2008,0.2008,0.2008,0.2008,0.2008,0.2008,0.2008,0.2008,0.2008,0.2008,0.2008,0.2008,0.2008,0.2008,0.2008,0.2008,0.2008,0.2008,0.2008,0.2008,0.2008,0.2162,0.2932,0.4039,0.5575,0.6585,0.7717,0.8787,0.9521,0.997,1.0061,1.0274,1.0395,1.0486,1.0694,1.0906,1.1001,1.1182,1.1458,1.1492,1.1647,1.1742,1.1806,1.1806,1.1806,1.1806,1.1806,1.1806,1.1806,1.1806,1.1806,1.1806,1.1806,1.1806,1.1806,1.1806,1.1806,1.1806,1.1806,1.1806,1.1806,1.1806,1.1806,1.1806,1.1806,1.1806,-0.8024,-0.8021,-0.8024,-0.8024,-0.8021,-0.8024,-0.8024,-0.8024,-0.8024,-0.8023,-0.799,-0.7979,-0.7949,-0.7905,-0.7903,-0.7903,-0.7903,-0.7903,-0.7811,-0.7597,-0.7199,-0.7169,-0.7263,-0.6898,-0.6405,-0.582,-0.4868,-0.3821,-0.2744,-0.1911,-0.1172,-0.0556,-0.0154,0.0,0.0,0.0,0.0,0.0,0.0185,0.0278,0.034,0.0803,0.1112,0.1297,0.1606,0.1822,0.1977,0.2008,0.2008,0.2008,0.2008,0.2008,0.2008,0.2008,0.2008,0.2008,0.2008,0.2008,0.2008,0.2008,0.2008,0.2008,0.2008,0.2008,0.2008,0.2008,0.2008,0.2008,0.2008,0.2008,0.2193,0.2993,0.4469,0.6035,0.7289,0.8147,0.8824,0.946,0.9761,0.9852,0.9974,1.0095,1.0092,1.0395,1.0547,1.0668,1.088,1.1122,1.1307,1.1492,1.1647,1.1712,1.1772,1.1772,1.1806,1.1806,1.1806,1.1806,1.1806,1.1806,1.1806,1.1806,1.1806,1.1806,1.1806,1.1806,1.1806,1.1806,1.1806,1.1806,1.1806,1.1806,1.1806,1.1806,1.1806,-0.8202,-0.8202,-0.8202,-0.8202,-0.8191,-0.8199,-0.8177,-0.8196,-0.818,-0.816,-0.8121,-0.8104,-0.8055,-0.7941,-0.7954,-0.7921,-0.7954,-0.7948,-0.7657,-0.7264,-0.6767,-0.6516,-0.6436,-0.635,-0.6037,-0.5607,-0.4808,-0.3915,-0.296,-0.2003,-0.1233,-0.0648,-0.0216,0.0,0.0,0.0,0.0,0.0,0.0,0.0,0.0,0.0432,0.0741,0.1081,0.1483,0.1761,0.1946,0.2008,0.2008,0.2008,0.2008,0.2008,0.2008,0.2008,0.2008,0.2008,0.2008,0.2008,0.2008,0.2008,0.2008,0.2008,0.2008,0.2008,0.2008,0.2008,0.2008,0.2008,0.2008,0.21,0.2439,0.3299,0.459,0.6127,0.7289,0.8147,0.8821,0.9427,0.9788,0.9788,0.9788,0.9788,0.9879,1.0031,1.0243,1.0274,1.0516,1.0759,1.097,1.1126,1.1371,1.1617,1.1677,1.1712,1.1772,1.1806,1.1806,1.1806,1.1806,1.1806,1.1806,1.1806,1.1806,1.1806,1.1806,1.1806,1.1806,1.1806,1.1806,1.1806,1.1806,1.1806,1.1806,1.1806,1.1806,-0.8202,-0.8202,-0.8202,-0.8202,-0.8202,-0.8202,-0.8207,-0.8212,-0.821,-0.8202,-0.8169,-0.8198,-0.8176,-0.8115,-0.8133,-0.8126,-0.8104,-0.8041,-0.7714,-0.6826,-0.6377,-0.5668,-0.5333,-0.5342,-0.5394,-0.5051,-0.4653,-0.3916,-0.3022,-0.2251,-0.1542,-0.0895,0.0,0.0,0.0,0.0,0.0,0.0,0.0,0.0,0.0,0.0309,0.0618,0.0988,0.1544,0.1884,0.1977,0.2008,0.2008,0.2008,0.2008,0.2008,0.2008,0.2008,0.2008,0.2008,0.2008,0.2008,0.2008,0.2008,0.2008,0.2008,0.2008,0.2008,0.2008,0.2008,0.2008,0.2008,0.2038,0.2316,0.2962,0.3545,0.4651,0.6033,0.7261,0.8147,0.879,0.943,0.9761,0.9788,0.9788,0.9788,0.9788,0.9849,0.994,0.9943,1.0152,1.0395,1.0607,1.0789,1.1091,1.1432,1.1522,1.1583,1.1772,1.1806,1.1806,1.1806,1.1806,1.1806,1.1806,1.1806,1.1806,1.1806,1.1806,1.1806,1.1806,1.1806,1.1806,1.1806,1.1806,1.1806,1.1806,1.1806,1.1806,-0.8402,-0.8402,-0.8367,-0.8367,-0.8402,-0.8399,-0.8402,-0.8399,-0.8399,-0.8369,-0.8294,-0.8288,-0.8256,-0.8207,-0.8202,-0.8199,-0.8106,-0.7815,-0.7269,-0.6434,-0.5759,-0.4907,-0.4244,-0.4263,-0.4352,-0.4515,-0.4499,-0.3947,-0.3208,-0.2406,-0.1634,-0.0988,-0.034,0.0,0.0,0.0,0.0,0.0,0.0,0.0,0.0,0.0154,0.0525,0.0957,0.1483,0.1822,0.1977,0.2008,0.2008,0.2008,0.2008,0.2008,0.2008,0.2008,0.2008,0.2008,0.2008,0.2008,0.2008,0.2008,0.2008,0.2008,0.2008,0.2008,0.2008,0.2008,0.2008,0.2008,0.2069,0.2377,0.3146,0.3698,0.4588,0.5757,0.7108,0.8086,0.8635,0.9305,0.9788,0.9788,0.9788,0.9788,0.9788,0.9788,0.9819,0.9879,0.9883,1.0156,1.0365,1.0577,1.0876,1.1152,1.1273,1.1428,1.1712,1.1806,1.1806,1.1806,1.1806,1.1806,1.1806,1.1806,1.1806,1.1806,1.1806,1.1806,1.1806,1.1806,1.1806,1.1806,1.1806,1.1806,1.1806,1.1806,1.1806,-0.862,-0.862,-0.862,-0.862,-0.862,-0.8612,-0.8571,-0.8612,-0.862,-0.8513,-0.8459,-0.8446,-0.8394,-0.8283,-0.8275,-0.8261,-0.8073,-0.7495,-0.6872,-0.6286,-0.5183,-0.4257,-0.3592,-0.3353,-0.335,-0.3981,-0.4049,-0.3708,-0.3051,-0.2385,-0.1521,-0.0899,-0.0309,0.0,0.0,0.0,0.0,0.0,0.0,0.0,0.0,0.0,0.034,0.0834,0.1328,0.1637,0.1853,0.1946,0.2008,0.2008,0.2008,0.2008,0.2008,0.2008,0.2008,0.2008,0.2008,0.2008,0.2008,0.2008,0.2008,0.2008,0.2008,0.2008,0.2008,0.2009,0.2012,0.2019,0.2085,0.2278,0.289,0.349,0.4289,0.5388,0.6794,0.7824,0.8449,0.918,0.9609,0.9788,0.9788,0.9788,0.9788,0.9788,0.9788,0.9788,0.9822,0.9883,1.0092,1.0304,1.0577,1.0849,1.097,1.1367,1.1682,1.1806,1.1806,1.1806,1.1806,1.1806,1.1806,1.1806,1.1806,1.1806,1.1806,1.1806,1.1806,1.1806,1.1806,1.1806,1.1806,1.1806,1.1806,1.1806,1.1806,-0.862,-0.862,-0.862,-0.862,-0.862,-0.862,-0.862,-0.862,-0.862,-0.8579,-0.8557,-0.859,-0.8538,-0.8516,-0.8524,-0.8524,-0.8231,-0.7497,-0.6781,-0.6154,-0.4991,-0.3847,-0.2991,-0.2692,-0.2504,-0.2316,-0.2753,-0.2881,-0.2387,-0.1772,-0.1258,-0.0628,-0.0187,0.0,0.0,0.0,0.0,0.0,0.0,0.0,0.0,0.0,0.0,0.0649,0.1143,0.1483,0.1637,0.1853,0.2008,0.2008,0.2008,0.2008,0.2008,0.2008,0.2008,0.2008,0.2008,0.2008,0.2008,0.2008,0.2008,0.2008,0.201,0.201,0.201,0.2012,0.2026,0.2044,0.2064,0.2238,0.2625,0.3313,0.4061,0.5075,0.6258,0.7477,0.8242,0.8943,0.946,0.9667,0.9727,0.9788,0.9788,0.9788,0.9788,0.9788,0.9788,0.9822,0.991,1.0001,1.0122,1.0425,1.0668,1.116,1.1686,1.1776,1.1806,1.1806,1.1806,1.1806,1.1806,1.1806,1.1806,1.1806,1.1806,1.1806,1.1806,1.1806,1.1806,1.1806,1.1806,1.1806,1.1806,1.1806,1.1806,-0.862,-0.862,-0.862,-0.862,-0.862,-0.862,-0.862,-0.862,-0.862,-0.862,-0.862,-0.862,-0.862,-0.862,-0.862,-0.852,-0.8123,-0.7419,-0.6717,-0.5949,-0.4705,-0.3591,-0.2632,-0.2299,-0.1826,-0.1552,-0.1813,-0.2025,-0.1742,-0.1409,-0.0989,-0.0573,0.0,0.0,0.0,0.0,0.0,0.0,0.0,0.0,0.0,0.0,0.0,0.0556,0.0957,0.1297,0.1544,0.1822,0.2008,0.2008,0.2008,0.2008,0.2008,0.2008,0.2008,0.2008,0.2008,0.2008,0.2008,0.2008,0.2008,0.201,0.202,0.2029,0.2034,0.2045,0.2058,0.2073,0.2082,0.2226,0.261,0.3226,0.3949,0.4787,0.5956,0.7005,0.7846,0.8588,0.9111,0.9491,0.967,0.9761,0.9788,0.9788,0.9788,0.9788,0.9788,0.9788,0.9788,0.9849,0.991,1.0274,1.0637,1.1129,1.1591,1.1746,1.1806,1.1806,1.1806,1.1806,1.1806,1.1806,1.1806,1.1806,1.1806,1.1806,1.1806,1.1806,1.1806,1.1806,1.1806,1.1806,1.1806,1.1806,1.1811,-0.862,-0.862,-0.862,-0.862,-0.862,-0.862,-0.862,-0.862,-0.862,-0.862,-0.862,-0.862,-0.862,-0.862,-0.8554,-0.8423,-0.8025,-0.7252,-0.6516,-0.5711,-0.4371,-0.3295,-0.259,-0.1884,-0.1276,-0.0871,-0.0905,-0.1031,-0.1179,-0.1038,-0.0745,-0.0387,0.0,0.0,0.0,0.0,0.0,0.0,0.0,0.0,0.0,0.0,0.0093,0.0401,0.0772,0.1143,0.1359,0.1791,0.1977,0.2008,0.2008,0.2008,0.2008,0.2008,0.201,0.2014,0.201,0.201,0.2017,0.2019,0.2024,0.2035,0.2017,0.2025,0.2034,0.2082,0.2104,0.2105,0.2116,0.2219,0.2517,0.3093,0.3735,0.4428,0.5481,0.6591,0.7288,0.8006,0.8713,0.9123,0.9497,0.97,0.9731,0.9788,0.9788,0.9788,0.9788,0.9788,0.9788,0.9788,0.994,1.0304,1.0698,1.1156,1.1526,1.1712,1.1772,1.1806,1.1806,1.1806,1.1806,1.1806,1.1806,1.1806,1.1806,1.1806,1.1806,1.1806,1.1806,1.1806,1.1806,1.1806,1.1806,1.1819,1.1835,-0.862,-0.862,-0.862,-0.862,-0.862,-0.862,-0.862,-0.862,-0.862,-0.862,-0.862,-0.862,-0.862,-0.862,-0.862,-0.8423,-0.7856,-0.702,-0.6284,-0.561,-0.4135,-0.2995,-0.2255,-0.1515,-0.0842,0.0,0.0,-0.0303,-0.0566,-0.0594,-0.0394,-0.0131,0.0,0.0,0.0,0.0,0.0,0.0,0.0,0.0,0.0,0.0,0.0,0.0,0.0649,0.1019,0.1204,0.1637,0.2008,0.2008,0.2008,0.2008,0.2008,0.2008,0.2023,0.2029,0.2027,0.2019,0.2009,0.2014,0.2022,0.207,0.2087,0.209,0.2102,0.2118,0.2137,0.2105,0.2156,0.2201,0.2365,0.2873,0.3356,0.4021,0.49,0.5853,0.6634,0.7341,0.806,0.8726,0.9095,0.9457,0.967,0.9727,0.9788,0.9788,0.9788,0.9788,0.9788,0.9788,0.991,1.0274,1.0637,1.1095,1.1462,1.1647,1.1772,1.1806,1.1806,1.1806,1.1806,1.1806,1.1806,1.1806,1.1806,1.1806,1.1806,1.1806,1.1806,1.1806,1.1806,1.1806,1.1806,1.1831,1.1884,-0.862,-0.862,-0.862,-0.862,-0.862,-0.862,-0.862,-0.862,-0.862,-0.862,-0.862,-0.862,-0.862,-0.862,-0.862,-0.8289,-0.7691,-0.6822,-0.6118,-0.5411,-0.4,-0.286,-0.2188,-0.1447,-0.0707,0.0,0.0,-0.0067,0.0,0.0,0.0,0.0,0.0,0.0,0.0,0.0,0.0,0.0,0.0,0.0,0.0,0.0,0.0,0.0,0.0,0.0957,0.1143,0.1637,0.1977,0.2008,0.2008,0.2008,0.2012,0.2021,0.2007,0.2015,0.2057,0.2064,0.2074,0.2044,0.2054,0.2097,0.2113,0.2129,0.2145,0.2158,0.2167,0.2168,0.2179,0.2188,0.2256,0.2626,0.2985,0.3568,0.4371,0.512,0.59,0.6611,0.7324,0.803,0.8699,0.9122,0.9488,0.9667,0.9727,0.9788,0.9788,0.9788,0.9788,0.9788,0.997,1.0243,1.0607,1.097,1.1307,1.1583,1.1772,1.1806,1.1806,1.1806,1.1806,1.1806,1.1806,1.1806,1.1806,1.1806,1.1806,1.1806,1.1806,1.1806,1.1806,1.1819,1.1843,1.1931,1.202,-0.862,-0.862,-0.862,-0.862,-0.862,-0.862,-0.862,-0.862,-0.862,-0.862,-0.862,-0.862,-0.862,-0.862,-0.8554,-0.8223,-0.7493,-0.6721,-0.6051,-0.5111,-0.3968,-0.2893,-0.2154,-0.1447,-0.0707,0.0,0.0,0.0,0.0,0.0,0.0,0.0,0.0,0.0,0.0,0.0,0.0,0.0,0.0,0.0,0.0,0.0,0.0,0.0,0.0587,0.1019,0.1081,0.1637,0.2008,0.2008,0.2018,0.2022,0.2025,0.2047,0.2036,0.2048,0.2063,0.211,0.2114,0.2116,0.2113,0.2123,0.2136,0.2161,0.2178,0.2188,0.2188,0.2184,0.2186,0.2188,0.2256,0.2526,0.2791,0.325,0.3834,0.4505,0.5192,0.599,0.6758,0.7487,0.8167,0.8821,0.9183,0.9484,0.9667,0.9758,0.9788,0.9788,0.9788,0.9788,0.991,1.0122,1.0547,1.0849,1.1095,1.1402,1.1621,1.1806,1.1806,1.1806,1.1806,1.1806,1.1806,1.1806,1.1806,1.1806,1.1806,1.1806,1.1806,1.1806,1.1815,1.1817,1.1874,1.2016,1.2182,-0.862,-0.862,-0.862,-0.862,-0.862,-0.862,-0.862,-0.862,-0.862,-0.862,-0.862,-0.862,-0.862,-0.862,-0.8554,-0.8189,-0.7459,-0.6755,-0.6049,-0.5111,-0.3935,-0.2893,-0.212,-0.1414,0.0,0.0,0.0,0.0,0.0,0.0,0.0,0.0,0.0,0.0,0.0,0.0,0.0,0.0,0.0,0.0,0.0,0.0,0.0,0.0,0.0618,0.1019,0.105,0.1668,0.2012,0.2012,0.1999,0.2014,0.202,0.2077,0.2067,0.2084,0.2099,0.2147,0.2157,0.2152,0.2123,0.2172,0.2181,0.218,0.2188,0.2188,0.2188,0.2188,0.2188,0.2188,0.229,0.2492,0.2659,0.2891,0.3346,0.3918,0.4656,0.5449,0.6235,0.6956,0.7601,0.8231,0.8757,0.9058,0.9545,0.9697,0.9788,0.9788,0.9788,0.9788,0.9788,1.0001,1.0486,1.0759,1.088,1.1186,1.1651,1.1806,1.1806,1.1806,1.1806,1.1806,1.1806,1.1806,1.1806,1.1806,1.1806,1.1806,1.1806,1.1806,1.1839,1.1902,1.2065,1.2247,1.2385,-0.862,-0.862,-0.862,-0.862,-0.862,-0.862,-0.862,-0.862,-0.862,-0.862,-0.862,-0.862,-0.862,-0.862,-0.8554,-0.8189,-0.7459,-0.6755,-0.6051,-0.5042,-0.3833,-0.2759,-0.1986,-0.1245,0.0,0.0,0.0,0.0,0.0,0.0,0.0,0.0,0.0,0.0,0.0,0.0,0.0,0.0,0.0,0.0,0.0,0.0,0.0,0.0,0.0,0.0957,0.1112,0.1668,0.1925,0.2001,0.2015,0.203,0.2048,0.2108,0.2096,0.2112,0.2158,0.2174,0.2183,0.2177,0.2179,0.2182,0.2188,0.2188,0.2188,0.2188,0.2188,0.2188,0.2188,0.2188,0.2223,0.2324,0.2425,0.2558,0.2887,0.3438,0.4072,0.4877,0.5625,0.6332,0.6978,0.7596,0.81,0.8574,0.915,0.9636,0.9727,0.9788,0.9788,0.9788,0.9788,0.997,1.0425,1.0728,1.0849,1.1281,1.1776,1.1806,1.1806,1.1806,1.1806,1.1806,1.1806,1.1806,1.1806,1.1806,1.1806,1.1806,1.1819,1.1843,1.1926,1.2069,1.2255,1.249,1.2568,-0.862,-0.862,-0.862,-0.862,-0.862,-0.862,-0.862,-0.862,-0.862,-0.862,-0.862,-0.862,-0.862,-0.862,-0.8587,-0.8192,-0.7457,-0.6719,-0.5949,-0.4874,-0.3598,-0.2556,-0.1818,-0.1077,0.0,0.0,0.0,0.0,0.0,0.0,0.0,0.0,0.0,0.0,0.0,0.0,0.0,0.0,0.0,0.0,0.0,0.0,0.0,0.0,0.0,0.0973,0.1193,0.1634,0.1986,0.2031,0.2045,0.2058,0.208,0.2102,0.2119,0.2163,0.2173,0.2188,0.2188,0.2188,0.2188,0.2188,0.2188,0.2188,0.2188,0.2188,0.2188,0.2188,0.2188,0.2188,0.2188,0.2256,0.2256,0.239,0.2627,0.3116,0.3595,0.4287,0.4985,0.5691,0.6318,0.695,0.7622,0.8156,0.8818,0.9363,0.97,0.9761,0.9788,0.9788,0.9788,1.0031,1.0395,1.0637,1.0823,1.1345,1.1806,1.1806,1.1806,1.1806,1.1806,1.1806,1.1806,1.1806,1.1806,1.1806,1.1831,1.1868,1.1853,1.1866,1.2052,1.2276,1.2393,1.258,1.2682,-0.862,-0.862,-0.862,-0.862,-0.862,-0.862,-0.862,-0.862,-0.862,-0.862,-0.862,-0.862,-0.862,-0.862,-0.862,-0.8192,-0.7457,-0.6721,-0.5882,-0.474,-0.3329,-0.2354,-0.1615,-0.0875,0.0,0.0,0.0,0.0,0.0,0.0,0.0,0.0,0.0,0.0,0.0,0.0,0.0,0.0,0.0,0.0,0.0,0.0,0.0,0.0,0.0576,0.0894,0.115,0.1597,0.1954,0.2063,0.2082,0.2096,0.211,0.2166,0.218,0.2183,0.2186,0.2188,0.2188,0.2188,0.2188,0.2188,0.2188,0.2188,0.2188,0.2188,0.2188,0.2188,0.2188,0.2188,0.2188,0.2188,0.2188,0.2256,0.2492,0.2825,0.3341,0.3827,0.4541,0.5175,0.5723,0.6292,0.7036,0.7735,0.8442,0.9031,0.9518,0.9731,0.9761,0.9788,0.9788,1.0031,1.0365,1.0637,1.0914,1.1436,1.1776,1.1806,1.1806,1.1806,1.1806,1.1806,1.1806,1.1811,1.1847,1.1857,1.189,1.1922,1.2016,1.2142,1.2352,1.2539,1.2637,1.2678,1.273,-0.862,-0.862,-0.862,-0.862,-0.862,-0.862,-0.862,-0.862,-0.862,-0.862,-0.862,-0.862,-0.862,-0.862,-0.8523,-0.8192,-0.7457,-0.6721,-0.5848,-0.4638,-0.3094,-0.2255,-0.1447,-0.0707,0.0,0.0,0.0,0.0,0.0,0.0,0.0,0.0,0.0,0.0,0.0,0.0,0.0,0.0,0.0,0.0,0.0,0.0,0.0,0.0,0.0453,0.0776,0.1003,0.1522,0.1819,0.2059,0.2112,0.2119,0.2165,0.2188,0.2188,0.2188,0.2188,0.2188,0.2188,0.2188,0.2188,0.2188,0.2188,0.2188,0.2188,0.2188,0.2188,0.2188,0.2188,0.2188,0.2188,0.2188,0.2188,0.2188,0.239,0.2693,0.3153,0.3617,0.4194,0.4746,0.526,0.5681,0.6288,0.6928,0.7616,0.8398,0.8885,0.9497,0.967,0.9761,0.9819,1.0035,1.0308,1.0611,1.0974,1.1402,1.1712,1.1806,1.1806,1.1806,1.1806,1.1835,1.1851,1.188,1.1898,1.1951,1.204,1.2146,1.2312,1.2494,1.26,1.2649,1.2718,1.2726,1.2767,-0.862,-0.862,-0.862,-0.862,-0.862,-0.862,-0.862,-0.862,-0.862,-0.862,-0.862,-0.862,-0.862,-0.8587,-0.8423,-0.8023,-0.729,-0.642,-0.531,-0.4168,-0.2725,-0.1784,-0.1043,0.0,0.0,0.0,0.0,0.0,0.0,0.0,0.0,0.0,0.0,0.0,0.0,0.0,0.0,0.0,0.0,0.0,0.0,0.0,0.0,0.0,0.0361,0.0656,0.1015,0.1344,0.1708,0.1986,0.2127,0.2133,0.2183,0.2188,0.2188,0.2188,0.2188,0.2188,0.2188,0.2188,0.2188,0.2188,0.2188,0.2188,0.2188,0.2188,0.2188,0.2188,0.2188,0.2188,0.2188,0.2188,0.2188,0.2188,0.2289,0.2591,0.2927,0.3393,0.3657,0.4219,0.4637,0.5049,0.5492,0.6078,0.6719,0.7485,0.8217,0.8867,0.9538,0.9673,0.9761,0.9977,1.0224,1.0565,1.0891,1.1246,1.1557,1.1772,1.1831,1.1859,1.187,1.1914,1.1914,1.1973,1.2052,1.2158,1.2255,1.2377,1.2495,1.2592,1.2674,1.2718,1.2791,1.2803,1.2803,-0.862,-0.862,-0.862,-0.862,-0.862,-0.862,-0.862,-0.862,-0.862,-0.862,-0.862,-0.862,-0.862,-0.8523,-0.8256,-0.7722,-0.6951,-0.5984,-0.4707,-0.343,-0.2255,-0.138,-0.0707,0.0,0.0,0.0,0.0,0.0,0.0,0.0,0.0,0.0,0.0,0.0,0.0,0.0,0.0,0.0,0.0,0.0,0.0,0.0,0.0,0.0,0.0267,0.0602,0.0936,0.1305,0.1675,0.1982,0.2152,0.2187,0.2188,0.2188,0.2188,0.2188,0.2188,0.2188,0.2188,0.2188,0.2188,0.2188,0.2188,0.2188,0.2188,0.2188,0.2188,0.2188,0.2188,0.2188,0.2188,0.2188,0.2188,0.2188,0.2188,0.2457,0.2727,0.2994,0.3194,0.3541,0.3905,0.4283,0.4628,0.5193,0.5851,0.6643,0.7486,0.8401,0.9035,0.9558,0.968,0.9859,1.014,1.0488,1.083,1.1248,1.1612,1.1944,1.1931,1.1981,1.1987,1.2013,1.2077,1.2138,1.2255,1.2365,1.2479,1.256,1.2633,1.2714,1.2726,1.275,1.2803,1.2803,1.2803,-0.862,-0.862,-0.862,-0.862,-0.862,-0.862,-0.862,-0.862,-0.862,-0.862,-0.862,-0.862,-0.8587,-0.8587,-0.8256,-0.7653,-0.6817,-0.5813,-0.4537,-0.3263,-0.1952,-0.1212,-0.0606,0.0,0.0,0.0,0.0,0.0,0.0,0.0,0.0,0.0,0.0,0.0,0.0,0.0,0.0,0.0,0.0,0.0,0.0,0.0,0.0,0.0,0.0,0.0,0.0707,0.1111,0.1447,0.1717,0.2054,0.2188,0.2188,0.2188,0.2188,0.2188,0.2188,0.2188,0.2188,0.2188,0.2188,0.2188,0.2188,0.2188,0.2188,0.2188,0.2188,0.2188,0.2188,0.2188,0.2188,0.2188,0.2188,0.2188,0.2222,0.2357,0.2592,0.276,0.2961,0.312,0.3491,0.3571,0.3895,0.4353,0.5028,0.5838,0.6769,0.7759,0.8651,0.9227,0.9695,0.9886,1.0152,1.0502,1.0958,1.1383,1.1752,1.2072,1.2082,1.2101,1.2182,1.2235,1.2259,1.2333,1.2438,1.2544,1.2686,1.2726,1.2714,1.2742,1.2779,1.2791,1.2803,1.2803,1.2803,-0.862,-0.862,-0.862,-0.862,-0.862,-0.862,-0.862,-0.862,-0.862,-0.862,-0.862,-0.862,-0.852,-0.832,-0.7853,-0.7152,-0.6215,-0.4908,-0.3666,-0.2523,-0.1649,-0.0909,-0.0337,0.0,0.0,0.0,0.0,0.0,0.0,0.0,0.0,0.0,0.0,0.0,0.0,0.0,0.0,0.0,0.0,0.0,0.0,0.0,0.0,0.0,0.0,0.0,0.0471,0.0875,0.1245,0.1616,0.1986,0.2188,0.2188,0.2188,0.2188,0.2188,0.2188,0.2188,0.2188,0.2188,0.2188,0.2188,0.2188,0.2188,0.2188,0.2188,0.2188,0.2188,0.2188,0.2188,0.2188,0.2188,0.2188,0.2188,0.2256,0.229,0.2458,0.2627,0.2759,0.289,0.298,0.3,0.3245,0.3682,0.4282,0.524,0.6283,0.7412,0.8386,0.9155,0.9684,1.0059,1.027,1.0552,1.1042,1.1488,1.1799,1.2099,1.2212,1.2259,1.2361,1.2426,1.245,1.2523,1.2584,1.2694,1.2775,1.2787,1.2783,1.2803,1.2803,1.2803,1.2803,1.2803,1.2803,-0.862,-0.862,-0.862,-0.862,-0.862,-0.862,-0.862,-0.862,-0.862,-0.862,-0.862,-0.862,-0.8423,-0.8089,-0.7486,-0.655,-0.5478,-0.4203,-0.2994,-0.1616,-0.101,-0.0438,0.0,0.0,0.0,0.0,0.0,0.0,0.0,0.0,0.0,0.0,0.0,0.0,0.0,0.0,0.0,0.0,0.0,0.0,0.0,0.0,0.0,0.0,0.0,0.0135,0.0471,0.0842,0.1245,0.1582,0.1919,0.2155,0.2188,0.2188,0.2188,0.2188,0.2188,0.2188,0.2188,0.2188,0.2188,0.2188,0.2188,0.2188,0.2188,0.2188,0.2188,0.2188,0.2188,0.2188,0.2188,0.2188,0.2188,0.2188,0.2222,0.2256,0.2324,0.2458,0.2525,0.2623,0.2588,0.2612,0.2777,0.3223,0.3909,0.4752,0.5856,0.7068,0.8199,0.9099,0.9685,1.0161,1.0368,1.0643,1.1149,1.1562,1.1824,1.2075,1.229,1.2442,1.256,1.2613,1.2645,1.269,1.2698,1.2738,1.2799,1.2803,1.2803,1.2803,1.2803,1.2803,1.2803,1.2803,1.2803,-0.862,-0.862,-0.862,-0.862,-0.862,-0.862,-0.862,-0.862,-0.862,-0.862,-0.8587,-0.8587,-0.8387,-0.7922,-0.7219,-0.6282,-0.5143,-0.3733,-0.2658,-0.1649,-0.0808,-0.0303,0.0,0.0,0.0,0.0,0.0,0.0,0.0,0.0,0.0,0.0,0.0,0.0,0.0,0.0,0.0,0.0,0.0,0.0,0.0,0.0,0.0,0.0,0.0,0.0,0.0,0.0741,0.101,0.1313,0.1885,0.2121,0.2188,0.2188,0.2188,0.2188,0.2188,0.2188,0.2188,0.2188,0.2188,0.2188,0.2188,0.2188,0.2188,0.2188,0.2188,0.2188,0.2188,0.2188,0.2188,0.2188,0.2188,0.2188,0.2188,0.2188,0.2188,0.2256,0.2324,0.229,0.2223,0.2323,0.2491,0.2959,0.3624,0.4588,0.5721,0.6938,0.818,0.9181,0.9774,1.0212,1.0387,1.0697,1.1267,1.1649,1.1926,1.226,1.2576,1.2665,1.2718,1.2714,1.271,1.275,1.2791,1.2803,1.2803,1.2803,1.2803,1.2803,1.2803,1.2803,1.2803,1.2803,1.2803,-0.862,-0.862,-0.862,-0.862,-0.862,-0.862,-0.862,-0.862,-0.862,-0.862,-0.8587,-0.8423,-0.8123,-0.7588,-0.6817,-0.5811,-0.4673,-0.3363,-0.2254,-0.138,-0.0707,-0.0269,0.0,0.0,0.0,0.0,0.0,0.0,0.0,0.0,0.0,0.0,0.0,0.0,0.0,0.0,0.0,0.0,0.0,0.0,0.0,0.0,0.0,0.0,0.0,0.0,0.0,0.0539,0.0842,0.1245,0.1818,0.2121,0.2188,0.2188,0.2188,0.2188,0.2188,0.2188,0.2188,0.2188,0.2188,0.2188,0.2188,0.2188,0.2188,0.2188,0.2188,0.2188,0.2188,0.2188,0.2188,0.2188,0.2188,0.2188,0.2188,0.2188,0.2188,0.2223,0.2256,0.2256,0.2222,0.2222,0.2525,0.3129,0.3795,0.4465,0.561,0.7018,0.8256,0.9225,0.9817,1.028,1.0479,1.0898,1.1483,1.1811,1.2038,1.2421,1.277,1.2787,1.2763,1.2783,1.2799,1.2803,1.2803,1.2803,1.2803,1.2803,1.2803,1.2803,1.2803,1.2803,1.2803,1.2803,1.2803,-0.862,-0.862,-0.862,-0.862,-0.862,-0.862,-0.862,-0.862,-0.862,-0.862,-0.852,-0.8189,-0.7619,-0.6951,-0.6115,-0.4941,-0.38,-0.2725,-0.175,-0.101,-0.037,0.0,0.0,0.0,0.0,0.0,0.0,0.0,0.0,0.0,0.0,0.0,0.0,0.0,0.0,0.0,0.0,0.0,0.0,0.0,0.0,0.0,0.0,0.0,0.0,0.0,0.0,0.0337,0.0707,0.1212,0.1784,0.2087,0.2188,0.2188,0.2188,0.2188,0.2188,0.2188,0.2188,0.2188,0.2188,0.2188,0.2188,0.2188,0.2188,0.2188,0.2188,0.2188,0.2188,0.2188,0.2188,0.2188,0.2188,0.2188,0.2188,0.2188,0.2188,0.2188,0.2188,0.2188,0.2188,0.2188,0.2659,0.3264,0.3935,0.4603,0.5709,0.7147,0.8387,0.9189,0.9877,1.031,1.0577,1.1109,1.1663,1.1868,1.2048,1.2474,1.2803,1.2803,1.2803,1.2803,1.2803,1.2803,1.2803,1.2803,1.2803,1.2803,1.2803,1.2803,1.2803,1.2803,1.2803,1.2803,1.2803,-0.862,-0.862,-0.862,-0.862,-0.862,-0.862,-0.862,-0.862,-0.862,-0.862,-0.8423,-0.7889,-0.7355,-0.6951,-0.5915,-0.4742,-0.3431,-0.2288,-0.138,-0.0606,-0.0236,0.0,0.0,0.0,0.0,0.0,0.0,0.0,0.0,0.0,0.0,0.0,0.0,0.0,0.0,0.0,0.0,0.0,0.0,0.0,0.0,0.0,0.0,0.0,0.0,0.0,0.0,0.0,0.0673,0.1178,0.1751,0.2087,0.2188,0.2188,0.2188,0.2188,0.2188,0.2188,0.2188,0.2188,0.2188,0.2188,0.2188,0.2188,0.2188,0.2188,0.2188,0.2188,0.2188,0.2188,0.2188,0.2188,0.2188,0.2188,0.2188,0.2188,0.2188,0.2188,0.2188,0.2188,0.2188,0.2357,0.266,0.3298,0.4035,0.4873,0.6077,0.745,0.8456,0.9189,0.996,1.0323,1.0688,1.1152,1.1644,1.181,1.2015,1.2474,1.2803,1.2803,1.2803,1.2803,1.2803,1.2803,1.2803,1.2803,1.2803,1.2803,1.2803,1.2803,1.2803,1.2803,1.2803,1.2803,1.2803]},{"header":{"parameterUnit":"m.s-1","parameterCategory":1,"la1":31.0,"la2":29.5877,"lo1":-88.7671,"lo2":-86.6584,"dy":0.0162,"dx":0.0185,"nx":115,"ny":88,"refTime":"2023-03-16T18:00:00:Z","depth":0,"parameterNumber":3,"parameterNumberName":"V-component_of_WINDS"},"data":[0.0,0.0,0.0,0.0,0.0,0.0,0.0,0.0,0.0,0.0,0.0,0.0,0.0,0.0,0.0,0.0,0.0,0.0,0.0,0.0,0.0,0.0,0.0,0.0,0.0,0.0,0.0,0.0,0.0,0.0,0.0,0.0,0.0,0.0,0.0,0.0,0.0,0.0,0.0,0.0,0.0,0.0,0.0,0.0,0.0,0.0,0.0,0.0,0.0,0.0,0.0,0.0,0.0,0.0,0.0,0.0,0.0,0.0,0.0,0.0,0.0,0.0,0.0,0.0,0.0,0.0,0.0,0.0,0.0,0.0,0.0,0.0,0.0,0.0,0.0,0.0,0.0,0.0,0.0,0.0,0.0,0.0,0.0,0.0,0.0,0.0,0.0,0.0,0.0,0.0,0.0,0.0,0.0,0.0,0.0,0.0,0.0,0.0,0.0,0.0,0.0,0.0,0.0,0.0,0.0,0.0,0.0,0.0,0.0,0.0,0.0,0.0,0.0,0.0,0.0,0.0,0.0,0.0,0.0,0.0,0.0,0.0,0.0,0.0,0.0,0.0,0.0,0.0,0.0,0.0,0.0,0.0,0.0,0.0,0.0,0.0,0.0,0.0,0.0,0.0,0.0,0.0,0.0,0.0,0.0,0.0,0.0,0.0,0.0,0.0,0.0,0.0,0.0,0.0,0.0,0.0,0.0,0.0,0.0,0.0,0.0,0.0,0.0,0.0,0.0,0.0,0.0,0.0,0.0,0.0,0.0,0.0,0.0,0.0,0.0,0.0,0.0,0.0,0.0,0.0,0.0,0.0,0.0,0.0,0.0,0.0,0.0,0.0,0.0,0.0,0.0,0.0,0.0,0.0,0.0,0.0,0.0,0.0,0.0,0.0,0.0,0.0,0.0,0.0,0.0,0.0,0.0,0.0,0.0,0.0,0.0,0.0,0.0,0.0,0.0,0.0,0.0,0.0,0.0,0.0,0.0,0.0,0.0,0.0,0.0,0.0,0.0,0.0,0.0,0.0,0.0,0.0,0.0,0.0,0.0,0.0,0.0,0.0,0.0,0.0,0.0,0.0,0.0,0.0,0.0,0.0,0.0,0.0,0.0,0.0,0.0,0.0,0.0,0.0,0.0,0.0,0.0,0.0,0.0,0.0,0.0,0.0,0.0,0.0,0.0,0.0,0.0,0.0,0.0,0.0,0.0,0.0,0.0,0.0,0.0,0.0,0.0,0.0,0.0,0.0,0.0,0.0,0.0,0.0,0.0,0.0,0.0,0.0,0.0,0.0,0.0,0.0,0.0,0.0,0.0,0.0,0.0,0.0,0.0,0.0,0.0,0.0,0.0,0.0,0.0,0.0,0.0,0.0,0.0,0.0,0.0,0.0,0.0,0.0,0.0,0.0,0.0,0.0,0.0,0.0,0.0,0.0,0.0,0.0,0.0,0.0,0.0,0.0,0.0,0.0,0.0,0.0,0.0,0.0,0.0,0.0,0.0,0.0,0.0,0.0,0.0,0.0,0.0,0.0,0.0,0.0,0.0,0.0,0.0,0.0,0.0,0.0,0.0,0.0,0.0,0.0,0.0,0.0,0.0,0.0,0.0,0.0,0.0,0.0,0.0,0.0,0.0,0.0,0.0,0.0,0.0,0.0,0.0,0.0,0.0,0.0,0.0,0.0,0.0,0.0,0.0,0.0,0.0,0.0,0.0,0.0,0.0,0.0,0.0,0.0,0.0,0.0,0.0,0.0,0.0,0.0,0.0,0.0,0.0,0.0,0.0,0.0,0.0,0.0,0.0,0.0,0.0,0.0,0.0,0.0,0.0,0.0,0.0,0.0,0.0,0.0,0.0,0.0,0.0,0.0,0.0,0.0,0.0,0.0,0.0,0.0,0.0,0.0,0.0,0.0,0.0,0.0,0.0,0.0,0.0,0.0,0.0,0.0,0.0,0.0,0.0,0.0,0.0,0.0,0.0,0.0,0.0,0.0,0.0,0.0,0.0,0.0,0.0,0.0,0.0,0.0,0.0,0.0,0.0,0.0,0.0,0.0,0.0,0.0,0.0,0.0,0.0,0.0,0.0,0.0,0.0,0.0,0.0,0.0,0.0,0.0,0.0,0.0,0.0,0.0,0.0,0.0,0.0,0.0,0.0,0.0,0.0,0.0,0.0,0.0,0.0,0.0,0.0,0.0,0.0,0.0,0.0,0.0,0.0,0.0,0.0,0.0,0.0,0.0,0.0,0.0,0.0,0.0,0.0,0.0,0.0,0.0,0.0,0.0,0.0,0.0,0.0,0.0,0.0,0.0,0.0,0.0,0.0,0.0,0.0,0.0,0.0,0.0,0.0,0.0,0.0,0.0,0.0,0.0,0.0,0.0,0.0,0.0,0.0,0.0,0.0,0.0,0.0,0.0,0.0,0.0,0.0,0.0,0.0,0.0,0.0,0.0,0.0,0.0,0.0,0.0,0.0,0.0,0.0,0.0,0.0,0.0,0.0,0.0,0.0,0.0,0.0,0.0,0.0,0.0,0.0,0.0,0.0,0.0,0.0,0.0,0.0,0.0,0.0,0.0,0.0,0.0,0.0,0.0,0.0,0.0,0.0,0.0,0.0,0.0,0.0,0.0,0.0,0.0,0.0,0.0,0.0,0.0,0.0,0.0,0.0,0.0,0.0,0.0,0.0,0.0,0.0,0.0,0.0,0.0,0.0,0.0,0.0,0.0,0.0,0.0,0.0,0.0,0.0,0.0,0.0,0.0,0.0,0.0,0.0,0.0,0.0,0.0,0.0,0.0,0.0,0.0,0.0,0.0,0.0,0.0,0.0,0.0,0.0,0.0,0.0,0.0,0.0,0.0,0.0,0.0,0.0,0.0,0.0,0.0,0.0,0.0,0.0,0.0,0.0,0.0,0.0,0.0,0.0,0.0,0.0,0.0,0.0,0.0,0.0,0.0,0.0,0.0,0.0,0.0,0.0,0.0,0.0,0.0,0.0,0.0,0.0,0.0,0.0,0.0,0.0,0.0,0.0,0.0,0.0,0.0,0.0,0.0,0.0,0.0,0.0,0.0,0.0,0.0,0.0,0.0,0.0,0.0,0.0,0.0,0.0,0.0,0.0,0.0,0.0,0.0,0.0,0.0,0.0,0.0,0.0,0.0,0.0,0.0,0.0,0.0,0.0,0.0,0.0,0.0,0.0,0.0,0.0,0.0,0.0,0.0,0.0,0.0,0.0,0.0,0.0,0.0,0.0,0.0,0.0,0.0,0.0,0.0,0.0,0.0,0.0,0.0,0.0,0.0,0.0,0.0,0.0,0.0,0.0,0.0,0.0,0.0,0.0,0.0,0.0,0.0,0.0,0.0,0.0,0.0,0.0,0.0,0.0,0.0,0.0,0.0,0.0,0.0,0.0,0.0,0.0,0.0,0.0,0.0,0.0,0.0,0.0,0.0,0.0,0.0,0.0,0.0,0.0,0.0,0.0,0.0,0.0,0.0,0.0,0.0,0.0,0.0,0.0,0.0,0.0,0.0,0.0,0.0,0.0,0.0,0.0,0.0,0.0,0.0,0.0,0.0,0.0,0.0,0.0,0.0,0.0,0.0,0.0,0.0,0.0,0.0,0.0,0.0,0.0,0.0,0.0,0.0,0.0,0.0,0.0,0.0,0.0,0.0,0.0,0.0,0.0,0.0,0.0,0.0,0.0,0.0,0.0,0.0,0.0,0.0,0.0,0.0,0.0,0.0,0.0,0.0,0.0,0.0,0.0,0.0,0.0,0.0,0.0,0.0,0.0,0.0,0.0,0.0,0.0,0.0,0.0,0.0,0.0,0.0,0.0,0.0,0.0,0.0,0.0,0.0,0.0,0.0,0.0,0.0,0.0,0.0,0.0,0.0,0.0,0.0,0.0,0.0,0.0,0.0,0.0,0.0,0.0,0.0,0.0,0.0,0.0,0.0,0.0,0.0,0.0,0.0,0.0,0.0,0.0,0.0,0.0,0.0,0.0,0.0,0.0,0.0,0.0,0.0,0.0,0.0,0.0,0.0,0.0,0.0,0.0,0.0,0.0,0.0,0.0,0.0,0.0,0.0,0.0,0.0,0.0,0.0,0.0,0.0,0.0,0.0,0.0,0.0,0.0,0.0,0.0,0.0,0.0,0.0,0.0,0.0,0.0,0.0,0.0,0.0,0.0,0.0,0.0,0.0,0.0,0.0,0.0,0.0,0.0,0.0,0.0,0.0,0.0,0.0,0.0,0.0,0.0,0.0,0.0,0.0,0.0,0.0,3.0788,0.0,0.0,0.0,0.0,0.0,0.0,0.0,0.0,0.0,0.0,0.0,0.0,0.0,0.0,0.0,0.0,0.0,0.0,0.0,0.0,0.0,0.0,0.0,0.0,0.0,0.0,0.0,0.0,0.0,0.0,0.0,0.0,0.0,0.0,0.0,0.0,0.0,0.0,0.0,0.0,0.0,0.0,0.0,0.0,0.0,0.0,0.0,0.0,0.0,0.0,0.0,0.0,0.0,0.0,0.0,0.0,0.0,0.0,0.0,0.0,0.0,0.0,0.0,0.0,0.0,0.0,0.0,0.0,0.0,0.0,0.0,0.0,0.0,0.0,0.0,0.0,0.0,0.0,0.0,0.0,0.0,0.0,0.0,0.0,0.0,0.0,0.0,0.0,0.0,0.0,0.0,0.0,0.0,0.0,0.0,0.0,0.0,0.0,0.0,0.0,0.0,0.0,0.0,0.0,0.0,0.0,0.0,0.0,0.0,0.0,3.0796,3.079,3.0799,3.0802,3.074,0.0,0.0,0.0,0.0,0.0,0.0,0.0,0.0,0.0,0.0,0.0,0.0,0.0,0.0,0.0,0.0,0.0,0.0,0.0,0.0,0.0,0.0,0.0,0.0,0.0,0.0,0.0,0.0,0.0,0.0,0.0,0.0,0.0,0.0,0.0,0.0,0.0,0.0,0.0,0.0,0.0,0.0,0.0,0.0,0.0,0.0,0.0,0.0,0.0,0.0,0.0,0.0,0.0,0.0,0.0,0.0,0.0,0.0,0.0,0.0,0.0,0.0,0.0,0.0,0.0,0.0,0.0,0.0,0.0,0.0,0.0,0.0,0.0,0.0,0.0,0.0,0.0,0.0,0.0,0.0,0.0,0.0,0.0,0.0,0.0,0.0,0.0,0.0,0.0,0.0,0.0,0.0,0.0,0.0,0.0,0.0,0.0,0.0,0.0,0.0,0.0,0.0,0.0,0.0,0.0,0.0,0.0,0.0,0.0,0.0,0.0,0.0,3.0781,3.0743,3.0716,0.0,0.0,0.0,0.0,0.0,0.0,0.0,0.0,0.0,0.0,0.0,0.0,0.0,0.0,0.0,0.0,0.0,0.0,0.0,0.0,0.0,0.0,0.0,0.0,0.0,0.0,0.0,0.0,0.0,0.0,0.0,0.0,0.0,0.0,0.0,0.0,0.0,0.0,0.0,0.0,0.0,0.0,0.0,0.0,0.0,0.0,0.0,0.0,0.0,0.0,0.0,0.0,0.0,0.0,0.0,0.0,0.0,0.0,0.0,0.0,0.0,0.0,0.0,0.0,0.0,0.0,0.0,0.0,0.0,0.0,0.0,0.0,0.0,0.0,0.0,0.0,0.0,0.0,0.0,0.0,0.0,0.0,0.0,0.0,0.0,0.0,0.0,0.0,0.0,0.0,0.0,0.0,0.0,0.0,0.0,0.0,0.0,0.0,0.0,0.0,0.0,0.0,0.0,0.0,0.0,0.0,0.0,0.0,0.0,0.0,3.0706,3.0706,3.0709,0.0,3.0753,0.0,0.0,0.0,0.0,0.0,0.0,0.0,0.0,0.0,0.0,0.0,0.0,0.0,0.0,0.0,0.0,0.0,0.0,0.0,0.0,0.0,0.0,0.0,0.0,0.0,0.0,0.0,0.0,0.0,0.0,0.0,0.0,0.0,0.0,0.0,0.0,0.0,0.0,0.0,0.0,0.0,0.0,0.0,0.0,0.0,0.0,0.0,0.0,0.0,0.0,0.0,0.0,0.0,0.0,0.0,0.0,0.0,0.0,0.0,0.0,0.0,0.0,0.0,0.0,0.0,0.0,0.0,0.0,0.0,0.0,0.0,0.0,0.0,0.0,0.0,0.0,0.0,0.0,0.0,0.0,0.0,0.0,0.0,0.0,0.0,0.0,0.0,0.0,0.0,0.0,0.0,0.0,0.0,0.0,0.0,0.0,0.0,0.0,0.0,0.0,0.0,0.0,0.0,0.0,0.0,0.0,0.0,0.0,0.0,0.0,3.0706,3.0704,3.0711,3.0711,0.0,0.0,0.0,0.0,0.0,0.0,0.0,0.0,0.0,0.0,0.0,0.0,0.0,0.0,0.0,0.0,0.0,0.0,0.0,0.0,0.0,0.0,0.0,0.0,0.0,0.0,0.0,0.0,0.0,0.0,0.0,0.0,0.0,0.0,0.0,0.0,0.0,0.0,0.0,0.0,0.0,0.0,0.0,0.0,0.0,0.0,0.0,0.0,0.0,0.0,0.0,0.0,0.0,0.0,0.0,0.0,0.0,0.0,0.0,0.0,0.0,0.0,0.0,0.0,0.0,0.0,0.0,0.0,0.0,0.0,0.0,0.0,0.0,0.0,0.0,0.0,0.0,0.0,0.0,0.0,0.0,0.0,0.0,0.0,0.0,0.0,0.0,0.0,0.0,0.0,0.0,0.0,0.0,0.0,0.0,0.0,0.0,0.0,0.0,0.0,0.0,0.0,0.0,0.0,0.0,0.0,0.0,0.0,0.0,0.0,3.0706,3.0707,3.0707,3.0697,3.0711,3.0701,0.0,0.0,0.0,0.0,0.0,0.0,0.0,0.0,0.0,0.0,0.0,0.0,0.0,0.0,0.0,0.0,0.0,0.0,0.0,0.0,0.0,0.0,0.0,0.0,0.0,0.0,0.0,0.0,0.0,0.0,0.0,0.0,0.0,0.0,0.0,0.0,0.0,0.0,0.0,0.0,0.0,0.0,0.0,0.0,0.0,0.0,0.0,0.0,0.0,0.0,0.0,0.0,0.0,0.0,0.0,0.0,0.0,0.0,0.0,0.0,0.0,0.0,0.0,0.0,0.0,0.0,0.0,0.0,0.0,0.0,0.0,0.0,0.0,0.0,0.0,0.0,0.0,0.0,0.0,0.0,0.0,0.0,0.0,0.0,0.0,0.0,0.0,0.0,0.0,0.0,0.0,0.0,0.0,0.0,0.0,0.0,0.0,0.0,0.0,0.0,0.0,0.0,0.0,0.0,0.0,0.0,0.0,0.0,3.0702,3.0703,3.0694,3.0695,3.0692,3.0709,0.0,0.0,0.0,0.0,0.0,0.0,0.0,0.0,0.0,0.0,0.0,0.0,0.0,0.0,0.0,0.0,0.0,0.0,0.0,0.0,0.0,0.0,0.0,0.0,0.0,0.0,0.0,0.0,0.0,0.0,0.0,0.0,0.0,0.0,0.0,0.0,0.0,0.0,0.0,0.0,0.0,0.0,0.0,0.0,0.0,0.0,0.0,0.0,0.0,0.0,0.0,0.0,0.0,0.0,0.0,0.0,0.0,0.0,0.0,0.0,0.0,0.0,0.0,0.0,0.0,0.0,0.0,0.0,0.0,0.0,0.0,0.0,0.0,0.0,0.0,0.0,0.0,0.0,0.0,0.0,0.0,0.0,0.0,0.0,0.0,0.0,0.0,0.0,0.0,0.0,0.0,0.0,0.0,0.0,0.0,0.0,0.0,0.0,0.0,0.0,0.0,0.0,0.0,0.0,0.0,0.0,0.0,0.0,0.0,3.0639,3.0676,3.0692,3.0692,3.0692,3.0704,0.0,0.0,0.0,0.0,0.0,0.0,0.0,0.0,0.0,0.0,0.0,0.0,0.0,0.0,0.0,0.0,0.0,0.0,0.0,0.0,0.0,0.0,0.0,0.0,0.0,0.0,0.0,0.0,0.0,0.0,0.0,0.0,0.0,0.0,0.0,0.0,0.0,0.0,0.0,0.0,0.0,0.0,0.0,0.0,0.0,0.0,0.0,0.0,0.0,0.0,0.0,0.0,0.0,0.0,0.0,0.0,0.0,0.0,0.0,0.0,0.0,0.0,0.0,0.0,0.0,0.0,0.0,0.0,0.0,0.0,0.0,0.0,0.0,0.0,0.0,0.0,0.0,0.0,0.0,0.0,0.0,0.0,0.0,0.0,0.0,0.0,0.0,0.0,0.0,0.0,0.0,0.0,0.0,0.0,0.0,0.0,0.0,0.0,0.0,0.0,0.0,0.0,0.0,0.0,0.0,0.0,0.0,0.0,0.0,3.0649,0.0,3.0692,3.0692,3.0692,3.0699,0.0,0.0,0.0,0.0,0.0,0.0,0.0,0.0,0.0,0.0,0.0,0.0,0.0,0.0,0.0,0.0,0.0,0.0,0.0,0.0,0.0,0.0,0.0,0.0,0.0,0.0,0.0,0.0,0.0,0.0,0.0,0.0,0.0,0.0,0.0,0.0,0.0,0.0,0.0,0.0,0.0,0.0,0.0,0.0,0.0,0.0,0.0,0.0,0.0,0.0,0.0,0.0,0.0,0.0,0.0,0.0,0.0,0.0,0.0,0.0,0.0,0.0,0.0,0.0,0.0,0.0,0.0,0.0,0.0,0.0,0.0,0.0,0.0,0.0,0.0,0.0,0.0,0.0,0.0,0.0,0.0,0.0,0.0,0.0,0.0,0.0,0.0,0.0,0.0,0.0,0.0,0.0,0.0,0.0,0.0,0.0,0.0,0.0,0.0,0.0,0.0,0.0,0.0,0.0,0.0,0.0,0.0,0.0,3.0667,3.0729,3.077,3.0809,3.0731,3.0752,3.074,0.0,0.0,0.0,0.0,0.0,0.0,0.0,0.0,0.0,0.0,0.0,0.0,0.0,0.0,0.0,0.0,0.0,0.0,0.0,0.0,0.0,0.0,0.0,0.0,0.0,0.0,0.0,0.0,0.0,0.0,0.0,0.0,0.0,0.0,0.0,0.0,0.0,0.0,0.0,0.0,0.0,0.0,0.0,0.0,0.0,0.0,0.0,0.0,0.0,0.0,0.0,0.0,0.0,0.0,0.0,0.0,0.0,0.0,0.0,0.0,0.0,0.0,0.0,0.0,0.0,0.0,0.0,0.0,0.0,0.0,0.0,0.0,0.0,0.0,0.0,0.0,0.0,0.0,0.0,0.0,0.0,0.0,0.0,0.0,0.0,0.0,0.0,0.0,0.0,0.0,0.0,0.0,0.0,0.0,0.0,0.0,0.0,0.0,0.0,0.0,0.0,0.0,0.0,0.0,0.0,0.0,0.0,0.0,0.0,3.16,3.2186,3.2225,3.1621,3.16,3.1314,0.0,0.0,0.0,0.0,0.0,0.0,0.0,0.0,0.0,0.0,0.0,0.0,0.0,0.0,0.0,0.0,0.0,0.0,0.0,0.0,0.0,0.0,0.0,0.0,0.0,0.0,0.0,0.0,0.0,0.0,0.0,0.0,0.0,0.0,0.0,0.0,0.0,0.0,0.0,0.0,0.0,0.0,0.0,0.0,0.0,0.0,0.0,0.0,0.0,0.0,0.0,0.0,0.0,0.0,0.0,0.0,0.0,0.0,0.0,0.0,0.0,0.0,0.0,0.0,0.0,0.0,0.0,0.0,0.0,0.0,0.0,0.0,0.0,0.0,0.0,0.0,0.0,0.0,0.0,0.0,0.0,0.0,0.0,0.0,0.0,0.0,0.0,0.0,0.0,0.0,0.0,0.0,0.0,0.0,0.0,0.0,0.0,0.0,0.0,0.0,0.0,0.0,0.0,0.0,0.0,0.0,0.0,0.0,0.0,3.3386,3.333,3.3041,3.2512,3.2182,3.1737,3.1195,0.0,0.0,0.0,0.0,0.0,0.0,0.0,0.0,0.0,0.0,0.0,0.0,0.0,0.0,0.0,0.0,0.0,0.0,0.0,0.0,0.0,0.0,0.0,0.0,0.0,0.0,0.0,0.0,0.0,0.0,0.0,0.0,0.0,0.0,0.0,0.0,0.0,0.0,0.0,0.0,0.0,0.0,0.0,0.0,0.0,0.0,0.0,0.0,0.0,0.0,0.0,0.0,0.0,0.0,0.0,0.0,0.0,0.0,0.0,0.0,0.0,0.0,0.0,0.0,0.0,0.0,0.0,0.0,0.0,0.0,0.0,0.0,0.0,0.0,0.0,0.0,0.0,0.0,0.0,0.0,0.0,0.0,0.0,0.0,0.0,0.0,0.0,0.0,0.0,0.0,0.0,0.0,0.0,0.0,0.0,0.0,0.0,0.0,0.0,0.0,0.0,0.0,0.0,0.0,0.0,0.0,0.0,0.0,3.5775,3.4361,3.3565,3.3431,3.2668,3.2141,0.0,0.0,0.0,0.0,0.0,0.0,0.0,0.0,0.0,0.0,0.0,0.0,0.0,0.0,0.0,0.0,0.0,0.0,0.0,0.0,0.0,0.0,0.0,0.0,0.0,0.0,0.0,0.0,0.0,0.0,0.0,0.0,0.0,0.0,0.0,0.0,0.0,0.0,0.0,0.0,0.0,0.0,0.0,0.0,0.0,0.0,0.0,0.0,0.0,0.0,0.0,0.0,0.0,0.0,0.0,0.0,0.0,0.0,0.0,0.0,0.0,0.0,0.0,0.0,0.0,0.0,0.0,0.0,0.0,0.0,0.0,0.0,0.0,0.0,0.0,0.0,0.0,0.0,0.0,0.0,0.0,0.0,0.0,0.0,0.0,0.0,0.0,0.0,0.0,0.0,0.0,0.0,0.0,0.0,0.0,0.0,0.0,0.0,0.0,0.0,0.0,0.0,0.0,0.0,0.0,0.0,0.0,0.0,0.0,3.5775,3.6617,3.6459,3.5193,3.4921,3.3911,0.0,0.0,0.0,0.0,0.0,0.0,0.0,0.0,0.0,0.0,0.0,0.0,0.0,0.0,0.0,0.0,0.0,0.0,0.0,0.0,0.0,0.0,0.0,0.0,0.0,0.0,0.0,0.0,0.0,0.0,0.0,0.0,0.0,0.0,0.0,0.0,0.0,0.0,0.0,0.0,0.0,0.0,0.0,0.0,0.0,0.0,0.0,0.0,0.0,0.0,0.0,0.0,0.0,0.0,0.0,0.0,0.0,0.0,0.0,0.0,0.0,0.0,0.0,0.0,0.0,0.0,0.0,0.0,0.0,0.0,0.0,0.0,0.0,0.0,0.0,0.0,0.0,0.0,0.0,0.0,0.0,0.0,0.0,0.0,0.0,0.0,0.0,0.0,0.0,0.0,0.0,0.0,0.0,0.0,0.0,0.0,0.0,0.0,0.0,0.0,0.0,0.0,0.0,0.0,0.0,0.0,0.0,0.0,3.5663,3.6887,3.8227,3.846,3.7465,3.6379,3.494,0.0,0.0,0.0,0.0,0.0,0.0,0.0,0.0,0.0,0.0,0.0,0.0,0.0,0.0,0.0,0.0,0.0,0.0,0.0,0.0,0.0,0.0,0.0,0.0,0.0,0.0,0.0,0.0,0.0,0.0,0.0,0.0,0.0,0.0,0.0,0.0,0.0,0.0,0.0,0.0,0.0,0.0,0.0,0.0,0.0,0.0,0.0,0.0,0.0,0.0,0.0,0.0,0.0,0.0,0.0,0.0,0.0,0.0,0.0,0.0,0.0,0.0,0.0,0.0,0.0,0.0,0.0,0.0,0.0,0.0,0.0,0.0,0.0,0.0,0.0,0.0,0.0,0.0,0.0,0.0,0.0,0.0,0.0,0.0,0.0,0.0,0.0,0.0,0.0,0.0,0.0,0.0,0.0,0.0,0.0,0.0,0.0,0.0,0.0,0.0,0.0,0.0,0.0,0.0,0.0,0.0,0.0,0.0,3.6733,3.835,3.9339,3.9839,3.9759,3.7387,3.5603,0.0,0.0,0.0,0.0,0.0,0.0,0.0,0.0,0.0,0.0,0.0,0.0,0.0,0.0,0.0,0.0,0.0,0.0,0.0,0.0,0.0,0.0,0.0,0.0,0.0,0.0,0.0,0.0,0.0,0.0,0.0,0.0,0.0,0.0,0.0,0.0,0.0,0.0,0.0,0.0,0.0,0.0,0.0,0.0,0.0,0.0,0.0,0.0,0.0,0.0,0.0,0.0,0.0,0.0,0.0,0.0,0.0,0.0,0.0,0.0,0.0,0.0,0.0,0.0,0.0,0.0,0.0,0.0,0.0,0.0,0.0,0.0,0.0,0.0,0.0,0.0,0.0,0.0,0.0,0.0,0.0,0.0,0.0,0.0,0.0,0.0,0.0,0.0,0.0,0.0,0.0,0.0,0.0,0.0,0.0,0.0,0.0,0.0,0.0,0.0,0.0,0.0,0.0,0.0,0.0,0.0,0.0,0.0,3.7323,3.839,3.9909,4.0697,4.0635,3.8831,3.712,0.0,0.0,0.0,0.0,0.0,0.0,0.0,0.0,0.0,0.0,0.0,0.0,0.0,0.0,0.0,0.0,0.0,0.0,0.0,0.0,0.0,0.0,0.0,0.0,0.0,0.0,0.0,0.0,0.0,0.0,0.0,0.0,0.0,0.0,0.0,0.0,0.0,0.0,0.0,0.0,0.0,0.0,0.0,0.0,0.0,0.0,0.0,0.0,3.3051,0.0,0.0,0.0,0.0,0.0,0.0,0.0,0.0,0.0,0.0,0.0,0.0,0.0,0.0,0.0,0.0,0.0,0.0,0.0,0.0,0.0,0.0,0.0,0.0,0.0,0.0,0.0,0.0,0.0,0.0,0.0,0.0,0.0,0.0,0.0,0.0,0.0,0.0,0.0,0.0,0.0,0.0,0.0,0.0,0.0,0.0,0.0,0.0,0.0,0.0,0.0,0.0,0.0,0.0,0.0,0.0,0.0,0.0,0.0,3.8117,3.8999,4.0325,4.0976,4.0849,3.9664,3.8188,0.0,0.0,0.0,0.0,0.0,0.0,0.0,0.0,0.0,0.0,0.0,0.0,0.0,0.0,0.0,0.0,0.0,0.0,0.0,0.0,0.0,0.0,0.0,0.0,0.0,0.0,0.0,0.0,0.0,0.0,0.0,0.0,0.0,0.0,0.0,0.0,0.0,0.0,0.0,0.0,0.0,0.0,0.0,0.0,0.0,0.0,0.0,0.0,0.0,0.0,0.0,0.0,0.0,0.0,0.0,0.0,0.0,0.0,0.0,0.0,0.0,0.0,0.0,0.0,0.0,0.0,0.0,0.0,0.0,0.0,0.0,0.0,0.0,0.0,0.0,0.0,0.0,0.0,0.0,0.0,0.0,0.0,0.0,0.0,0.0,0.0,0.0,0.0,0.0,0.0,0.0,0.0,0.0,0.0,0.0,0.0,0.0,0.0,0.0,0.0,0.0,0.0,0.0,0.0,0.0,0.0,0.0,3.7186,3.883,3.9692,4.055,4.0963,4.0897,4.0116,3.9006,3.7547,0.0,0.0,0.0,0.0,0.0,0.0,0.0,0.0,0.0,0.0,0.0,0.0,0.0,0.0,0.0,0.0,0.0,0.0,0.0,0.0,0.0,0.0,0.0,0.0,0.0,0.0,0.0,0.0,0.0,0.0,0.0,0.0,0.0,0.0,0.0,0.0,0.0,0.0,3.1454,3.2288,0.0,0.0,0.0,0.0,0.0,0.0,0.0,0.0,3.6462,0.0,0.0,0.0,0.0,0.0,0.0,0.0,0.0,0.0,0.0,0.0,0.0,0.0,0.0,0.0,0.0,0.0,0.0,0.0,0.0,0.0,0.0,0.0,0.0,0.0,0.0,0.0,0.0,0.0,0.0,0.0,0.0,0.0,0.0,0.0,0.0,0.0,0.0,0.0,0.0,0.0,0.0,0.0,0.0,0.0,0.0,0.0,0.0,0.0,0.0,0.0,0.0,0.0,0.0,0.0,0.0,3.5689,3.7537,3.888,3.9694,4.0551,4.0982,4.0963,4.0142,3.9568,3.9159,0.0,0.0,0.0,0.0,0.0,0.0,0.0,0.0,0.0,0.0,0.0,0.0,0.0,0.0,0.0,0.0,0.0,0.0,0.0,0.0,0.0,0.0,0.0,0.0,0.0,0.0,0.0,0.0,0.0,0.0,0.0,0.0,0.0,0.0,0.0,0.0,0.0,0.0,0.0,3.3979,3.4491,0.0,0.0,0.0,0.0,0.0,0.0,0.0,0.0,3.6491,0.0,0.0,0.0,0.0,0.0,0.0,0.0,0.0,0.0,0.0,0.0,0.0,0.0,0.0,0.0,0.0,0.0,0.0,0.0,0.0,0.0,0.0,0.0,0.0,0.0,0.0,0.0,0.0,0.0,0.0,0.0,0.0,0.0,0.0,0.0,0.0,0.0,0.0,0.0,0.0,0.0,0.0,0.0,0.0,0.0,0.0,0.0,0.0,0.0,0.0,0.0,0.0,0.0,0.0,0.0,3.6522,3.7846,3.9127,4.0346,4.1222,4.1457,4.1028,4.1006,4.0371,0.0,0.0,0.0,0.0,0.0,0.0,0.0,0.0,0.0,0.0,0.0,0.0,0.0,0.0,0.0,0.0,0.0,0.0,0.0,0.0,0.0,0.0,0.0,0.0,0.0,0.0,0.0,0.0,0.0,0.0,0.0,0.0,0.0,0.0,0.0,0.0,0.0,0.0,0.0,0.0,3.5784,3.6713,3.6258,0.0,0.0,0.0,0.0,0.0,0.0,3.8376,3.8111,0.0,0.0,0.0,0.0,0.0,0.0,0.0,0.0,0.0,0.0,0.0,0.0,0.0,0.0,0.0,0.0,0.0,0.0,0.0,0.0,0.0,0.0,0.0,0.0,0.0,0.0,0.0,0.0,0.0,0.0,0.0,0.0,0.0,0.0,0.0,0.0,0.0,0.0,0.0,0.0,0.0,0.0,0.0,0.0,0.0,0.0,0.0,0.0,0.0,0.0,0.0,0.0,0.0,0.0,0.0,3.7389,3.8498,3.9758,4.1227,4.2103,4.2243,4.1546,4.1987,4.1179,0.0,0.0,0.0,0.0,0.0,0.0,0.0,0.0,0.0,0.0,0.0,0.0,0.0,0.0,0.0,0.0,0.0,0.0,0.0,0.0,0.0,0.0,0.0,0.0,0.0,0.0,0.0,0.0,0.0,0.0,0.0,0.0,0.0,0.0,0.0,0.0,0.0,0.0,0.0,0.0,0.0,3.8443,3.7775,3.8557,0.0,0.0,0.0,0.0,3.9163,3.9475,0.0,0.0,0.0,0.0,0.0,0.0,0.0,0.0,0.0,0.0,0.0,0.0,0.0,0.0,0.0,0.0,0.0,0.0,0.0,0.0,0.0,0.0,0.0,0.0,0.0,0.0,0.0,0.0,0.0,0.0,0.0,0.0,0.0,0.0,0.0,0.0,0.0,0.0,0.0,0.0,0.0,0.0,0.0,0.0,0.0,0.0,0.0,0.0,0.0,0.0,0.0,0.0,0.0,0.0,0.0,0.0,3.8305,3.9961,4.1244,4.2138,4.2995,4.3415,4.33,4.2638,4.1781,0.0,0.0,0.0,0.0,0.0,0.0,0.0,0.0,0.0,0.0,0.0,0.0,0.0,0.0,0.0,0.0,0.0,0.0,0.0,0.0,0.0,0.0,0.0,0.0,0.0,0.0,0.0,0.0,0.0,0.0,0.0,0.0,0.0,0.0,0.0,0.0,0.0,0.0,0.0,0.0,0.0,3.8657,3.8557,3.9897,4.0366,0.0,0.0,4.0038,4.0777,3.9759,0.0,0.0,0.0,0.0,0.0,0.0,0.0,0.0,0.0,0.0,0.0,0.0,0.0,0.0,0.0,0.0,0.0,0.0,0.0,0.0,0.0,0.0,0.0,0.0,0.0,0.0,0.0,0.0,0.0,0.0,0.0,0.0,0.0,0.0,0.0,0.0,0.0,0.0,0.0,0.0,0.0,0.0,0.0,0.0,0.0,0.0,0.0,0.0,0.0,0.0,0.0,0.0,0.0,0.0,0.0,3.6124,3.9161,4.0466,4.1731,4.3017,4.3895,4.4102,4.3619,4.3238,4.2169,0.0,0.0,0.0,0.0,0.0,0.0,0.0,0.0,0.0,0.0,0.0,0.0,0.0,0.0,0.0,0.0,0.0,0.0,0.0,0.0,0.0,0.0,0.0,0.0,0.0,0.0,0.0,0.0,0.0,0.0,0.0,0.0,0.0,0.0,0.0,0.0,0.0,0.0,0.0,0.0,0.0,0.0,4.0119,4.1143,0.0,0.0,0.0,4.0777,4.1137,0.0,0.0,0.0,0.0,0.0,0.0,0.0,0.0,0.0,0.0,0.0,0.0,0.0,0.0,0.0,0.0,0.0,0.0,0.0,0.0,0.0,0.0,0.0,0.0,0.0,0.0,0.0,0.0,0.0,0.0,0.0,0.0,0.0,0.0,0.0,0.0,0.0,0.0,0.0,0.0,0.0,0.0,0.0,0.0,0.0,0.0,0.0,0.0,0.0,0.0,0.0,0.0,0.0,0.0,0.0,0.0,0.0,3.9727,4.107,4.2453,4.3895,4.4775,4.4926,4.4269,4.3835,0.0,0.0,0.0,0.0,0.0,0.0,0.0,0.0,0.0,0.0,0.0,0.0,0.0,0.0,0.0,0.0,0.0,0.0,0.0,0.0,0.0,0.0,0.0,0.0,0.0,0.0,0.0,3.2785,0.0,0.0,0.0,0.0,0.0,0.0,0.0,0.0,0.0,0.0,0.0,0.0,0.0,0.0,4.0948,4.1175,4.2066,4.2426,0.0,0.0,4.1573,4.1781,4.2141,4.2217,0.0,0.0,0.0,0.0,0.0,0.0,0.0,0.0,0.0,0.0,0.0,0.0,0.0,0.0,0.0,0.0,0.0,0.0,0.0,0.0,0.0,0.0,0.0,0.0,0.0,0.0,0.0,0.0,0.0,0.0,0.0,0.0,0.0,0.0,0.0,0.0,0.0,0.0,0.0,0.0,0.0,0.0,0.0,0.0,0.0,0.0,0.0,0.0,0.0,0.0,0.0,0.0,0.0,0.0,0.0,3.9765,4.22,4.3875,4.4795,4.5671,4.6081,4.6001,4.4446,4.313,0.0,0.0,0.0,0.0,0.0,0.0,0.0,0.0,0.0,0.0,0.0,0.0,0.0,0.0,0.0,0.0,0.0,0.0,0.0,0.0,0.0,0.0,0.0,0.0,0.0,0.0,0.0,0.0,0.0,0.0,0.0,0.0,0.0,0.0,0.0,0.0,0.0,0.0,0.0,0.0,0.0,4.0303,4.1094,4.2577,4.3303,0.0,0.0,4.2596,4.3417,4.288,4.2388,4.2331,0.0,0.0,0.0,0.0,0.0,0.0,0.0,0.0,0.0,0.0,0.0,0.0,0.0,0.0,0.0,0.0,0.0,0.0,0.0,0.0,0.0,0.0,0.0,0.0,0.0,0.0,0.0,0.0,0.0,0.0,0.0,0.0,0.0,0.0,0.0,0.0,0.0,0.0,0.0,0.0,0.0,0.0,0.0,0.0,0.0,0.0,0.0,0.0,0.0,0.0,0.0,0.0,0.0,3.7448,4.0563,4.2588,4.4285,4.5652,4.6024,4.6197,4.6197,4.5043,4.3727,0.0,0.0,0.0,0.0,0.0,0.0,0.0,0.0,0.0,0.0,0.0,0.0,0.0,0.0,0.0,0.0,0.0,0.0,0.0,0.0,0.0,0.0,0.0,0.0,0.0,0.0,0.0,0.0,3.7782,3.8535,3.7993,0.0,0.0,0.0,0.0,0.0,0.0,0.0,0.0,0.0,0.0,4.1194,4.2545,4.3303,0.0,0.0,4.3208,4.3316,4.3644,4.3828,4.3777,4.3278,4.1952,0.0,0.0,0.0,0.0,0.0,0.0,0.0,0.0,0.0,0.0,0.0,0.0,0.0,0.0,0.0,0.0,0.0,0.0,0.0,0.0,0.0,0.0,0.0,0.0,0.0,0.0,0.0,0.0,0.0,0.0,0.0,0.0,0.0,0.0,0.0,0.0,0.0,0.0,0.0,0.0,0.0,0.0,0.0,0.0,0.0,0.0,0.0,0.0,0.0,0.0,0.0,0.0,3.7623,4.105,4.2744,4.444,4.6178,4.6197,4.6197,4.6178,4.534,4.4322,0.0,0.0,0.0,0.0,0.0,0.0,0.0,0.0,0.0,0.0,0.0,0.0,0.0,0.0,0.0,0.0,0.0,0.0,0.0,0.0,0.0,0.0,0.0,0.0,0.0,0.0,0.0,0.0,3.8293,3.8373,3.7248,0.0,0.0,0.0,0.0,0.0,0.0,0.0,0.0,0.0,0.0,4.1819,4.3455,4.391,4.4061,4.4061,4.4061,4.3979,4.3739,4.4175,4.4264,4.343,0.0,0.0,0.0,0.0,0.0,0.0,0.0,0.0,0.0,0.0,0.0,0.0,0.0,0.0,0.0,0.0,0.0,0.0,0.0,0.0,0.0,0.0,0.0,0.0,0.0,0.0,0.0,0.0,0.0,0.0,2.9631,0.0,0.0,0.0,0.0,0.0,0.0,0.0,0.0,0.0,0.0,0.0,0.0,0.0,0.0,0.0,0.0,0.0,0.0,0.0,0.0,0.0,0.0,3.7623,4.107,4.2744,4.444,4.6139,4.6197,4.6197,4.6178,4.536,4.4872,4.4795,0.0,0.0,0.0,0.0,0.0,0.0,0.0,0.0,0.0,0.0,0.0,0.0,0.0,0.0,0.0,0.0,0.0,0.0,0.0,0.0,0.0,0.0,0.0,0.0,0.0,0.0,3.8904,3.8407,3.7248,0.0,0.0,0.0,0.0,0.0,0.0,0.0,0.0,0.0,0.0,4.0644,4.1819,4.3493,4.4364,4.4838,4.4838,4.4851,4.4592,4.3815,4.372,4.343,0.0,0.0,0.0,0.0,0.0,0.0,0.0,0.0,0.0,0.0,0.0,0.0,0.0,0.0,0.0,0.0,0.0,0.0,0.0,0.0,0.0,0.0,0.0,0.0,0.0,0.0,0.0,3.2524,3.2475,0.0,0.0,0.0,0.0,0.0,0.0,0.0,0.0,0.0,0.0,0.0,3.8013,3.6608,0.0,0.0,0.0,0.0,0.0,0.0,0.0,0.0,0.0,0.0,0.0,0.0,3.7603,4.0992,4.2744,4.444,4.6139,4.6197,4.6197,4.6197,4.5925,4.5477,4.4911,0.0,0.0,0.0,0.0,0.0,0.0,0.0,0.0,0.0,0.0,0.0,0.0,0.0,0.0,0.0,0.0,0.0,0.0,0.0,0.0,0.0,0.0,0.0,0.0,0.0,3.8264,0.0,0.0,0.0,0.0,0.0,0.0,0.0,0.0,0.0,0.0,0.0,3.7599,4.0398,4.1473,4.2615,4.4264,4.4743,4.4895,0.0,0.0,0.0,0.0,0.0,0.0,0.0,0.0,0.0,0.0,0.0,0.0,0.0,0.0,4.1067,3.938,3.9053,3.9053,3.9072,0.0,0.0,0.0,0.0,0.0,0.0,0.0,0.0,0.0,0.0,0.0,0.0,0.0,0.0,3.4262,0.0,3.3358,0.0,0.0,0.0,0.0,0.0,0.0,0.0,0.0,3.7732,3.9018,4.0636,3.9214,3.9001,0.0,3.8436,3.7184,0.0,0.0,0.0,0.0,0.0,0.0,0.0,0.0,3.8363,4.144,4.3194,4.4734,4.6119,4.6197,4.6197,4.6197,4.6197,4.579,4.4931,4.3312,4.2026,0.0,0.0,0.0,0.0,0.0,0.0,0.0,0.0,0.0,0.0,0.0,0.0,0.0,0.0,0.0,0.0,0.0,0.0,0.0,0.0,0.0,0.0,0.0,3.871,0.0,0.0,0.0,0.0,0.0,0.0,0.0,0.0,0.0,3.6164,3.7409,3.9096,4.1327,4.2066,4.2918,4.4289,0.0,0.0,0.0,0.0,0.0,0.0,0.0,4.3701,4.3701,4.3929,4.4213,4.4516,4.4326,4.4232,4.4516,0.0,0.0,4.2066,4.163,4.1649,4.1649,4.1643,4.1643,4.1643,4.2085,4.2577,0.0,0.0,0.0,0.0,0.0,0.0,0.0,0.0,3.5744,3.6117,0.0,3.5157,0.0,0.0,0.0,0.0,0.0,3.5298,0.0,0.0,3.9529,4.0837,4.2343,4.1564,4.1623,4.2386,4.1547,4.1139,4.0952,3.7869,0.0,0.0,0.0,0.0,0.0,0.0,3.9844,4.2354,4.413,4.5418,4.6275,4.6314,4.6314,4.6334,4.6314,4.5926,4.5089,4.4972,4.3801,4.1421,4.1187,0.0,0.0,0.0,0.0,0.0,0.0,0.0,0.0,0.0,0.0,0.0,0.0,0.0,0.0,0.0,0.0,0.0,0.0,0.0,0.0,3.9129,0.0,0.0,0.0,0.0,0.0,0.0,0.0,0.0,0.0,0.0,3.8619,3.9451,4.0563,4.2217,0.0,0.0,0.0,0.0,4.4023,4.4781,4.4895,4.4611,4.3872,4.3777,4.3815,4.3815,0.0,0.0,4.6095,4.6853,4.7081,4.6417,4.6872,4.6929,4.535,4.4933,4.4895,4.4895,4.4876,4.4971,4.4952,4.4838,4.5141,3.9198,0.0,0.0,0.0,0.0,3.7202,3.8017,3.9184,3.9433,3.955,3.9459,3.7957,0.0,0.0,0.0,0.0,0.0,0.0,3.9537,4.1229,4.2119,4.3111,4.414,4.3288,4.3362,4.4209,4.3355,4.2957,4.2905,4.1972,4.0113,3.7474,0.0,0.0,0.0,0.0,4.1617,4.4093,4.5886,4.7191,4.8047,4.8068,4.8048,4.8068,4.8048,4.7951,4.7678,4.649,4.5498,4.4754,4.294,0.0,0.0,0.0,0.0,0.0,0.0,0.0,0.0,0.0,0.0,0.0,0.0,0.0,0.0,0.0,0.0,0.0,0.0,0.0,4.0833,4.031,3.9112,0.0,0.0,0.0,0.0,0.0,0.0,0.0,0.0,0.0,4.1124,4.1023,4.144,0.0,0.0,4.3619,4.444,4.4554,4.4649,4.487,4.4895,0.0,0.0,4.5085,4.5489,4.5483,4.6171,4.6759,4.6999,4.727,4.7536,4.7877,4.8161,4.8338,4.8426,4.7472,4.674,4.6676,4.6676,4.6676,4.6683,4.6676,4.6759,4.3301,4.1717,3.9035,3.8515,3.9447,3.977,4.0507,4.1498,4.184,4.1998,4.1909,4.0526,3.9908,3.9877,3.8526,0.0,0.0,0.0,4.1653,4.3307,4.3876,4.4756,4.5831,4.5383,4.5623,4.6457,4.6005,4.574,4.5722,4.5738,4.4495,4.2071,0.0,0.0,4.0098,4.1748,4.3538,4.5391,4.7136,4.8282,4.8789,4.8808,4.8808,4.8808,4.8808,4.8808,4.8789,4.7795,4.7074,4.6704,4.489,4.331,0.0,0.0,0.0,0.0,0.0,0.0,0.0,0.0,0.0,0.0,0.0,3.6268,0.0,0.0,0.0,0.0,4.072,4.1805,4.2148,4.1091,0.0,0.0,0.0,0.0,0.0,0.0,0.0,3.899,4.0174,4.158,4.3152,4.3278,4.3316,4.3663,4.3966,4.4364,4.4838,0.0,4.552,4.5843,4.5906,4.5899,4.5899,4.6316,4.6796,4.7138,4.7574,4.8047,4.8351,4.8389,4.8585,4.904,4.9185,4.9317,4.981,4.9052,4.8389,4.8389,4.8408,4.8389,4.8408,4.8389,4.8408,4.7392,4.7065,4.322,4.1585,4.1563,4.2304,4.2647,4.2762,4.3498,4.3795,4.3738,4.2881,4.2544,4.254,4.176,0.0,4.2695,4.2695,4.3573,4.5099,4.5159,4.6039,4.7563,4.7595,4.8017,4.8776,4.8866,4.8866,4.8761,4.8769,4.8386,4.7519,4.4395,4.2769,4.2794,4.4226,4.5466,4.6401,4.8059,4.8945,4.9003,4.9001,4.9001,4.9023,4.8925,4.8906,4.8904,4.8769,4.8319,4.7522,4.6665,4.5436,4.3776,0.0,0.0,0.0,0.0,0.0,0.0,0.0,0.0,0.0,0.0,0.0,0.0,0.0,0.0,0.0,4.2356,0.0,4.322,4.1755,0.0,0.0,0.0,3.9898,4.062,4.0702,4.0955,4.1646,0.0,0.0,4.4925,4.5823,4.5729,4.4231,4.4655,4.5103,4.5103,4.5811,4.6556,4.722,4.7447,4.7485,4.7435,4.7561,4.7915,4.8597,4.8793,4.9052,4.964,4.9798,4.9874,4.9836,4.9893,4.9893,4.9893,4.9836,4.9893,4.9817,4.9836,4.9855,4.9779,4.976,4.9741,4.8308,4.8191,4.7212,4.642,4.5835,4.6004,4.6451,4.7034,4.6599,4.6385,4.6332,4.5482,4.5123,4.5162,4.4931,4.5306,4.6175,4.6136,4.6692,4.7669,4.7714,4.7972,4.8401,4.8449,4.8587,4.8785,4.8867,4.8884,4.8878,4.8832,4.869,4.8434,4.7042,4.6014,4.533,4.5698,4.6649,4.8169,4.9245,5.0086,5.0677,5.0696,5.0696,5.0694,5.0053,4.9722,4.9683,4.8495,4.7717,4.7483,4.6665,4.571,4.4637,4.296,0.0,0.0,0.0,0.0,0.0,0.0,0.0,0.0,0.0,3.7815,3.9994,0.0,4.1717,0.0,4.37,4.423,4.4248,4.387,0.0,0.0,4.303,4.3223,4.3361,4.3856,4.4454,4.5185,4.5404,4.587,4.6849,4.7147,4.7128,4.6729,4.6752,4.679,4.6815,4.7011,4.7245,4.7511,4.8068,4.8466,4.8504,4.8952,4.9336,4.9583,4.9602,4.9677,4.9874,4.9893,4.9893,4.9893,4.9893,4.9893,4.9893,4.9893,4.9893,4.9893,4.9893,4.9893,4.9893,4.9893,4.9893,4.9765,4.9765,4.9765,4.9471,4.8985,4.823,4.8172,4.8541,4.8075,4.7881,4.7842,4.7376,4.717,4.72,4.7189,4.7464,4.7922,4.7886,4.8133,4.8583,4.859,4.8839,4.9276,4.9346,4.9567,4.9941,4.9979,5.0012,5.0003,4.9979,4.9957,4.9938,4.9132,4.8264,4.7375,4.6979,4.7249,4.8223,4.9477,5.0498,5.1307,5.0967,5.0747,5.0747,4.9921,4.9449,4.9449,4.8553,4.8066,4.8066,4.725,4.6548,4.6061,4.4405,4.2473,0.0,0.0,0.0,0.0,0.0,0.0,0.0,0.0,0.0,0.0,0.0,4.3337,4.4542,4.5351,4.5959,4.6335,4.6028,4.5712,4.5546,4.5545,4.5657,4.5958,4.6311,4.6651,4.7038,4.7364,4.7713,4.8128,4.8496,4.8705,4.8705,4.8663,4.8473,4.8194,4.839,4.8663,4.8701,4.9062,4.9366,4.9385,4.9694,4.9933,4.9926,4.9932,4.9893,4.9893,4.9893,4.9893,4.9893,4.9893,4.9893,4.9893,4.9893,4.9893,4.9893,4.9893,4.9893,4.9893,4.9893,4.9893,5.1177,5.1199,5.1199,5.1199,5.1086,4.9571,4.893,4.893,4.8813,4.8758,4.8758,4.8774,4.8832,4.893,4.893,4.893,4.893,4.893,4.893,4.8932,4.8921,4.9364,5.0153,5.0224,5.0644,5.1367,5.1402,5.1392,5.1394,5.1394,5.1394,5.1375,5.0535,4.9715,4.8974,4.8105,4.767,4.7688,4.9375,5.0636,5.1355,5.0561,5.0103,5.0064,4.9154,4.8638,4.8619,4.8424,4.8346,4.8426,4.7625,4.7218,4.7274,4.5776,4.4178,0.0,4.1716,0.0,0.0,0.0,0.0,0.0,0.0,0.0,0.0,4.3277,4.4847,4.6304,4.7077,4.7802,4.8541,4.792,4.778,4.8467,4.7839,4.7633,4.8348,4.8336,4.8208,4.8168,4.8758,4.9171,4.9123,4.9708,5.0126,5.0044,4.998,4.9746,4.9289,4.9606,4.9987,5.0114,5.0114,5.0,5.0019,5.0031,4.9999,4.9992,4.9978,4.9913,4.992,4.9913,4.9925,4.9925,4.9918,4.9893,4.9893,4.9893,4.9893,4.9893,4.9893,4.9893,4.9893,4.9893,4.9893,5.1139,5.1199,5.1199,5.1199,5.116,5.0833,5.0714,5.0655,4.9962,4.9651,4.9651,4.9651,5.0037,5.0694,5.0697,5.0717,5.0697,5.0714,5.0717,5.0717,5.0709,5.0826,5.1049,5.1084,5.1171,5.1387,5.1402,5.1392,5.1394,5.1394,5.1394,5.1375,5.0535,5.0007,4.9812,0.0,0.0,0.0,5.0262,5.1231,5.1355,5.0553,5.0103,5.0065,4.8559,0.0,4.7699,4.6391,4.5982,4.6627,4.5865,0.0,0.0,0.0,0.0,0.0,0.0,0.0,0.0,0.0,0.0,0.0,4.5808,4.5806,4.5338,4.6764,4.7851,4.8197,4.8346,4.8499,4.8655,4.8533,4.8761,4.9498,4.9346,4.9485,5.0241,5.0196,5.007,5.0005,5.0068,5.0096,5.0024,5.0165,5.0261,5.0255,5.0261,5.0209,5.0051,5.0085,5.0175,5.0194,5.0194,5.0151,5.0108,5.0095,5.0082,5.0082,5.0076,5.0063,5.0057,5.0018,4.9966,4.9966,4.9926,4.9893,4.9893,4.9893,4.9893,4.9893,4.9893,4.9893,4.9893,4.9893,4.9893,5.1118,0.0,5.1153,5.1153,0.0,5.1153,5.1139,5.1123,5.073,5.0542,5.0545,5.0542,5.0775,5.1199,5.1199,5.1199,5.1199,5.1199,5.1199,5.1202,5.1217,5.1232,5.13,5.13,5.1328,5.1387,5.1403,5.1392,5.1394,5.1394,5.1394,5.1394,5.0944,5.0535,5.0104,4.9676,4.9439,4.9452,5.0312,5.0973,5.1318,5.0122,4.9455,4.9417,0.0,0.0,0.0,0.0,0.0,0.0,0.0,0.0,0.0,0.0,0.0,4.5536,4.5156,4.5087,4.5487,4.5538,4.6098,4.7384,4.8263,4.8378,4.7542,4.8253,4.8925,4.9285,4.9342,4.9536,4.9945,4.9993,5.0128,5.0472,5.046,5.057,5.0856,5.0788,5.0644,5.0553,5.0443,5.0379,5.0308,5.0296,5.0296,5.0296,5.0296,5.0296,5.0296,5.0273,5.0255,5.0255,5.0236,5.0224,5.0207,5.017,5.0158,5.0151,5.0126,5.0101,5.0101,5.0076,5.0044,5.0011,4.9978,4.9952,4.9918,4.9893,4.9893,4.9893,4.9893,4.9893,4.9893,4.9893,4.9893,5.1094,5.1078,5.1081,5.1081,5.1081,5.1095,5.1089,5.1111,0.0,0.0,0.0,5.1199,5.1199,5.1199,5.1199,5.1199,5.1199,5.1199,5.1199,5.1202,5.12,5.1237,5.1302,5.1302,5.1349,5.1387,5.1402,5.1392,5.1394,5.1394,5.1394,5.1394,5.1394,5.1022,5.0358,5.0338,5.0338,5.0319,5.0319,5.0671,5.1316,4.9844,4.902,4.9039,4.7489,4.6644,4.6664,4.6526,4.6526,4.6664,4.6526,4.6838,4.7656,4.7735,4.7734,4.7734,4.7722,4.7788,4.7959,4.7963,4.8323,4.9177,4.9839,4.9878,4.9079,4.9138,4.9527,5.017,5.0229,5.0521,5.124,5.1306,5.1265,5.1218,5.1147,5.1085,5.1004,5.0857,5.0702,5.0599,5.0489,5.0396,5.0308,5.0296,5.0296,5.0296,5.0296,5.0296,5.0296,5.0296,5.0296,5.0296,5.029,5.0296,5.029,5.0255,5.0212,5.0225,5.0182,5.0139,5.0133,5.0126,5.0101,5.0044,5.0037,4.9998,4.9945,4.9913,4.9899,4.9893,4.9893,4.9893,4.9893,4.9893,4.9893,5.105,5.1081,5.1081,5.1081,5.1081,5.1085,5.1085,5.1111,5.1172,5.1199,5.1199,5.1199,5.1199,5.1199,5.1199,5.1199,5.1199,5.1199,5.1199,5.1202,5.1219,5.1234,5.1302,5.1369,5.1392,5.1387,5.1402,5.1392,5.1396,5.1394,5.1394,5.1394,5.1394,5.1316,5.1238,5.1219,5.1219,5.1219,5.1219,5.1258,5.1375,5.0436,4.9908,4.9869,4.8951,4.8424,4.8424,4.7758,4.774,4.8385,4.7779,4.7779,4.856,4.8618,4.8634,4.8606,4.8623,4.8942,4.9674,4.9746,5.007,5.0854,5.1045,5.0755,4.9956,5.0521,5.0989,5.1123,5.1086,5.1145,5.13,5.1296,5.1306,5.1265,5.1234,5.1125,5.1026,5.0921,5.079,5.0628,5.0527,5.0421,5.0319,5.0296,5.0296,5.0296,5.0296,5.0296,5.0296,5.0296,5.0296,5.0296,5.0296,5.0296,5.0296,5.0296,5.0278,5.029,5.0273,5.0236,5.0255,5.0225,5.0194,5.0163,5.0133,5.007,5.0005,4.9992,4.9972,4.9939,4.9925,4.9918,4.9925,4.9937,4.995,5.1389,5.1013,5.0998,5.0994,5.0998,5.1023,5.106,5.1101,5.1134,5.1147,5.115,5.1146,5.1139,5.1139,5.1174,5.1199,5.1199,5.1199,5.1199,5.1205,5.1205,5.1236,5.1304,5.1364,5.1387,5.1386,5.1385,5.1398,5.1385,5.1397,5.1394,5.1394,5.1394,5.1394,5.1394,5.1394,5.1394,5.1394,5.1394,5.1394,5.1394,5.0554,5.0104,5.0085,4.9267,4.8798,4.8798,4.8446,4.8426,4.8798,4.8446,4.8623,4.9441,4.95,4.9732,5.0178,5.0212,5.0378,5.0774,5.0774,5.0897,5.1278,5.1306,5.1143,5.0733,5.1065,5.13,5.13,5.13,5.13,5.13,5.13,5.1296,5.1308,5.1244,5.1164,5.1063,5.0959,5.0823,5.0625,5.0534,5.0457,5.0314,5.0296,5.0296,5.0296,5.0296,5.0296,5.0296,5.0296,5.0296,5.0296,5.0296,5.0296,5.0296,5.0296,5.0296,5.0296,5.0296,5.0296,5.0296,5.0273,5.0249,5.0219,5.0182,5.012,5.007,5.0038,5.0044,5.0024,5.0011,5.0011,5.003,5.0333,5.0635,5.2109,5.1482,5.1482,5.1366,5.1196,5.125,5.1202,5.1053,5.1073,5.1053,5.106,5.1082,5.1082,5.1089,5.115,5.1178,5.1178,5.1168,5.119,5.1177,5.1194,5.1249,5.1318,5.1352,5.1398,5.1384,5.1386,5.1401,5.1391,5.14,5.1394,5.1394,5.1394,5.1394,5.1394,5.1394,5.1394,5.1394,5.1394,5.1394,5.1375,5.073,5.0398,5.0359,4.9754,4.9384,4.9384,4.9384,4.9384,4.9384,4.9384,4.9696,5.0338,5.0398,5.071,5.1315,5.1387,5.1401,5.1397,5.1355,5.1319,5.1319,5.1342,5.1312,5.1308,5.1308,5.1304,5.13,5.13,5.13,5.13,5.13,5.1298,5.1312,5.1232,5.115,5.1084,5.0961,5.0821,5.0645,5.0544,5.0457,5.0337,5.0296,5.0296,5.0296,5.0296,5.0296,5.0296,5.0296,5.0296,5.0296,5.0296,5.0296,5.0296,5.0296,5.0296,5.0296,5.0296,5.0296,5.0296,5.0296,5.0284,5.0243,5.0237,5.0182,5.0145,5.0126,5.0114,5.0095,5.0082,5.0146,5.045,5.0843,5.1251,5.3323,5.3265,5.3192,5.2805,5.2109,5.2094,5.1672,5.103,5.0929,5.0929,5.1022,5.105,5.112,5.1085,5.1107,5.1111,5.1114,5.1105,5.1121,5.1127,5.1167,5.1225,5.1293,5.1314,5.1347,5.1399,5.1387,5.1402,5.1391,5.14,5.1394,5.1394,5.1394,5.1394,5.1394,5.1394,5.1394,5.1394,5.1394,5.1394,5.1394,5.1316,5.1297,5.1277,5.1199,5.116,5.1063,5.118,5.1141,5.1141,5.1102,5.116,5.1258,5.1277,5.1297,5.1394,5.1393,5.1389,5.1399,5.1403,5.1391,5.1393,5.137,5.1362,5.131,5.131,5.1301,5.1345,5.132,5.13,5.13,5.1339,5.139,5.141,5.1386,5.1142,5.1143,5.0945,5.0835,5.0614,5.0748,5.0457,5.0516,5.0512,5.043,5.0569,5.0608,5.0608,5.0588,5.0563,5.0487,5.0392,5.0315,5.0315,5.0315,5.0296,5.0296,5.0296,5.0296,5.0296,5.0296,5.0296,5.029,5.0284,5.0284,5.0242,5.0206,5.0201,5.0157,5.0183,5.0222,5.038,5.1034,5.1453,5.1546,5.3962,5.3498,5.3498,5.3308,5.2999,5.2979,5.2767,5.2453,5.2453,5.2453,5.2438,5.2489,5.1973,5.1069,5.1067,5.1081,5.1081,5.1095,5.1082,5.1089,5.1136,5.1173,5.123,5.1277,5.134,5.1386,5.1384,5.1386,5.1396,5.1402,5.1394,5.1394,5.1394,5.1394,5.1394,5.1394,5.1394,5.1394,5.1394,5.1394,5.1394,5.1394,5.1394,5.1394,5.1394,5.1394,5.1394,5.1394,5.1394,5.1394,5.1394,5.1394,5.1394,5.1394,5.1394,5.1394,5.1394,5.1392,5.1389,5.1396,5.1389,5.139,5.14,5.1372,5.1366,5.1366,5.1533,5.1925,5.16,5.13,5.1378,5.1768,5.207,5.2122,5.2426,5.2629,5.2546,5.2383,5.2256,5.2103,5.1976,5.1854,5.1797,5.1792,5.1773,5.1792,5.176,5.1697,5.1754,5.1773,5.1563,5.1194,5.1085,5.0812,5.0449,5.0296,5.0296,5.0296,5.0296,5.0296,5.0296,5.0296,5.0296,5.0296,5.0353,5.0353,5.0253,5.0267,5.0249,5.0346,5.0785,5.1128,5.1421,5.2247,5.2754,5.4755,5.4213,5.4175,5.4063,5.3869,5.3869,5.371,5.3517,5.3498,5.3498,5.3498,5.3498,5.2841,5.1807,5.1733,5.1763,5.1767,5.1754,5.1758,5.1761,5.1783,5.1816,5.19,5.1952,5.2007,5.2086,5.2138,5.2148,5.2122,5.2109,5.212,5.212,5.2119,5.2116,5.2097,5.2097,5.2116,5.2136,5.2117,5.1999,5.1804,5.1765,5.1648,5.1433,5.1394,5.1394,5.1394,5.1394,5.1394,5.1394,5.1394,5.1394,5.1394,5.1394,5.1394,5.1394,5.1394,5.1394,5.1394,5.1387,5.1383,5.1422,5.1588,5.1755,5.1791,5.1987,5.2369,5.2802,5.2379,5.2076,5.208,5.2584,5.2922,5.2991,5.3419,5.3631,5.3537,5.3411,5.3157,5.3089,5.2805,5.2871,5.2804,5.2734,5.2677,5.2677,5.2734,5.2792,5.2792,5.2734,5.2537,5.2021,5.1945,5.1461,5.0563,5.0296,5.0296,5.0296,5.0296,5.0296,5.0296,5.0296,5.0296,5.0315,5.0455,5.0703,5.0882,5.0812,5.0951,5.1104,5.1474,5.2035,5.2405,5.3347,5.3906,5.5911,5.5853,5.5872,5.5374,5.4755,5.4735,5.4291,5.3672,5.3594,5.356,5.3633,5.3594,5.3482,5.3409,5.3398,5.337,5.3336,5.3275,5.3247,5.3251,5.3347,5.3485,5.3588,5.3677,5.3658,5.3556,5.3588,5.369,5.3744,5.3814,5.3907,5.381,5.3723,5.3815,5.3738,5.3698,5.3834,5.3698,5.3697,5.3424,5.2742,5.2645,5.2274,5.1629,5.1394,5.1394,5.1394,5.1394,5.1394,5.1394,5.1394,5.1394,5.1394,5.1394,5.1394,5.1394,5.1394,5.1414,5.1433,5.1471,5.1491,5.1589,5.2251,5.2638,5.2685,5.325,5.3674,5.3853,5.3753,5.3701,5.3785,5.3798,5.3814,5.3767,5.3726,5.3723,5.3619,5.3604,5.3196,5.3155,5.3184,5.3171,5.2951,5.2792,5.2983,5.3002,5.29,5.2964,5.3078,5.2983,5.2919,5.283,5.2658,5.2193,5.0735,5.0684,5.0583,5.064,5.085,5.0506,5.0334,5.0296,5.0372,5.0563,5.1142,5.1525,5.1671,5.1945,5.227,5.2461,5.2518,5.2907,5.3257,5.3792,5.4333,5.6008,5.6008,5.6008,5.5814,5.5586,5.5586,5.5389,5.5122,5.5099,5.5099,5.5103,5.5103,5.5103,5.5103,5.5103,5.4523,5.356,5.3494,5.3503,5.3503,5.3518,5.3553,5.3585,5.3679,5.3771,5.3835,5.3907,5.3953,5.3984,5.3978,5.3993,5.3992,5.3985,5.3981,5.3979,5.3993,5.399,5.399,5.399,5.3834,5.358,5.3541,5.3366,5.3034,5.198,5.1394,5.1394,5.1394,5.1394,5.1394,5.1394,5.1394,5.1394,5.1394,5.1394,5.1394,5.1394,5.1629,5.2137,5.2235,5.2488,5.3014,5.3327,5.354,5.3575,5.3828,5.4174,5.4592,5.4726,5.491,5.5319,5.5069,5.4708,5.4682,5.4998,5.5149,5.5096,5.4911,5.4737,5.4639,5.4546,5.4486,5.4358,5.4448,5.4467,5.4467,5.4448,5.439,5.4448,5.4448,5.4218,5.3779,5.3607,5.3225,5.2136,5.1926,5.1926,5.1926,5.1945,5.1926,5.183,5.1697,5.1773,5.1697,5.2136,5.2422,5.2594,5.2709,5.311,5.311,5.3225,5.3722,5.4027,5.4428,5.4855,5.6008,5.6008,5.6008,5.6008,5.6008,5.6008,5.6008,5.6008,5.6008,5.6008,5.6008,5.6008,5.6008,5.6008,5.6008,5.5447,5.4368,5.4329,5.431,5.431,5.431,5.4331,5.4343,5.4439,5.4535,5.4631,5.4692,5.4787,5.4824,5.4842,5.4838,5.4858,5.4852,5.4829,5.4828,5.4839,5.4835,5.4834,5.4831,5.4752,5.4478,5.4439,5.4264,5.3893,5.2839,5.2233,5.2234,5.2233,5.2253,5.2234,5.2234,5.2234,5.2253,5.2253,5.2253,5.2234,5.2253,5.2468,5.3015,5.3113,5.3367,5.3951,5.4264,5.442,5.442,5.4654,5.5118,5.5522,5.5656,5.5943,5.622,5.595,5.5603,5.5592,5.5924,5.6142,5.6025,5.5778,5.5569,5.5405,5.5301,5.5326,5.5396,5.5358,5.532,5.5396,5.5396,5.5396,5.5396,5.5377,5.5244,5.4658,5.4524,5.4295,5.3779,5.3626,5.2919,5.2785,5.2709,5.2862,5.3002,5.2944,5.2944,5.2906,5.3059,5.332,5.3492,5.3569,5.3607,5.3607,5.4008,5.4575,5.4785,5.4976,5.5218,5.6008,5.6008,5.6008,5.6008,5.6008,5.6008,5.6008,5.6008,5.6008,5.6008,5.6008,5.6008,5.6008,5.6008,5.6008,5.593,5.5795,5.5718,5.5737,5.5756,5.5795,5.584,5.5861,5.5881,5.5964,5.6046,5.6325,5.6431,5.6365,5.6308,5.6346,5.6482,5.6361,5.628,5.6495,5.6352,5.6445,5.6385,5.6319,5.6061,5.5416,5.5319,5.4966,5.4303,5.4048,5.4009,5.401,5.3911,5.3776,5.3815,5.3834,5.3951,5.3776,5.3756,5.3873,5.3776,5.3873,5.3932,5.399,5.401,5.4029,5.4381,5.4889,5.5319,5.5416,5.5942,5.6371,5.6409,5.6466,5.6541,5.647,5.6413,5.6342,5.6376,5.6254,5.6128,5.5993,5.5767,5.5552,5.544,5.5416,5.5384,5.5384,5.5384,5.5396,5.5396,5.5396,5.5396,5.5396,5.5396,5.5396,5.5339,5.5167,5.4938,5.5129,5.5244,5.4237,5.346,5.332,5.332,5.3492,5.3511,5.3607,5.3626,5.3913,5.418,5.4479,5.4575,5.4709,5.4804,5.5186,5.5167,5.5224,5.5263,5.5301,5.6008,5.6008,5.6008,5.6008,5.6008,5.6008,5.6008,5.6008,5.6008,5.6008,5.6008,5.6008,5.6008,5.6008,5.6008,5.6008,5.6008,5.6008,5.6008,5.6008,5.6008,5.5997,5.6042,5.6114,5.619,5.6314,5.6427,5.6505,5.653,5.658,5.6621,5.6621,5.6619,5.6617,5.6617,5.6613,5.6609,5.6608,5.6621,5.6441,5.6206,5.6199,5.604,5.5825,5.5785,5.5786,5.5746,5.4653,5.4029,5.4029,5.399,5.399,5.401,5.399,5.399,5.399,5.399,5.4322,5.4831,5.4909,5.5162,5.5669,5.604,5.6177,5.6196,5.6429,5.6605,5.6605,5.6605,5.6583,5.6558,5.6538,5.648,5.6398,5.6266,5.6139,5.5988,5.5748,5.5579,5.5482,5.544,5.5415,5.5383,5.5384,5.5384,5.5403,5.5396,5.5396,5.5396,5.5396,5.5396,5.5396,5.5396,5.5396,5.5396,5.5396,5.49,5.4333,5.418,5.4027,5.4123,5.418,5.4256,5.4371,5.467,5.4938,5.5263,5.5396,5.5396,5.5396,5.532,5.532,5.5377,5.5396,5.5396,5.6008,5.6008,5.6008,5.6008,5.6008,5.6008,5.6008,5.6008,5.6008,5.6008,5.6008,5.6008,5.6008,5.6008,5.6008,5.6008,5.6008,5.6008,5.6008,5.6008,5.6008,5.6008,5.602,5.609,5.619,5.6311,5.6447,5.6489,5.6484,5.6556,5.662,5.6621,5.6621,5.662,5.662,5.6617,5.6615,5.6614,5.6609,5.6605,5.6604,5.6617,5.6611,5.6611,5.6607,5.6605,5.6507,5.5512,5.4965,5.4965,5.4966,5.4985,5.4966,5.4985,5.4966,5.4966,5.5005,5.5259,5.5728,5.5786,5.5981,5.6488,5.6605,5.6605,5.6605,5.6605,5.6605,5.6605,5.6605,5.6605,5.6582,5.6535,5.6476,5.6411,5.6261,5.6116,5.5953,5.5737,5.5585,5.5523,5.5482,5.5444,5.5426,5.5402,5.5403,5.5396,5.539,5.5396,5.5396,5.5396,5.5396,5.5396,5.5396,5.5396,5.5396,5.5396,5.5396,5.5244,5.5129,5.4995,5.4976,5.4957,5.4995,5.4957,5.5148,5.5129,5.5396,5.5396,5.5396,5.5396,5.5396,5.5396,5.5396,5.5396,5.5396,5.6008,5.6008,5.6008,5.6008,5.6008,5.6008,5.6008,5.6008,5.6008,5.6008,5.6008,5.6008,5.6008,5.6008,5.6008,5.6008,5.6008,5.6008,5.6008,5.6008,5.6012,5.6016,5.6025,5.6126,5.6217,5.6283,5.6418,5.6482,5.6499,5.6554,5.66,5.6621,5.6621,5.6621,5.6621,5.662,5.6619,5.6619,5.6615,5.6613,5.6612,5.6605,5.662,5.6619,5.6611,5.6605,5.6566,5.641,5.6429,5.6546,5.6371,5.6351,5.6527,5.6585,5.641,5.6371,5.6547,5.6468,5.6566,5.6468,5.6527,5.6585,5.6605,5.6605,5.6605,5.6605,5.6605,5.6605,5.6605,5.6605,5.6599,5.6548,5.6467,5.6387,5.6257,5.6079,5.5851,5.5703,5.5602,5.5539,5.551,5.551,5.5504,5.545,5.5414,5.5395,5.5396,5.5384,5.539,5.5396,5.5396,5.5396,5.5396,5.5396,5.5396,5.5396,5.5396,5.5396,5.5396,5.5396,5.5396,5.5396,5.5396,5.5396,5.5396,5.5396,5.5396,5.5396,5.5396,5.5396,5.5396,5.5396,5.5396,5.5396,5.5396,5.6008,5.6008,5.6008,5.6008,5.6008,5.6008,5.6027,5.6008,5.6046,5.6104,5.6027,5.6008,5.6046,5.6008,5.6008,5.6008,5.6008,5.6008,5.6008,5.5993,5.6046,5.6037,5.6033,5.6149,5.6225,5.6251,5.6366,5.6459,5.6479,5.6523,5.6555,5.662,5.6621,5.6621,5.6621,5.6621,5.6621,5.6621,5.6619,5.6618,5.6617,5.6608,5.6621,5.6619,5.6611,5.6606,5.6605,5.6605,5.6605,5.6605,5.6605,5.6605,5.6605,5.6605,5.6605,5.6605,5.6605,5.6605,5.6605,5.6605,5.6605,5.6605,5.6605,5.6605,5.6605,5.6605,5.6605,5.6605,5.6605,5.6605,5.6599,5.6545,5.6438,5.6287,5.6158,5.6014,5.5876,5.5775,5.5657,5.564,5.5602,5.5579,5.5562,5.5502,5.5461,5.5462,5.5426,5.539,5.5403,5.539,5.539,5.5396,5.5396,5.5396,5.5396,5.5396,5.5396,5.5396,5.5396,5.5396,5.5396,5.5396,5.5396,5.5396,5.5396,5.5396,5.5396,5.5396,5.5396,5.5396,5.5396,5.5396,5.5396,5.5396,5.5396,5.7095,5.7076,5.7095,5.7095,5.7076,5.7095,5.7095,5.7095,5.7095,5.6859,5.6626,5.6549,5.6336,5.6027,5.6008,5.6008,5.6008,5.6008,5.602,5.605,5.6102,5.6106,5.6114,5.618,5.6218,5.6262,5.6352,5.6414,5.6476,5.6491,5.6531,5.6599,5.6621,5.6621,5.6621,5.6621,5.6621,5.6621,5.6621,5.662,5.662,5.6615,5.661,5.6606,5.6618,5.6611,5.6606,5.6605,5.6605,5.6605,5.6605,5.6605,5.6605,5.6605,5.6605,5.6605,5.6605,5.6605,5.6605,5.6605,5.6605,5.6605,5.6605,5.6605,5.6605,5.6605,5.6605,5.6605,5.6605,5.6605,5.6598,5.6522,5.6386,5.6239,5.6071,5.5973,5.5909,5.5785,5.5714,5.5698,5.5676,5.5654,5.5635,5.5579,5.5551,5.5527,5.5486,5.5438,5.5421,5.5403,5.539,5.5396,5.5384,5.5384,5.5396,5.5396,5.5396,5.5396,5.5396,5.5396,5.5396,5.5396,5.5396,5.5396,5.5396,5.5396,5.5396,5.5396,5.5396,5.5396,5.5396,5.5396,5.5396,5.5396,5.5396,5.8589,5.8589,5.8589,5.8589,5.8511,5.8569,5.8415,5.855,5.8434,5.8062,5.7555,5.7439,5.7091,5.6278,5.6592,5.636,5.6375,5.6553,5.6495,5.6606,5.6648,5.6638,5.649,5.6283,5.6259,5.6303,5.6377,5.6427,5.6485,5.6488,5.6529,5.6598,5.6621,5.6621,5.6621,5.6621,5.6621,5.6621,5.6621,5.6621,5.6621,5.6619,5.6616,5.6611,5.6621,5.6613,5.6607,5.6605,5.6605,5.6605,5.6605,5.6605,5.6605,5.6605,5.6605,5.6605,5.6605,5.6605,5.6605,5.6605,5.6605,5.6605,5.6605,5.6605,5.6605,5.6605,5.6605,5.6605,5.6605,5.6602,5.6568,5.6466,5.6356,5.623,5.6071,5.5973,5.589,5.5771,5.5689,5.5689,5.5689,5.5689,5.5673,5.5646,5.5607,5.5602,5.5556,5.551,5.5468,5.5457,5.5427,5.5396,5.5384,5.5396,5.5384,5.5396,5.5396,5.5396,5.5396,5.5396,5.5396,5.5396,5.5396,5.5396,5.5396,5.5396,5.5396,5.5396,5.5396,5.5396,5.5396,5.5396,5.5396,5.5396,5.5396,5.8589,5.8589,5.8589,5.8589,5.8589,5.8589,5.8627,5.8666,5.8647,5.8589,5.8357,5.8333,5.8178,5.797,5.7869,5.8047,5.7892,5.7901,5.8103,5.8214,5.8226,5.7868,5.735,5.678,5.6344,5.6317,5.6371,5.6446,5.6482,5.6498,5.6541,5.6594,5.6621,5.6621,5.6621,5.6621,5.6621,5.6621,5.6621,5.6621,5.6621,5.662,5.6618,5.6612,5.6619,5.6609,5.6606,5.6605,5.6605,5.6605,5.6605,5.6605,5.6605,5.6605,5.6605,5.6605,5.6605,5.6605,5.6605,5.6605,5.6605,5.6605,5.6605,5.6605,5.6605,5.6605,5.6605,5.6605,5.6604,5.6574,5.6524,5.6451,5.6351,5.622,5.6094,5.5973,5.5895,5.5791,5.5714,5.5689,5.5689,5.5689,5.5689,5.5678,5.5662,5.5682,5.5624,5.5579,5.5539,5.5504,5.5444,5.5415,5.5396,5.5384,5.5384,5.5396,5.5396,5.5396,5.5396,5.5396,5.5396,5.5396,5.5396,5.5396,5.5396,5.5396,5.5396,5.5396,5.5396,5.5396,5.5396,5.5396,5.5396,5.5396,5.5396,5.9783,5.9783,5.9769,5.9769,5.9783,5.9764,5.9783,5.9764,5.9764,5.9551,5.9246,5.9208,5.8976,5.8627,5.8589,5.8569,5.8602,5.8622,5.8672,5.875,5.8801,5.8662,5.8401,5.7792,5.7296,5.6578,5.6383,5.6444,5.6491,5.6531,5.6519,5.6593,5.662,5.6621,5.6621,5.6621,5.6621,5.6621,5.6621,5.6621,5.6621,5.6621,5.6619,5.6613,5.6621,5.6611,5.6606,5.6605,5.6605,5.6605,5.6605,5.6605,5.6605,5.6605,5.6605,5.6605,5.6605,5.6605,5.6605,5.6605,5.6605,5.6605,5.6605,5.6605,5.6605,5.6605,5.6605,5.6605,5.6603,5.6571,5.6494,5.6422,5.6337,5.6249,5.6114,5.5981,5.5899,5.5792,5.5689,5.5689,5.5689,5.5689,5.5689,5.5689,5.5684,5.5673,5.5692,5.5643,5.5585,5.5545,5.5467,5.5432,5.5408,5.5396,5.5396,5.5396,5.5396,5.5396,5.5396,5.5396,5.5396,5.5396,5.5396,5.5396,5.5396,5.5396,5.5396,5.5396,5.5396,5.5396,5.5396,5.5396,5.5396,5.5396,5.5396,6.1094,6.1094,6.1094,6.1094,6.1094,6.1036,6.0983,6.1036,6.1094,6.0576,6.019,6.0093,5.9725,5.9169,5.9111,5.9014,5.908,5.9176,5.9448,5.9493,5.9619,5.9477,5.9266,5.9045,5.8439,5.6931,5.7005,5.7047,5.7028,5.6766,5.6913,5.6829,5.664,5.6621,5.6621,5.6621,5.6621,5.6621,5.6621,5.6621,5.6621,5.6621,5.662,5.6615,5.6605,5.6617,5.661,5.6607,5.6605,5.6605,5.6605,5.6605,5.6605,5.6605,5.6605,5.6605,5.6605,5.6605,5.6605,5.6605,5.6605,5.6605,5.6605,5.6605,5.6605,5.6644,5.6722,5.6917,5.7032,5.7181,5.6919,5.7061,5.687,5.6599,5.635,5.6117,5.5908,5.5793,5.574,5.5689,5.5689,5.5689,5.5689,5.5689,5.5689,5.5689,5.5703,5.5692,5.5635,5.5596,5.5545,5.5492,5.5468,5.5408,5.5403,5.5396,5.5396,5.5396,5.5396,5.5396,5.5396,5.5396,5.5396,5.5396,5.5396,5.5396,5.5396,5.5396,5.5396,5.5396,5.5396,5.5396,5.5396,5.5396,5.5396,6.1094,6.1094,6.1094,6.1094,6.1094,6.1094,6.1094,6.1094,6.1094,6.1041,6.0886,6.0881,6.075,6.0596,6.0654,6.0654,6.0478,6.0514,6.0696,6.0783,6.087,6.0718,6.0219,6.0154,5.9596,5.8939,5.8646,5.864,5.831,5.8,5.7662,5.7536,5.7011,5.6699,5.6719,5.6621,5.6621,5.6621,5.6621,5.6621,5.6621,5.6621,5.6621,5.6617,5.6609,5.6621,5.6617,5.661,5.6605,5.6605,5.6605,5.6605,5.6605,5.6605,5.6605,5.6605,5.6605,5.6605,5.6605,5.6605,5.6605,5.6605,5.6683,5.6663,5.6663,5.6742,5.7132,5.762,5.8186,5.859,5.8652,5.8343,5.8081,5.7648,5.7139,5.6795,5.6196,5.5871,5.5785,5.571,5.57,5.5689,5.5689,5.5689,5.5689,5.5689,5.5689,5.5703,5.5668,5.5651,5.5629,5.5573,5.5527,5.547,5.5422,5.5403,5.5396,5.5396,5.5396,5.5396,5.5396,5.5396,5.5396,5.5396,5.5396,5.5396,5.5396,5.5396,5.5396,5.5396,5.5396,5.5396,5.5396,5.5396,5.5396,6.1094,6.1094,6.1094,6.1094,6.1094,6.1094,6.1094,6.1094,6.1094,6.1094,6.1094,6.1094,6.1094,6.1094,6.1094,6.1108,6.1182,6.1251,6.1332,6.1431,6.15,6.1458,6.1037,6.105,6.0851,6.0527,6.0422,5.9868,5.9134,5.8694,5.8507,5.8356,5.7715,5.7285,5.7148,5.6836,5.668,5.6621,5.6621,5.6621,5.6621,5.6621,5.6621,5.6618,5.6613,5.6606,5.6619,5.6611,5.6605,5.6605,5.6605,5.6605,5.6605,5.6605,5.6624,5.6624,5.6624,5.6624,5.6624,5.6605,5.6605,5.6663,5.6956,5.721,5.7347,5.7659,5.803,5.844,5.8693,5.9118,5.9044,5.9092,5.8774,5.8378,5.7878,5.7308,5.6725,5.6203,5.5943,5.578,5.573,5.5714,5.5689,5.5689,5.5689,5.5689,5.5689,5.5689,5.5689,5.5678,5.5668,5.5602,5.5533,5.5477,5.5422,5.5409,5.5396,5.5396,5.5396,5.5396,5.5396,5.5396,5.5396,5.5396,5.5396,5.5396,5.5396,5.5396,5.5396,5.5396,5.5396,5.5396,5.5396,5.5396,5.5415,6.1094,6.1094,6.1094,6.1094,6.1094,6.1094,6.1094,6.1094,6.1094,6.1094,6.1094,6.1094,6.1094,6.1094,6.1103,6.1141,6.1214,6.1271,6.1354,6.1415,6.1544,6.1591,6.1645,6.167,6.1569,6.1419,6.1439,6.0987,6.0027,5.9483,5.9409,5.9198,5.8574,5.8008,5.7754,5.7246,5.6894,5.6621,5.6621,5.6621,5.6621,5.6621,5.6621,5.662,5.6616,5.6609,5.6605,5.6612,5.6606,5.6605,5.6605,5.6605,5.6605,5.6605,5.6683,5.6781,5.6683,5.6683,5.6859,5.6917,5.7073,5.7366,5.7758,5.7992,5.8246,5.8713,5.9318,5.9357,5.965,5.9802,5.9888,5.9646,5.9473,5.9151,5.8592,5.7848,5.7292,5.6743,5.6203,5.602,5.5819,5.5724,5.5719,5.5689,5.5689,5.5689,5.5689,5.5689,5.5689,5.5689,5.5662,5.5596,5.5522,5.5451,5.5415,5.5396,5.5384,5.5396,5.5396,5.5396,5.5396,5.5396,5.5396,5.5396,5.5396,5.5396,5.5396,5.5396,5.5396,5.5396,5.5396,5.5396,5.5396,5.5454,5.553,6.1094,6.1094,6.1094,6.1094,6.1094,6.1094,6.1094,6.1094,6.1094,6.1094,6.1094,6.1094,6.1094,6.1094,6.1094,6.1141,6.1217,6.1318,6.1398,6.1424,6.1541,6.1646,6.1677,6.17,6.1713,6.1699,6.1699,6.164,6.1052,6.0466,6.0252,6.0097,5.9453,5.875,5.8281,5.7773,5.7344,5.6777,5.664,5.6621,5.6621,5.6621,5.6621,5.6621,5.6617,5.6612,5.6608,5.6617,5.6605,5.6605,5.6605,5.6605,5.6605,5.6605,5.7034,5.721,5.7151,5.6917,5.7523,5.768,5.7914,5.8362,5.883,5.8928,5.9279,5.9728,6.0255,6.0276,6.0801,6.1113,6.1048,6.1202,6.0864,6.0335,5.976,5.8772,5.7942,5.7207,5.6676,5.6083,5.5846,5.5766,5.573,5.57,5.5689,5.5689,5.5689,5.5689,5.5689,5.5689,5.5668,5.5602,5.5533,5.5463,5.5409,5.539,5.5384,5.5396,5.5396,5.5396,5.5396,5.5396,5.5396,5.5396,5.5396,5.5396,5.5396,5.5396,5.5396,5.5396,5.5396,5.5396,5.5396,5.5511,5.5759,6.1094,6.1094,6.1094,6.1094,6.1094,6.1094,6.1094,6.1094,6.1094,6.1094,6.1094,6.1094,6.1094,6.1094,6.1094,6.1159,6.1257,6.136,6.1434,6.1461,6.155,6.1652,6.1699,6.1702,6.1715,6.1699,6.1699,6.1699,6.1523,6.1387,6.1133,6.0976,6.0332,5.9765,5.9043,5.832,5.7812,5.7305,5.6933,5.664,5.6621,5.6621,5.6621,5.6621,5.6621,5.6613,5.6609,5.6617,5.6606,5.6605,5.6605,5.6605,5.6742,5.6995,5.7484,5.7699,5.801,5.8205,5.8479,5.8538,5.8812,5.9123,5.9572,6.004,6.0489,6.0841,6.1094,6.1133,6.1446,6.168,6.1716,6.1682,6.1451,6.1068,6.0604,5.9644,5.859,5.7748,5.7071,5.6463,5.5909,5.5822,5.5761,5.571,5.57,5.5689,5.5689,5.5689,5.5689,5.5689,5.5657,5.5607,5.5539,5.5468,5.5421,5.5384,5.5384,5.5396,5.5396,5.5396,5.5396,5.5396,5.5396,5.5396,5.5396,5.5396,5.5396,5.5396,5.5396,5.5396,5.5396,5.5454,5.5568,5.6129,5.6549,6.1094,6.1094,6.1094,6.1094,6.1094,6.1094,6.1094,6.1094,6.1094,6.1094,6.1094,6.1094,6.1094,6.1094,6.1103,6.1168,6.1301,6.1371,6.1441,6.1507,6.1571,6.1631,6.1681,6.1702,6.1715,6.1699,6.1699,6.1699,6.1699,6.166,6.1621,6.168,6.1055,6.0547,6.0078,5.9297,5.8496,5.7754,5.7265,5.6894,5.666,5.6621,5.6621,5.6621,5.6618,5.6612,5.6611,5.6617,5.6605,5.6605,5.6898,5.7015,5.7093,5.7717,5.8304,5.8656,5.9085,5.9494,5.9611,5.9669,5.9572,5.9865,6.0216,6.0938,6.1407,6.1699,6.1699,6.1582,6.1641,6.1699,6.1716,6.1706,6.1616,6.1379,6.1051,6.0183,5.9343,5.8522,5.7632,5.6872,5.6325,5.589,5.5812,5.5742,5.571,5.5695,5.5689,5.5689,5.5689,5.5689,5.5668,5.5629,5.5551,5.5492,5.5463,5.5421,5.5416,5.5396,5.5396,5.5396,5.5396,5.5396,5.5396,5.5396,5.5396,5.5396,5.5396,5.5396,5.5396,5.5396,5.5435,5.5594,5.5861,5.653,5.7313,6.1094,6.1094,6.1094,6.1094,6.1094,6.1094,6.1094,6.1094,6.1094,6.1094,6.1094,6.1094,6.1094,6.1094,6.1103,6.1173,6.1306,6.1368,6.1421,6.1507,6.1573,6.1631,6.1682,6.1702,6.1699,6.1699,6.1699,6.1699,6.1699,6.1699,6.1699,6.166,6.1465,6.1055,6.0605,6.0058,5.9121,5.834,5.7754,5.7305,5.6894,5.666,5.6621,5.6621,5.6618,5.6612,5.6611,5.6616,5.6722,5.6742,5.7231,5.768,5.7836,5.8557,5.9202,5.969,6.01,6.0548,6.0821,6.0665,6.0783,6.1231,6.1485,6.1465,6.168,6.1699,6.1699,6.1699,6.1699,6.1699,6.1715,6.1707,6.1681,6.1592,6.1295,6.0792,5.9995,5.9301,5.8398,5.7432,5.6778,5.6335,5.588,5.5813,5.5731,5.5705,5.5689,5.5689,5.5689,5.5689,5.5689,5.5651,5.5562,5.551,5.5486,5.5445,5.5409,5.5396,5.5396,5.5396,5.5396,5.5396,5.5396,5.5396,5.5396,5.5396,5.5396,5.5396,5.5396,5.5396,5.5549,5.5995,5.6759,5.7619,5.8268,6.1094,6.1094,6.1094,6.1094,6.1094,6.1094,6.1094,6.1094,6.1094,6.1094,6.1094,6.1094,6.1094,6.1094,6.1103,6.1173,6.1306,6.1368,6.1441,6.1493,6.156,6.1637,6.1687,6.1706,6.1699,6.1699,6.1699,6.1699,6.1699,6.1699,6.1699,6.1699,6.1699,6.1562,6.1172,6.0664,5.9765,5.8926,5.8223,5.7695,5.7461,5.6836,5.6621,5.6621,5.6621,5.6613,5.661,5.6616,5.6901,5.7309,5.7699,5.8128,5.8656,5.9435,6.0022,6.0471,6.0841,6.1289,6.1563,6.1368,6.1426,6.1524,6.168,6.1699,6.1699,6.1699,6.1699,6.1699,6.1699,6.1699,6.1718,6.1714,6.171,6.1685,6.1495,6.1134,6.0605,5.988,5.9088,5.8113,5.735,5.674,5.6295,5.5909,5.5798,5.5716,5.57,5.5689,5.5689,5.5689,5.5689,5.5657,5.5573,5.5516,5.5492,5.5446,5.5403,5.5396,5.5396,5.5396,5.5396,5.5396,5.5396,5.5396,5.5396,5.5396,5.5396,5.5396,5.5454,5.5568,5.611,5.6778,5.7657,5.8606,5.9128,6.1094,6.1094,6.1094,6.1094,6.1094,6.1094,6.1094,6.1094,6.1094,6.1094,6.1094,6.1094,6.1094,6.1094,6.1099,6.1192,6.1286,6.1352,6.1431,6.1506,6.1575,6.1627,6.1692,6.1709,6.1699,6.1699,6.1699,6.1699,6.1699,6.1699,6.1699,6.1699,6.1699,6.166,6.1523,6.1113,6.0371,5.957,5.9062,5.8457,5.8281,5.7793,5.748,5.75,5.7539,5.7531,5.7546,5.7613,5.7778,5.8168,5.8558,5.8929,5.9573,6.0198,6.0686,6.0977,6.127,6.168,6.1699,6.1699,6.1699,6.1699,6.1699,6.1699,6.1699,6.1699,6.1699,6.1699,6.1699,6.1699,6.1699,6.1716,6.1716,6.1692,6.1702,6.1386,6.0968,6.0356,5.9596,5.8768,5.7977,5.7118,5.6697,5.6248,5.5871,5.5762,5.5724,5.5714,5.5689,5.5689,5.5689,5.5646,5.5579,5.5533,5.5517,5.5453,5.5396,5.5396,5.5396,5.5396,5.5396,5.5396,5.5396,5.5396,5.5396,5.5396,5.5511,5.5683,5.5766,5.5823,5.6702,5.7753,5.8307,5.9185,5.9663,6.1094,6.1094,6.1094,6.1094,6.1094,6.1094,6.1094,6.1094,6.1094,6.1094,6.1094,6.1094,6.1094,6.1094,6.1094,6.1192,6.1286,6.1371,6.1438,6.1517,6.159,6.1635,6.1678,6.1712,6.1699,6.1699,6.1699,6.1699,6.1699,6.1699,6.1699,6.1699,6.1699,6.1699,6.1699,6.1699,6.1211,6.0508,6.0293,5.9726,5.9258,5.8906,5.875,5.8711,5.8649,5.8567,5.8543,5.8552,5.8717,5.9065,5.9631,6.0022,6.0412,6.1075,6.1465,6.1563,6.1621,6.1699,6.1699,6.1699,6.1699,6.1699,6.1699,6.1699,6.1699,6.1699,6.1699,6.1699,6.1699,6.1699,6.1699,6.1699,6.1699,6.1716,6.1707,6.1615,6.1198,6.0934,6.022,5.9521,5.8431,5.7449,5.7048,5.6603,5.6067,5.5837,5.5756,5.5719,5.5714,5.5689,5.5689,5.5646,5.5585,5.5533,5.5499,5.5434,5.5403,5.5396,5.5396,5.5396,5.5396,5.5396,5.5396,5.5415,5.5587,5.5785,5.5938,5.6091,5.653,5.7122,5.7956,5.8835,5.9293,5.9644,6.0052,6.1094,6.1094,6.1094,6.1094,6.1094,6.1094,6.1094,6.1094,6.1094,6.1094,6.1094,6.1094,6.1094,6.1094,6.1127,6.1192,6.1286,6.1371,6.1441,6.1505,6.1602,6.1677,6.1702,6.1715,6.1699,6.1699,6.1699,6.1699,6.1699,6.1699,6.1699,6.1699,6.1699,6.1699,6.1699,6.1699,6.1484,6.1191,6.0762,6.0234,5.998,5.957,5.9297,5.9316,5.9295,5.9292,5.9308,5.9355,5.9523,5.9886,6.0471,6.0666,6.1055,6.168,6.168,6.1699,6.1699,6.1699,6.1699,6.1699,6.1699,6.1699,6.1699,6.1699,6.1699,6.1699,6.1699,6.1699,6.1699,6.1699,6.1699,6.1699,6.1699,6.1699,6.1692,6.1679,6.1442,6.1339,6.093,6.0302,5.9377,5.8337,5.7705,5.7199,5.6658,5.6192,5.6097,5.5819,5.573,5.5714,5.5684,5.5665,5.5615,5.5558,5.5488,5.5421,5.5396,5.5396,5.5396,5.5396,5.5396,5.553,5.5606,5.574,5.5976,5.6224,5.6645,5.7141,5.7925,5.8625,5.9121,5.951,5.9835,6.0033,6.0224,6.1094,6.1094,6.1094,6.1094,6.1094,6.1094,6.1094,6.1094,6.1094,6.1094,6.1094,6.1094,6.1094,6.1099,6.1141,6.1195,6.1306,6.1403,6.147,6.1539,6.1639,6.1693,6.171,6.1699,6.1699,6.1699,6.1699,6.1699,6.1699,6.1699,6.1699,6.1699,6.1699,6.1699,6.1699,6.1699,6.1699,6.1484,6.1133,6.0918,6.0723,6.0469,6.0156,6.0176,6.0155,6.0113,6.005,6.0082,6.021,6.067,6.092,6.1095,6.1543,6.1699,6.1699,6.1699,6.1699,6.1699,6.1699,6.1699,6.1699,6.1699,6.1699,6.1699,6.1699,6.1699,6.1699,6.1699,6.1699,6.1699,6.1699,6.1699,6.1699,6.1699,6.1696,6.1664,6.163,6.1527,6.1434,6.0811,6.0173,5.9199,5.8375,5.7826,5.7303,5.6853,5.6456,5.6179,5.5871,5.5749,5.5714,5.5695,5.567,5.5646,5.5544,5.5433,5.5409,5.5384,5.5511,5.5645,5.5842,5.6052,5.6052,5.618,5.6702,5.7199,5.7657,5.823,5.8784,5.9243,5.9625,5.9995,6.0339,6.0396,6.0396,6.1094,6.1094,6.1094,6.1094,6.1094,6.1094,6.1094,6.1094,6.1094,6.1094,6.1094,6.1094,6.1094,6.1127,6.1164,6.1234,6.1306,6.1447,6.1519,6.1584,6.1677,6.1703,6.1715,6.1699,6.1699,6.1699,6.1699,6.1699,6.1699,6.1699,6.1699,6.1699,6.1699,6.1699,6.1699,6.1699,6.1699,6.1621,6.1562,6.1426,6.1328,6.1445,6.125,6.123,6.1249,6.1266,6.1262,6.1334,6.1422,6.157,6.1622,6.166,6.1699,6.1699,6.1699,6.1699,6.1699,6.1699,6.1699,6.1699,6.1699,6.1699,6.1699,6.1699,6.1699,6.1699,6.1699,6.1699,6.1699,6.1699,6.1699,6.1699,6.1699,6.1699,6.1699,6.1689,6.1678,6.1626,6.1597,6.1187,6.0597,5.9847,5.9214,5.8618,5.8104,5.7744,5.7345,5.7061,5.6647,5.5808,5.5787,5.5736,5.5726,5.574,5.5715,5.5911,5.6136,5.6345,5.6129,5.6218,5.6396,5.667,5.6816,5.7103,5.7657,5.8173,5.8708,5.909,5.9434,5.9816,6.0033,6.0148,6.0396,6.0396,6.0396,6.1094,6.1094,6.1094,6.1094,6.1094,6.1094,6.1094,6.1094,6.1094,6.1094,6.1094,6.1094,6.1099,6.1099,6.1164,6.1223,6.1321,6.1425,6.1512,6.1613,6.1688,6.1707,6.1716,6.1699,6.1699,6.1699,6.1699,6.1699,6.1699,6.1699,6.1699,6.1699,6.1699,6.1699,6.1699,6.1699,6.1699,6.1699,6.1699,6.1699,6.1699,6.1699,6.1699,6.1699,6.1699,6.1699,6.1715,6.1709,6.1702,6.1714,6.1704,6.1699,6.1699,6.1699,6.1699,6.1699,6.1699,6.1699,6.1699,6.1699,6.1699,6.1699,6.1699,6.1699,6.1699,6.1699,6.1699,6.1699,6.1699,6.1699,6.1699,6.1699,6.1699,6.1699,6.1698,6.1693,6.1684,6.1676,6.1648,6.1464,6.0896,6.0559,5.9932,5.945,5.8946,5.8616,5.828,5.7959,5.7458,5.6656,5.6241,5.6247,5.6319,5.6493,5.6705,5.69,5.7124,5.7257,5.6995,5.6931,5.7313,5.7562,5.7676,5.802,5.8517,5.9173,5.9842,6.0033,5.9976,6.0109,6.0281,6.0339,6.0396,6.0396,6.0396,6.1094,6.1094,6.1094,6.1094,6.1094,6.1094,6.1094,6.1094,6.1094,6.1094,6.1094,6.1094,6.1108,6.1136,6.1197,6.1283,6.1385,6.1504,6.159,6.1647,6.1677,6.1692,6.1718,6.1699,6.1699,6.1699,6.1699,6.1699,6.1699,6.1699,6.1699,6.1699,6.1699,6.1699,6.1699,6.1699,6.1699,6.1699,6.1699,6.1699,6.1699,6.1699,6.1699,6.1699,6.1699,6.1699,6.1717,6.1712,6.1706,6.1717,6.1706,6.1699,6.1699,6.1699,6.1699,6.1699,6.1699,6.1699,6.1699,6.1699,6.1699,6.1699,6.1699,6.1699,6.1699,6.1699,6.1699,6.1699,6.1699,6.1699,6.1699,6.1699,6.1699,6.1699,6.1716,6.1715,6.1709,6.1702,6.1657,6.1573,6.1334,6.1059,6.0655,6.02,5.9827,5.9516,5.9159,5.8773,5.8286,5.7597,5.7293,5.7228,5.7329,5.7457,5.7643,5.7755,5.7832,5.785,5.7606,5.7676,5.8154,5.8459,5.8574,5.8918,5.9364,5.988,6.0262,6.032,6.03,6.0396,6.0396,6.0396,6.0396,6.0396,6.0396,6.1094,6.1094,6.1094,6.1094,6.1094,6.1094,6.1094,6.1094,6.1094,6.1094,6.1094,6.1094,6.1141,6.1186,6.1243,6.135,6.1455,6.1556,6.1626,6.1697,6.171,6.1717,6.1699,6.1699,6.1699,6.1699,6.1699,6.1699,6.1699,6.1699,6.1699,6.1699,6.1699,6.1699,6.1699,6.1699,6.1699,6.1699,6.1699,6.1699,6.1699,6.1699,6.1699,6.1699,6.1699,6.1699,6.1717,6.1713,6.1706,6.1698,6.1708,6.1701,6.1699,6.1699,6.1699,6.1699,6.1699,6.1699,6.1699,6.1699,6.1699,6.1699,6.1699,6.1699,6.1699,6.1699,6.1699,6.1699,6.1699,6.1699,6.1699,6.1699,6.1699,6.1699,6.1698,6.1716,6.1714,6.1709,6.1686,6.1624,6.1586,6.1351,6.1304,6.0872,6.0655,6.038,6.0126,5.972,5.9279,5.8693,5.8263,5.8182,5.8244,5.8314,5.8378,5.8457,5.8445,5.8373,5.8289,5.8536,5.909,5.9338,5.9491,5.9701,5.9899,6.009,6.0377,6.0396,6.0396,6.0396,6.0396,6.0396,6.0396,6.0396,6.0396,6.1094,6.1094,6.1094,6.1094,6.1094,6.1094,6.1094,6.1094,6.1094,6.1094,6.1099,6.1099,6.1126,6.1208,6.1275,6.1378,6.1484,6.1586,6.1642,6.1677,6.1713,6.1698,6.1699,6.1699,6.1699,6.1699,6.1699,6.1699,6.1699,6.1699,6.1699,6.1699,6.1699,6.1699,6.1699,6.1699,6.1699,6.1699,6.1699,6.1699,6.1699,6.1699,6.1699,6.1699,6.1699,6.1699,6.1699,6.1714,6.171,6.1705,6.1709,6.1702,6.1699,6.1699,6.1699,6.1699,6.1699,6.1699,6.1699,6.1699,6.1699,6.1699,6.1699,6.1699,6.1699,6.1699,6.1699,6.1699,6.1699,6.1699,6.1699,6.1699,6.1699,6.1699,6.1699,6.1699,6.1699,6.1716,6.1714,6.1715,6.1718,6.1694,6.1688,6.1609,6.1456,6.1293,6.1159,6.0895,6.0603,6.0084,5.9198,5.9045,5.9094,5.9158,5.9171,5.9236,5.9281,5.9432,5.9486,5.9746,5.9995,5.9976,5.9957,6.0148,6.0339,6.0396,6.0396,6.0396,6.0396,6.0396,6.0396,6.0396,6.0396,6.0396,6.0396,6.1094,6.1094,6.1094,6.1094,6.1094,6.1094,6.1094,6.1094,6.1094,6.1094,6.1099,6.1141,6.1182,6.125,6.1321,6.1405,6.1522,6.1607,6.1658,6.1703,6.1715,6.1698,6.1699,6.1699,6.1699,6.1699,6.1699,6.1699,6.1699,6.1699,6.1699,6.1699,6.1699,6.1699,6.1699,6.1699,6.1699,6.1699,6.1699,6.1699,6.1699,6.1699,6.1699,6.1699,6.1699,6.1699,6.1699,6.1716,6.1713,6.1706,6.1711,6.1702,6.1699,6.1699,6.1699,6.1699,6.1699,6.1699,6.1699,6.1699,6.1699,6.1699,6.1699,6.1699,6.1699,6.1699,6.1699,6.1699,6.1699,6.1699,6.1699,6.1699,6.1699,6.1699,6.1699,6.1699,6.1699,6.1718,6.1716,6.1716,6.1698,6.1698,6.1686,6.1639,6.1504,6.1439,6.1424,6.1299,6.1164,6.1045,6.028,5.9826,5.9811,5.9895,5.9945,6.0061,6.0175,6.0376,6.0403,6.032,6.0205,6.03,6.0377,6.0396,6.0396,6.0396,6.0396,6.0396,6.0396,6.0396,6.0396,6.0396,6.0396,6.0396,6.0396,6.1094,6.1094,6.1094,6.1094,6.1094,6.1094,6.1094,6.1094,6.1094,6.1094,6.1108,6.1173,6.1227,6.1306,6.1395,6.1501,6.1582,6.1639,6.1694,6.171,6.1717,6.1699,6.1699,6.1699,6.1699,6.1699,6.1699,6.1699,6.1699,6.1699,6.1699,6.1699,6.1699,6.1699,6.1699,6.1699,6.1699,6.1699,6.1699,6.1699,6.1699,6.1699,6.1699,6.1699,6.1699,6.1699,6.1699,6.1698,6.1715,6.1707,6.1712,6.1703,6.1699,6.1699,6.1699,6.1699,6.1699,6.1699,6.1699,6.1699,6.1699,6.1699,6.1699,6.1699,6.1699,6.1699,6.1699,6.1699,6.1699,6.1699,6.1699,6.1699,6.1699,6.1699,6.1699,6.1699,6.1699,6.1699,6.1699,6.1699,6.1699,6.1699,6.1681,6.1632,6.1573,6.1488,6.1395,6.1244,6.1126,6.1031,6.0646,6.0396,6.0369,6.0492,6.0527,6.0527,6.0571,6.0465,6.0396,6.0396,6.0396,6.0396,6.0396,6.0396,6.0396,6.0396,6.0396,6.0396,6.0396,6.0396,6.0396,6.0396,6.0396,6.0396,6.0396,6.1094,6.1094,6.1094,6.1094,6.1094,6.1094,6.1094,6.1094,6.1094,6.1094,6.1141,6.1212,6.1279,6.1306,6.1434,6.1536,6.1604,6.1657,6.1684,6.1716,6.1699,6.1699,6.1699,6.1699,6.1699,6.1699,6.1699,6.1699,6.1699,6.1699,6.1699,6.1699,6.1699,6.1699,6.1699,6.1699,6.1699,6.1699,6.1699,6.1699,6.1699,6.1699,6.1699,6.1699,6.1699,6.1699,6.1699,6.1699,6.1715,6.1707,6.1713,6.1703,6.1699,6.1699,6.1699,6.1699,6.1699,6.1699,6.1699,6.1699,6.1699,6.1699,6.1699,6.1699,6.1699,6.1699,6.1699,6.1699,6.1699,6.1699,6.1699,6.1699,6.1699,6.1699,6.1699,6.1699,6.1699,6.1699,6.1699,6.1699,6.1699,6.1713,6.17,6.165,6.1567,6.1487,6.136,6.1228,6.1137,6.1031,6.0949,6.0869,6.0806,6.0723,6.061,6.0578,6.0578,6.0465,6.0396,6.0396,6.0396,6.0396,6.0396,6.0396,6.0396,6.0396,6.0396,6.0396,6.0396,6.0396,6.0396,6.0396,6.0396,6.0396,6.0396]}]]